<?xml version="1.0" encoding="UTF-8" standalone="no" ?>
<gpx xmlns="http://www.topografix.com/GPX/1/1" xmlns:xsi="http://www.w3.org/2001/XMLSchema-instance" xsi:schemaLocation="http://www.topografix.com/GPX/1/1 http://www.topografix.com/GPX/1/1/gpx.xsd" version="1.1" creator="VisuGPX - https://www.visugpx.com">
  <metadata>
    <name>VTT - Sortie neigeuse vers Vaunaveys</name>
    <desc><![CDATA[Chouette sortie dans la neige. Néanmoins, les montées furent bien difficiles avec  cette même neige !]]></desc>
  </metadata>
  <trk>
    <name><![CDATA[10-JAN-19 11:39:23]]></name>
    <trkseg>
      <trkpt lat="44.76895" lon="5.03275">
        <ele>268.83</ele>
        <time>2019-01-10T08:02:17Z</time>
      </trkpt>
      <trkpt lat="44.76895" lon="5.03275">
        <ele>269.79</ele>
        <time>2019-01-10T08:02:25Z</time>
      </trkpt>
      <trkpt lat="44.76895" lon="5.03275">
        <ele>268.35</ele>
        <time>2019-01-10T08:02:40Z</time>
      </trkpt>
      <trkpt lat="44.76899" lon="5.03268">
        <ele>269.31</ele>
        <time>2019-01-10T08:03:46Z</time>
      </trkpt>
      <trkpt lat="44.76906" lon="5.03293">
        <ele>267.86</ele>
        <time>2019-01-10T08:03:55Z</time>
      </trkpt>
      <trkpt lat="44.76897" lon="5.03299">
        <ele>268.83</ele>
        <time>2019-01-10T08:03:58Z</time>
      </trkpt>
      <trkpt lat="44.76903" lon="5.03312">
        <ele>268.83</ele>
        <time>2019-01-10T08:04:06Z</time>
      </trkpt>
      <trkpt lat="44.76909" lon="5.03313">
        <ele>269.31</ele>
        <time>2019-01-10T08:04:10Z</time>
      </trkpt>
      <trkpt lat="44.7691" lon="5.03326">
        <ele>270.27</ele>
        <time>2019-01-10T08:04:15Z</time>
      </trkpt>
      <trkpt lat="44.76906" lon="5.03331">
        <ele>270.75</ele>
        <time>2019-01-10T08:04:18Z</time>
      </trkpt>
      <trkpt lat="44.76899" lon="5.03326">
        <ele>270.75</ele>
        <time>2019-01-10T08:04:22Z</time>
      </trkpt>
      <trkpt lat="44.76888" lon="5.03316">
        <ele>272.19</ele>
        <time>2019-01-10T08:04:34Z</time>
      </trkpt>
      <trkpt lat="44.76891" lon="5.03317">
        <ele>271.71</ele>
        <time>2019-01-10T08:04:38Z</time>
      </trkpt>
      <trkpt lat="44.76905" lon="5.0333">
        <ele>270.27</ele>
        <time>2019-01-10T08:04:46Z</time>
      </trkpt>
      <trkpt lat="44.76906" lon="5.03335">
        <ele>270.75</ele>
        <time>2019-01-10T08:04:51Z</time>
      </trkpt>
      <trkpt lat="44.76894" lon="5.0333">
        <ele>272.67</ele>
        <time>2019-01-10T08:04:59Z</time>
      </trkpt>
      <trkpt lat="44.76886" lon="5.03329">
        <ele>273.63</ele>
        <time>2019-01-10T08:05:11Z</time>
      </trkpt>
      <trkpt lat="44.76872" lon="5.03321">
        <ele>271.71</ele>
        <time>2019-01-10T08:05:16Z</time>
      </trkpt>
      <trkpt lat="44.76845" lon="5.03297">
        <ele>269.31</ele>
        <time>2019-01-10T08:05:22Z</time>
      </trkpt>
      <trkpt lat="44.7684" lon="5.03295">
        <ele>268.83</ele>
        <time>2019-01-10T08:05:23Z</time>
      </trkpt>
      <trkpt lat="44.76835" lon="5.03293">
        <ele>268.83</ele>
        <time>2019-01-10T08:05:24Z</time>
      </trkpt>
      <trkpt lat="44.76831" lon="5.03292">
        <ele>269.31</ele>
        <time>2019-01-10T08:05:25Z</time>
      </trkpt>
      <trkpt lat="44.76827" lon="5.03291">
        <ele>269.79</ele>
        <time>2019-01-10T08:05:26Z</time>
      </trkpt>
      <trkpt lat="44.76804" lon="5.03289">
        <ele>273.15</ele>
        <time>2019-01-10T08:05:34Z</time>
      </trkpt>
      <trkpt lat="44.76782" lon="5.03306">
        <ele>275.07</ele>
        <time>2019-01-10T08:05:45Z</time>
      </trkpt>
      <trkpt lat="44.76775" lon="5.03334">
        <ele>274.59</ele>
        <time>2019-01-10T08:05:55Z</time>
      </trkpt>
      <trkpt lat="44.76775" lon="5.03337">
        <ele>278.92</ele>
        <time>2019-01-10T08:05:56Z</time>
      </trkpt>
      <trkpt lat="44.76775" lon="5.0334">
        <ele>276.52</ele>
        <time>2019-01-10T08:05:57Z</time>
      </trkpt>
      <trkpt lat="44.76775" lon="5.03344">
        <ele>276.52</ele>
        <time>2019-01-10T08:05:58Z</time>
      </trkpt>
      <trkpt lat="44.76775" lon="5.03347">
        <ele>277</ele>
        <time>2019-01-10T08:05:59Z</time>
      </trkpt>
      <trkpt lat="44.76775" lon="5.03351">
        <ele>277</ele>
        <time>2019-01-10T08:06:00Z</time>
      </trkpt>
      <trkpt lat="44.76775" lon="5.03354">
        <ele>277</ele>
        <time>2019-01-10T08:06:01Z</time>
      </trkpt>
      <trkpt lat="44.76775" lon="5.03358">
        <ele>277</ele>
        <time>2019-01-10T08:06:02Z</time>
      </trkpt>
      <trkpt lat="44.76774" lon="5.03363">
        <ele>277.48</ele>
        <time>2019-01-10T08:06:03Z</time>
      </trkpt>
      <trkpt lat="44.76774" lon="5.03366">
        <ele>277</ele>
        <time>2019-01-10T08:06:04Z</time>
      </trkpt>
      <trkpt lat="44.76775" lon="5.0337">
        <ele>277.48</ele>
        <time>2019-01-10T08:06:05Z</time>
      </trkpt>
      <trkpt lat="44.76775" lon="5.03374">
        <ele>277.48</ele>
        <time>2019-01-10T08:06:06Z</time>
      </trkpt>
      <trkpt lat="44.76776" lon="5.03381">
        <ele>277.48</ele>
        <time>2019-01-10T08:06:08Z</time>
      </trkpt>
      <trkpt lat="44.76775" lon="5.03385">
        <ele>277.48</ele>
        <time>2019-01-10T08:06:09Z</time>
      </trkpt>
      <trkpt lat="44.76785" lon="5.03433">
        <ele>277</ele>
        <time>2019-01-10T08:06:21Z</time>
      </trkpt>
      <trkpt lat="44.76806" lon="5.03485">
        <ele>274.59</ele>
        <time>2019-01-10T08:06:31Z</time>
      </trkpt>
      <trkpt lat="44.76828" lon="5.03517">
        <ele>272.67</ele>
        <time>2019-01-10T08:06:37Z</time>
      </trkpt>
      <trkpt lat="44.76832" lon="5.03521">
        <ele>272.19</ele>
        <time>2019-01-10T08:06:38Z</time>
      </trkpt>
      <trkpt lat="44.76837" lon="5.03524">
        <ele>272.19</ele>
        <time>2019-01-10T08:06:39Z</time>
      </trkpt>
      <trkpt lat="44.7684" lon="5.03525">
        <ele>272.19</ele>
        <time>2019-01-10T08:06:40Z</time>
      </trkpt>
      <trkpt lat="44.76844" lon="5.03526">
        <ele>272.67</ele>
        <time>2019-01-10T08:06:41Z</time>
      </trkpt>
      <trkpt lat="44.76874" lon="5.03542">
        <ele>271.71</ele>
        <time>2019-01-10T08:06:51Z</time>
      </trkpt>
      <trkpt lat="44.76894" lon="5.03564">
        <ele>271.71</ele>
        <time>2019-01-10T08:07:00Z</time>
      </trkpt>
      <trkpt lat="44.76911" lon="5.03579">
        <ele>271.71</ele>
        <time>2019-01-10T08:07:08Z</time>
      </trkpt>
      <trkpt lat="44.76912" lon="5.03583">
        <ele>271.71</ele>
        <time>2019-01-10T08:07:09Z</time>
      </trkpt>
      <trkpt lat="44.76913" lon="5.03586">
        <ele>271.71</ele>
        <time>2019-01-10T08:07:10Z</time>
      </trkpt>
      <trkpt lat="44.76914" lon="5.03589">
        <ele>271.71</ele>
        <time>2019-01-10T08:07:11Z</time>
      </trkpt>
      <trkpt lat="44.76915" lon="5.03592">
        <ele>271.71</ele>
        <time>2019-01-10T08:07:12Z</time>
      </trkpt>
      <trkpt lat="44.76921" lon="5.03612">
        <ele>275.07</ele>
        <time>2019-01-10T08:07:21Z</time>
      </trkpt>
      <trkpt lat="44.76923" lon="5.03621">
        <ele>276.52</ele>
        <time>2019-01-10T08:07:25Z</time>
      </trkpt>
      <trkpt lat="44.76927" lon="5.03625">
        <ele>277.48</ele>
        <time>2019-01-10T08:07:28Z</time>
      </trkpt>
      <trkpt lat="44.76929" lon="5.03626">
        <ele>277.96</ele>
        <time>2019-01-10T08:07:29Z</time>
      </trkpt>
      <trkpt lat="44.76945" lon="5.03631">
        <ele>280.84</ele>
        <time>2019-01-10T08:07:40Z</time>
      </trkpt>
      <trkpt lat="44.76947" lon="5.03632">
        <ele>280.84</ele>
        <time>2019-01-10T08:07:41Z</time>
      </trkpt>
      <trkpt lat="44.76949" lon="5.03633">
        <ele>280.84</ele>
        <time>2019-01-10T08:07:42Z</time>
      </trkpt>
      <trkpt lat="44.76951" lon="5.03634">
        <ele>281.32</ele>
        <time>2019-01-10T08:07:43Z</time>
      </trkpt>
      <trkpt lat="44.76953" lon="5.03634">
        <ele>281.32</ele>
        <time>2019-01-10T08:07:44Z</time>
      </trkpt>
      <trkpt lat="44.76955" lon="5.03634">
        <ele>281.8</ele>
        <time>2019-01-10T08:07:45Z</time>
      </trkpt>
      <trkpt lat="44.76972" lon="5.0364">
        <ele>283.73</ele>
        <time>2019-01-10T08:07:55Z</time>
      </trkpt>
      <trkpt lat="44.76994" lon="5.03644">
        <ele>286.13</ele>
        <time>2019-01-10T08:08:07Z</time>
      </trkpt>
      <trkpt lat="44.76998" lon="5.03646">
        <ele>286.61</ele>
        <time>2019-01-10T08:08:09Z</time>
      </trkpt>
      <trkpt lat="44.77" lon="5.03647">
        <ele>286.61</ele>
        <time>2019-01-10T08:08:10Z</time>
      </trkpt>
      <trkpt lat="44.77002" lon="5.03647">
        <ele>286.61</ele>
        <time>2019-01-10T08:08:11Z</time>
      </trkpt>
      <trkpt lat="44.77004" lon="5.03647">
        <ele>287.09</ele>
        <time>2019-01-10T08:08:12Z</time>
      </trkpt>
      <trkpt lat="44.77006" lon="5.03647">
        <ele>287.09</ele>
        <time>2019-01-10T08:08:13Z</time>
      </trkpt>
      <trkpt lat="44.77008" lon="5.03646">
        <ele>287.09</ele>
        <time>2019-01-10T08:08:14Z</time>
      </trkpt>
      <trkpt lat="44.7701" lon="5.03646">
        <ele>287.09</ele>
        <time>2019-01-10T08:08:15Z</time>
      </trkpt>
      <trkpt lat="44.77012" lon="5.03646">
        <ele>287.09</ele>
        <time>2019-01-10T08:08:16Z</time>
      </trkpt>
      <trkpt lat="44.77014" lon="5.03647">
        <ele>287.57</ele>
        <time>2019-01-10T08:08:17Z</time>
      </trkpt>
      <trkpt lat="44.77017" lon="5.03647">
        <ele>287.57</ele>
        <time>2019-01-10T08:08:18Z</time>
      </trkpt>
      <trkpt lat="44.7705" lon="5.03652">
        <ele>287.57</ele>
        <time>2019-01-10T08:08:31Z</time>
      </trkpt>
      <trkpt lat="44.77063" lon="5.0367">
        <ele>290.94</ele>
        <time>2019-01-10T08:08:40Z</time>
      </trkpt>
      <trkpt lat="44.77081" lon="5.03691">
        <ele>293.34</ele>
        <time>2019-01-10T08:08:53Z</time>
      </trkpt>
      <trkpt lat="44.77096" lon="5.03709">
        <ele>296.22</ele>
        <time>2019-01-10T08:09:05Z</time>
      </trkpt>
      <trkpt lat="44.77107" lon="5.03721">
        <ele>299.11</ele>
        <time>2019-01-10T08:09:15Z</time>
      </trkpt>
      <trkpt lat="44.77109" lon="5.03722">
        <ele>299.59</ele>
        <time>2019-01-10T08:09:16Z</time>
      </trkpt>
      <trkpt lat="44.7711" lon="5.03724">
        <ele>299.59</ele>
        <time>2019-01-10T08:09:17Z</time>
      </trkpt>
      <trkpt lat="44.77111" lon="5.03725">
        <ele>300.07</ele>
        <time>2019-01-10T08:09:18Z</time>
      </trkpt>
      <trkpt lat="44.77112" lon="5.03727">
        <ele>300.07</ele>
        <time>2019-01-10T08:09:19Z</time>
      </trkpt>
      <trkpt lat="44.77113" lon="5.03729">
        <ele>300.55</ele>
        <time>2019-01-10T08:09:20Z</time>
      </trkpt>
      <trkpt lat="44.77114" lon="5.0373">
        <ele>300.55</ele>
        <time>2019-01-10T08:09:21Z</time>
      </trkpt>
      <trkpt lat="44.77114" lon="5.03732">
        <ele>301.03</ele>
        <time>2019-01-10T08:09:22Z</time>
      </trkpt>
      <trkpt lat="44.77114" lon="5.03734">
        <ele>301.03</ele>
        <time>2019-01-10T08:09:23Z</time>
      </trkpt>
      <trkpt lat="44.77115" lon="5.03736">
        <ele>301.03</ele>
        <time>2019-01-10T08:09:24Z</time>
      </trkpt>
      <trkpt lat="44.77115" lon="5.03738">
        <ele>301.51</ele>
        <time>2019-01-10T08:09:25Z</time>
      </trkpt>
      <trkpt lat="44.77116" lon="5.0374">
        <ele>301.51</ele>
        <time>2019-01-10T08:09:26Z</time>
      </trkpt>
      <trkpt lat="44.77116" lon="5.03742">
        <ele>301.51</ele>
        <time>2019-01-10T08:09:27Z</time>
      </trkpt>
      <trkpt lat="44.77117" lon="5.03744">
        <ele>301.99</ele>
        <time>2019-01-10T08:09:28Z</time>
      </trkpt>
      <trkpt lat="44.77117" lon="5.03746">
        <ele>302.47</ele>
        <time>2019-01-10T08:09:29Z</time>
      </trkpt>
      <trkpt lat="44.77117" lon="5.03748">
        <ele>302.47</ele>
        <time>2019-01-10T08:09:30Z</time>
      </trkpt>
      <trkpt lat="44.77117" lon="5.0375">
        <ele>302.95</ele>
        <time>2019-01-10T08:09:31Z</time>
      </trkpt>
      <trkpt lat="44.77117" lon="5.03752">
        <ele>302.95</ele>
        <time>2019-01-10T08:09:32Z</time>
      </trkpt>
      <trkpt lat="44.77117" lon="5.03754">
        <ele>303.43</ele>
        <time>2019-01-10T08:09:33Z</time>
      </trkpt>
      <trkpt lat="44.77118" lon="5.03755">
        <ele>303.43</ele>
        <time>2019-01-10T08:09:34Z</time>
      </trkpt>
      <trkpt lat="44.77118" lon="5.03757">
        <ele>303.91</ele>
        <time>2019-01-10T08:09:35Z</time>
      </trkpt>
      <trkpt lat="44.77119" lon="5.03759">
        <ele>303.91</ele>
        <time>2019-01-10T08:09:36Z</time>
      </trkpt>
      <trkpt lat="44.7712" lon="5.03761">
        <ele>304.39</ele>
        <time>2019-01-10T08:09:37Z</time>
      </trkpt>
      <trkpt lat="44.7712" lon="5.03763">
        <ele>304.88</ele>
        <time>2019-01-10T08:09:38Z</time>
      </trkpt>
      <trkpt lat="44.7712" lon="5.03764">
        <ele>304.88</ele>
        <time>2019-01-10T08:09:39Z</time>
      </trkpt>
      <trkpt lat="44.77121" lon="5.03766">
        <ele>305.36</ele>
        <time>2019-01-10T08:09:40Z</time>
      </trkpt>
      <trkpt lat="44.77122" lon="5.03767">
        <ele>305.36</ele>
        <time>2019-01-10T08:09:41Z</time>
      </trkpt>
      <trkpt lat="44.77122" lon="5.03769">
        <ele>305.84</ele>
        <time>2019-01-10T08:09:42Z</time>
      </trkpt>
      <trkpt lat="44.77123" lon="5.03773">
        <ele>306.32</ele>
        <time>2019-01-10T08:09:45Z</time>
      </trkpt>
      <trkpt lat="44.77123" lon="5.03775">
        <ele>306.32</ele>
        <time>2019-01-10T08:09:46Z</time>
      </trkpt>
      <trkpt lat="44.77122" lon="5.03777">
        <ele>306.8</ele>
        <time>2019-01-10T08:09:47Z</time>
      </trkpt>
      <trkpt lat="44.77122" lon="5.03779">
        <ele>306.8</ele>
        <time>2019-01-10T08:09:48Z</time>
      </trkpt>
      <trkpt lat="44.77122" lon="5.03781">
        <ele>306.8</ele>
        <time>2019-01-10T08:09:49Z</time>
      </trkpt>
      <trkpt lat="44.77122" lon="5.03783">
        <ele>306.8</ele>
        <time>2019-01-10T08:09:50Z</time>
      </trkpt>
      <trkpt lat="44.77123" lon="5.03785">
        <ele>306.8</ele>
        <time>2019-01-10T08:09:51Z</time>
      </trkpt>
      <trkpt lat="44.77123" lon="5.03796">
        <ele>308.72</ele>
        <time>2019-01-10T08:09:57Z</time>
      </trkpt>
      <trkpt lat="44.77124" lon="5.038">
        <ele>308.72</ele>
        <time>2019-01-10T08:09:59Z</time>
      </trkpt>
      <trkpt lat="44.77125" lon="5.03801">
        <ele>309.2</ele>
        <time>2019-01-10T08:10:00Z</time>
      </trkpt>
      <trkpt lat="44.77126" lon="5.03803">
        <ele>309.2</ele>
        <time>2019-01-10T08:10:01Z</time>
      </trkpt>
      <trkpt lat="44.77129" lon="5.0381">
        <ele>311.12</ele>
        <time>2019-01-10T08:10:06Z</time>
      </trkpt>
      <trkpt lat="44.77129" lon="5.03811">
        <ele>311.12</ele>
        <time>2019-01-10T08:10:07Z</time>
      </trkpt>
      <trkpt lat="44.77129" lon="5.03813">
        <ele>311.6</ele>
        <time>2019-01-10T08:10:08Z</time>
      </trkpt>
      <trkpt lat="44.77134" lon="5.0382">
        <ele>312.57</ele>
        <time>2019-01-10T08:10:13Z</time>
      </trkpt>
      <trkpt lat="44.77134" lon="5.03821">
        <ele>313.05</ele>
        <time>2019-01-10T08:10:14Z</time>
      </trkpt>
      <trkpt lat="44.77135" lon="5.03823">
        <ele>313.53</ele>
        <time>2019-01-10T08:10:15Z</time>
      </trkpt>
      <trkpt lat="44.77135" lon="5.03825">
        <ele>313.53</ele>
        <time>2019-01-10T08:10:16Z</time>
      </trkpt>
      <trkpt lat="44.77136" lon="5.03826">
        <ele>314.01</ele>
        <time>2019-01-10T08:10:17Z</time>
      </trkpt>
      <trkpt lat="44.77136" lon="5.03828">
        <ele>314.01</ele>
        <time>2019-01-10T08:10:18Z</time>
      </trkpt>
      <trkpt lat="44.77135" lon="5.03836">
        <ele>315.93</ele>
        <time>2019-01-10T08:10:23Z</time>
      </trkpt>
      <trkpt lat="44.77135" lon="5.03838">
        <ele>315.93</ele>
        <time>2019-01-10T08:10:24Z</time>
      </trkpt>
      <trkpt lat="44.77135" lon="5.03839">
        <ele>316.41</ele>
        <time>2019-01-10T08:10:25Z</time>
      </trkpt>
      <trkpt lat="44.77135" lon="5.03841">
        <ele>316.41</ele>
        <time>2019-01-10T08:10:26Z</time>
      </trkpt>
      <trkpt lat="44.77135" lon="5.03843">
        <ele>316.41</ele>
        <time>2019-01-10T08:10:27Z</time>
      </trkpt>
      <trkpt lat="44.77135" lon="5.03845">
        <ele>316.89</ele>
        <time>2019-01-10T08:10:28Z</time>
      </trkpt>
      <trkpt lat="44.77135" lon="5.03846">
        <ele>317.37</ele>
        <time>2019-01-10T08:10:29Z</time>
      </trkpt>
      <trkpt lat="44.77135" lon="5.03848">
        <ele>317.37</ele>
        <time>2019-01-10T08:10:30Z</time>
      </trkpt>
      <trkpt lat="44.77134" lon="5.0385">
        <ele>317.85</ele>
        <time>2019-01-10T08:10:31Z</time>
      </trkpt>
      <trkpt lat="44.77134" lon="5.03852">
        <ele>318.33</ele>
        <time>2019-01-10T08:10:32Z</time>
      </trkpt>
      <trkpt lat="44.77134" lon="5.03855">
        <ele>318.33</ele>
        <time>2019-01-10T08:10:34Z</time>
      </trkpt>
      <trkpt lat="44.77135" lon="5.03856">
        <ele>318.33</ele>
        <time>2019-01-10T08:10:35Z</time>
      </trkpt>
      <trkpt lat="44.77136" lon="5.03857">
        <ele>318.81</ele>
        <time>2019-01-10T08:10:36Z</time>
      </trkpt>
      <trkpt lat="44.77135" lon="5.03862">
        <ele>320.26</ele>
        <time>2019-01-10T08:10:45Z</time>
      </trkpt>
      <trkpt lat="44.77137" lon="5.0387">
        <ele>320.74</ele>
        <time>2019-01-10T08:10:50Z</time>
      </trkpt>
      <trkpt lat="44.77137" lon="5.03876">
        <ele>321.7</ele>
        <time>2019-01-10T08:10:55Z</time>
      </trkpt>
      <trkpt lat="44.77139" lon="5.03893">
        <ele>323.62</ele>
        <time>2019-01-10T08:11:09Z</time>
      </trkpt>
      <trkpt lat="44.77139" lon="5.039">
        <ele>325.06</ele>
        <time>2019-01-10T08:11:14Z</time>
      </trkpt>
      <trkpt lat="44.77143" lon="5.03908">
        <ele>327.47</ele>
        <time>2019-01-10T08:11:22Z</time>
      </trkpt>
      <trkpt lat="44.77144" lon="5.03918">
        <ele>329.39</ele>
        <time>2019-01-10T08:11:33Z</time>
      </trkpt>
      <trkpt lat="44.77148" lon="5.03924">
        <ele>330.35</ele>
        <time>2019-01-10T08:11:39Z</time>
      </trkpt>
      <trkpt lat="44.77149" lon="5.03925">
        <ele>330.83</ele>
        <time>2019-01-10T08:11:40Z</time>
      </trkpt>
      <trkpt lat="44.77151" lon="5.03931">
        <ele>332.27</ele>
        <time>2019-01-10T08:11:45Z</time>
      </trkpt>
      <trkpt lat="44.77151" lon="5.03932">
        <ele>332.27</ele>
        <time>2019-01-10T08:11:46Z</time>
      </trkpt>
      <trkpt lat="44.77152" lon="5.03934">
        <ele>332.27</ele>
        <time>2019-01-10T08:11:47Z</time>
      </trkpt>
      <trkpt lat="44.7715" lon="5.0394">
        <ele>332.75</ele>
        <time>2019-01-10T08:11:51Z</time>
      </trkpt>
      <trkpt lat="44.7715" lon="5.03942">
        <ele>333.23</ele>
        <time>2019-01-10T08:11:53Z</time>
      </trkpt>
      <trkpt lat="44.7715" lon="5.03948">
        <ele>334.2</ele>
        <time>2019-01-10T08:11:58Z</time>
      </trkpt>
      <trkpt lat="44.7715" lon="5.03959">
        <ele>336.12</ele>
        <time>2019-01-10T08:12:07Z</time>
      </trkpt>
      <trkpt lat="44.77151" lon="5.03966">
        <ele>337.56</ele>
        <time>2019-01-10T08:12:13Z</time>
      </trkpt>
      <trkpt lat="44.77146" lon="5.0398">
        <ele>339.96</ele>
        <time>2019-01-10T08:12:26Z</time>
      </trkpt>
      <trkpt lat="44.77145" lon="5.03992">
        <ele>341.89</ele>
        <time>2019-01-10T08:12:37Z</time>
      </trkpt>
      <trkpt lat="44.77144" lon="5.03998">
        <ele>342.37</ele>
        <time>2019-01-10T08:12:41Z</time>
      </trkpt>
      <trkpt lat="44.77143" lon="5.04004">
        <ele>343.33</ele>
        <time>2019-01-10T08:12:53Z</time>
      </trkpt>
      <trkpt lat="44.77143" lon="5.04019">
        <ele>345.73</ele>
        <time>2019-01-10T08:13:05Z</time>
      </trkpt>
      <trkpt lat="44.77142" lon="5.04035">
        <ele>348.62</ele>
        <time>2019-01-10T08:13:18Z</time>
      </trkpt>
      <trkpt lat="44.77142" lon="5.04035">
        <ele>349.1</ele>
        <time>2019-01-10T08:13:31Z</time>
      </trkpt>
      <trkpt lat="44.77142" lon="5.04042">
        <ele>350.06</ele>
        <time>2019-01-10T08:13:41Z</time>
      </trkpt>
      <trkpt lat="44.77142" lon="5.04044">
        <ele>350.54</ele>
        <time>2019-01-10T08:13:47Z</time>
      </trkpt>
      <trkpt lat="44.77142" lon="5.04047">
        <ele>351.02</ele>
        <time>2019-01-10T08:13:49Z</time>
      </trkpt>
      <trkpt lat="44.77141" lon="5.04049">
        <ele>351.5</ele>
        <time>2019-01-10T08:13:50Z</time>
      </trkpt>
      <trkpt lat="44.77141" lon="5.04051">
        <ele>351.98</ele>
        <time>2019-01-10T08:13:52Z</time>
      </trkpt>
      <trkpt lat="44.7714" lon="5.04052">
        <ele>351.98</ele>
        <time>2019-01-10T08:13:53Z</time>
      </trkpt>
      <trkpt lat="44.7714" lon="5.04056">
        <ele>352.46</ele>
        <time>2019-01-10T08:13:55Z</time>
      </trkpt>
      <trkpt lat="44.77141" lon="5.04058">
        <ele>352.94</ele>
        <time>2019-01-10T08:13:57Z</time>
      </trkpt>
      <trkpt lat="44.77141" lon="5.0406">
        <ele>353.42</ele>
        <time>2019-01-10T08:13:58Z</time>
      </trkpt>
      <trkpt lat="44.77141" lon="5.04067">
        <ele>354.86</ele>
        <time>2019-01-10T08:14:04Z</time>
      </trkpt>
      <trkpt lat="44.7714" lon="5.04071">
        <ele>355.34</ele>
        <time>2019-01-10T08:14:06Z</time>
      </trkpt>
      <trkpt lat="44.7714" lon="5.04074">
        <ele>355.83</ele>
        <time>2019-01-10T08:14:08Z</time>
      </trkpt>
      <trkpt lat="44.77143" lon="5.04092">
        <ele>357.75</ele>
        <time>2019-01-10T08:14:19Z</time>
      </trkpt>
      <trkpt lat="44.77145" lon="5.04098">
        <ele>358.71</ele>
        <time>2019-01-10T08:14:22Z</time>
      </trkpt>
      <trkpt lat="44.77146" lon="5.04113">
        <ele>359.19</ele>
        <time>2019-01-10T08:14:30Z</time>
      </trkpt>
      <trkpt lat="44.77146" lon="5.04115">
        <ele>359.67</ele>
        <time>2019-01-10T08:14:31Z</time>
      </trkpt>
      <trkpt lat="44.77146" lon="5.04118">
        <ele>359.67</ele>
        <time>2019-01-10T08:14:32Z</time>
      </trkpt>
      <trkpt lat="44.77147" lon="5.0412">
        <ele>359.67</ele>
        <time>2019-01-10T08:14:33Z</time>
      </trkpt>
      <trkpt lat="44.77151" lon="5.04134">
        <ele>360.15</ele>
        <time>2019-01-10T08:14:41Z</time>
      </trkpt>
      <trkpt lat="44.77152" lon="5.04137">
        <ele>359.67</ele>
        <time>2019-01-10T08:14:42Z</time>
      </trkpt>
      <trkpt lat="44.77148" lon="5.04152">
        <ele>357.75</ele>
        <time>2019-01-10T08:14:47Z</time>
      </trkpt>
      <trkpt lat="44.77142" lon="5.0416">
        <ele>356.31</ele>
        <time>2019-01-10T08:14:49Z</time>
      </trkpt>
      <trkpt lat="44.77119" lon="5.04194">
        <ele>351.98</ele>
        <time>2019-01-10T08:14:55Z</time>
      </trkpt>
      <trkpt lat="44.77115" lon="5.042">
        <ele>351.98</ele>
        <time>2019-01-10T08:14:56Z</time>
      </trkpt>
      <trkpt lat="44.77106" lon="5.04214">
        <ele>354.86</ele>
        <time>2019-01-10T08:15:02Z</time>
      </trkpt>
      <trkpt lat="44.77098" lon="5.04225">
        <ele>355.83</ele>
        <time>2019-01-10T08:15:13Z</time>
      </trkpt>
      <trkpt lat="44.77093" lon="5.04231">
        <ele>355.83</ele>
        <time>2019-01-10T08:15:19Z</time>
      </trkpt>
      <trkpt lat="44.77091" lon="5.04232">
        <ele>356.31</ele>
        <time>2019-01-10T08:15:20Z</time>
      </trkpt>
      <trkpt lat="44.77089" lon="5.04233">
        <ele>356.31</ele>
        <time>2019-01-10T08:15:21Z</time>
      </trkpt>
      <trkpt lat="44.77086" lon="5.04235">
        <ele>356.31</ele>
        <time>2019-01-10T08:15:22Z</time>
      </trkpt>
      <trkpt lat="44.77074" lon="5.04251">
        <ele>356.79</ele>
        <time>2019-01-10T08:15:32Z</time>
      </trkpt>
      <trkpt lat="44.77072" lon="5.04257">
        <ele>357.27</ele>
        <time>2019-01-10T08:15:37Z</time>
      </trkpt>
      <trkpt lat="44.77068" lon="5.04264">
        <ele>357.75</ele>
        <time>2019-01-10T08:15:44Z</time>
      </trkpt>
      <trkpt lat="44.77067" lon="5.04264">
        <ele>357.75</ele>
        <time>2019-01-10T08:15:45Z</time>
      </trkpt>
      <trkpt lat="44.77066" lon="5.04265">
        <ele>358.23</ele>
        <time>2019-01-10T08:15:46Z</time>
      </trkpt>
      <trkpt lat="44.77065" lon="5.04266">
        <ele>358.71</ele>
        <time>2019-01-10T08:15:47Z</time>
      </trkpt>
      <trkpt lat="44.77064" lon="5.04267">
        <ele>358.71</ele>
        <time>2019-01-10T08:15:48Z</time>
      </trkpt>
      <trkpt lat="44.77063" lon="5.04271">
        <ele>358.71</ele>
        <time>2019-01-10T08:15:55Z</time>
      </trkpt>
      <trkpt lat="44.77063" lon="5.04273">
        <ele>358.71</ele>
        <time>2019-01-10T08:15:56Z</time>
      </trkpt>
      <trkpt lat="44.7706" lon="5.04279">
        <ele>359.19</ele>
        <time>2019-01-10T08:15:59Z</time>
      </trkpt>
      <trkpt lat="44.7706" lon="5.04281">
        <ele>359.19</ele>
        <time>2019-01-10T08:16:00Z</time>
      </trkpt>
      <trkpt lat="44.7706" lon="5.04283">
        <ele>359.19</ele>
        <time>2019-01-10T08:16:01Z</time>
      </trkpt>
      <trkpt lat="44.77059" lon="5.04285">
        <ele>359.19</ele>
        <time>2019-01-10T08:16:02Z</time>
      </trkpt>
      <trkpt lat="44.77058" lon="5.04286">
        <ele>359.67</ele>
        <time>2019-01-10T08:16:03Z</time>
      </trkpt>
      <trkpt lat="44.77057" lon="5.04288">
        <ele>359.67</ele>
        <time>2019-01-10T08:16:04Z</time>
      </trkpt>
      <trkpt lat="44.77055" lon="5.0429">
        <ele>359.67</ele>
        <time>2019-01-10T08:16:05Z</time>
      </trkpt>
      <trkpt lat="44.77056" lon="5.04292">
        <ele>359.67</ele>
        <time>2019-01-10T08:16:06Z</time>
      </trkpt>
      <trkpt lat="44.77054" lon="5.04295">
        <ele>359.67</ele>
        <time>2019-01-10T08:16:07Z</time>
      </trkpt>
      <trkpt lat="44.77053" lon="5.04298">
        <ele>360.15</ele>
        <time>2019-01-10T08:16:08Z</time>
      </trkpt>
      <trkpt lat="44.77051" lon="5.043">
        <ele>360.15</ele>
        <time>2019-01-10T08:16:09Z</time>
      </trkpt>
      <trkpt lat="44.77051" lon="5.04303">
        <ele>360.15</ele>
        <time>2019-01-10T08:16:10Z</time>
      </trkpt>
      <trkpt lat="44.7705" lon="5.04306">
        <ele>360.15</ele>
        <time>2019-01-10T08:16:11Z</time>
      </trkpt>
      <trkpt lat="44.77046" lon="5.04315">
        <ele>360.63</ele>
        <time>2019-01-10T08:16:15Z</time>
      </trkpt>
      <trkpt lat="44.77045" lon="5.04317">
        <ele>361.11</ele>
        <time>2019-01-10T08:16:16Z</time>
      </trkpt>
      <trkpt lat="44.77044" lon="5.04319">
        <ele>361.11</ele>
        <time>2019-01-10T08:16:17Z</time>
      </trkpt>
      <trkpt lat="44.77042" lon="5.04323">
        <ele>361.11</ele>
        <time>2019-01-10T08:16:19Z</time>
      </trkpt>
      <trkpt lat="44.77041" lon="5.04325">
        <ele>361.11</ele>
        <time>2019-01-10T08:16:20Z</time>
      </trkpt>
      <trkpt lat="44.77041" lon="5.04329">
        <ele>361.59</ele>
        <time>2019-01-10T08:16:22Z</time>
      </trkpt>
      <trkpt lat="44.77038" lon="5.04336">
        <ele>362.07</ele>
        <time>2019-01-10T08:16:29Z</time>
      </trkpt>
      <trkpt lat="44.77036" lon="5.04338">
        <ele>362.07</ele>
        <time>2019-01-10T08:16:30Z</time>
      </trkpt>
      <trkpt lat="44.77032" lon="5.04345">
        <ele>362.07</ele>
        <time>2019-01-10T08:16:37Z</time>
      </trkpt>
      <trkpt lat="44.77031" lon="5.0435">
        <ele>361.59</ele>
        <time>2019-01-10T08:16:43Z</time>
      </trkpt>
      <trkpt lat="44.77031" lon="5.04352">
        <ele>361.59</ele>
        <time>2019-01-10T08:16:44Z</time>
      </trkpt>
      <trkpt lat="44.77029" lon="5.04356">
        <ele>362.07</ele>
        <time>2019-01-10T08:16:46Z</time>
      </trkpt>
      <trkpt lat="44.77028" lon="5.04357">
        <ele>361.59</ele>
        <time>2019-01-10T08:16:47Z</time>
      </trkpt>
      <trkpt lat="44.77027" lon="5.04359">
        <ele>361.59</ele>
        <time>2019-01-10T08:16:48Z</time>
      </trkpt>
      <trkpt lat="44.77026" lon="5.04361">
        <ele>361.59</ele>
        <time>2019-01-10T08:16:49Z</time>
      </trkpt>
      <trkpt lat="44.77024" lon="5.04364">
        <ele>361.59</ele>
        <time>2019-01-10T08:16:50Z</time>
      </trkpt>
      <trkpt lat="44.77023" lon="5.04367">
        <ele>361.59</ele>
        <time>2019-01-10T08:16:51Z</time>
      </trkpt>
      <trkpt lat="44.77021" lon="5.04369">
        <ele>361.59</ele>
        <time>2019-01-10T08:16:52Z</time>
      </trkpt>
      <trkpt lat="44.7702" lon="5.04371">
        <ele>361.59</ele>
        <time>2019-01-10T08:16:53Z</time>
      </trkpt>
      <trkpt lat="44.77019" lon="5.04375">
        <ele>362.07</ele>
        <time>2019-01-10T08:16:55Z</time>
      </trkpt>
      <trkpt lat="44.77019" lon="5.04377">
        <ele>362.07</ele>
        <time>2019-01-10T08:16:56Z</time>
      </trkpt>
      <trkpt lat="44.77018" lon="5.04379">
        <ele>362.07</ele>
        <time>2019-01-10T08:16:57Z</time>
      </trkpt>
      <trkpt lat="44.77015" lon="5.04383">
        <ele>362.07</ele>
        <time>2019-01-10T08:16:59Z</time>
      </trkpt>
      <trkpt lat="44.77014" lon="5.04386">
        <ele>362.07</ele>
        <time>2019-01-10T08:17:00Z</time>
      </trkpt>
      <trkpt lat="44.77014" lon="5.04389">
        <ele>362.55</ele>
        <time>2019-01-10T08:17:01Z</time>
      </trkpt>
      <trkpt lat="44.77014" lon="5.04391">
        <ele>362.55</ele>
        <time>2019-01-10T08:17:02Z</time>
      </trkpt>
      <trkpt lat="44.77014" lon="5.04394">
        <ele>362.55</ele>
        <time>2019-01-10T08:17:03Z</time>
      </trkpt>
      <trkpt lat="44.77014" lon="5.04397">
        <ele>362.55</ele>
        <time>2019-01-10T08:17:04Z</time>
      </trkpt>
      <trkpt lat="44.77014" lon="5.04399">
        <ele>362.55</ele>
        <time>2019-01-10T08:17:05Z</time>
      </trkpt>
      <trkpt lat="44.77014" lon="5.04403">
        <ele>362.55</ele>
        <time>2019-01-10T08:17:06Z</time>
      </trkpt>
      <trkpt lat="44.77013" lon="5.0441">
        <ele>362.55</ele>
        <time>2019-01-10T08:17:09Z</time>
      </trkpt>
      <trkpt lat="44.77007" lon="5.04425">
        <ele>364.48</ele>
        <time>2019-01-10T08:17:17Z</time>
      </trkpt>
      <trkpt lat="44.77007" lon="5.04428">
        <ele>364.48</ele>
        <time>2019-01-10T08:17:18Z</time>
      </trkpt>
      <trkpt lat="44.77007" lon="5.0443">
        <ele>364.96</ele>
        <time>2019-01-10T08:17:19Z</time>
      </trkpt>
      <trkpt lat="44.77007" lon="5.04432">
        <ele>364.96</ele>
        <time>2019-01-10T08:17:20Z</time>
      </trkpt>
      <trkpt lat="44.77007" lon="5.04434">
        <ele>364.96</ele>
        <time>2019-01-10T08:17:21Z</time>
      </trkpt>
      <trkpt lat="44.77007" lon="5.04437">
        <ele>364.96</ele>
        <time>2019-01-10T08:17:22Z</time>
      </trkpt>
      <trkpt lat="44.77007" lon="5.04439">
        <ele>365.44</ele>
        <time>2019-01-10T08:17:23Z</time>
      </trkpt>
      <trkpt lat="44.77007" lon="5.04455">
        <ele>366.88</ele>
        <time>2019-01-10T08:17:30Z</time>
      </trkpt>
      <trkpt lat="44.77006" lon="5.04457">
        <ele>367.36</ele>
        <time>2019-01-10T08:17:31Z</time>
      </trkpt>
      <trkpt lat="44.77006" lon="5.0446">
        <ele>367.36</ele>
        <time>2019-01-10T08:17:32Z</time>
      </trkpt>
      <trkpt lat="44.77" lon="5.04493">
        <ele>370.24</ele>
        <time>2019-01-10T08:17:47Z</time>
      </trkpt>
      <trkpt lat="44.77" lon="5.04494">
        <ele>370.24</ele>
        <time>2019-01-10T08:17:48Z</time>
      </trkpt>
      <trkpt lat="44.77" lon="5.04496">
        <ele>370.73</ele>
        <time>2019-01-10T08:17:49Z</time>
      </trkpt>
      <trkpt lat="44.76995" lon="5.04529">
        <ele>373.61</ele>
        <time>2019-01-10T08:18:05Z</time>
      </trkpt>
      <trkpt lat="44.76994" lon="5.04541">
        <ele>375.05</ele>
        <time>2019-01-10T08:18:12Z</time>
      </trkpt>
      <trkpt lat="44.76995" lon="5.04542">
        <ele>374.57</ele>
        <time>2019-01-10T08:18:13Z</time>
      </trkpt>
      <trkpt lat="44.76998" lon="5.04542">
        <ele>373.61</ele>
        <time>2019-01-10T08:18:14Z</time>
      </trkpt>
      <trkpt lat="44.77" lon="5.04541">
        <ele>373.13</ele>
        <time>2019-01-10T08:18:15Z</time>
      </trkpt>
      <trkpt lat="44.77004" lon="5.04539">
        <ele>372.65</ele>
        <time>2019-01-10T08:18:16Z</time>
      </trkpt>
      <trkpt lat="44.77008" lon="5.04538">
        <ele>371.69</ele>
        <time>2019-01-10T08:18:17Z</time>
      </trkpt>
      <trkpt lat="44.77021" lon="5.04536">
        <ele>370.24</ele>
        <time>2019-01-10T08:18:20Z</time>
      </trkpt>
      <trkpt lat="44.7703" lon="5.04536">
        <ele>368.8</ele>
        <time>2019-01-10T08:18:22Z</time>
      </trkpt>
      <trkpt lat="44.77034" lon="5.04535">
        <ele>368.8</ele>
        <time>2019-01-10T08:18:23Z</time>
      </trkpt>
      <trkpt lat="44.7705" lon="5.04526">
        <ele>364.96</ele>
        <time>2019-01-10T08:18:26Z</time>
      </trkpt>
      <trkpt lat="44.77056" lon="5.04523">
        <ele>364</ele>
        <time>2019-01-10T08:18:27Z</time>
      </trkpt>
      <trkpt lat="44.77063" lon="5.04522">
        <ele>363.04</ele>
        <time>2019-01-10T08:18:28Z</time>
      </trkpt>
      <trkpt lat="44.7707" lon="5.04522">
        <ele>362.07</ele>
        <time>2019-01-10T08:18:29Z</time>
      </trkpt>
      <trkpt lat="44.77085" lon="5.04525">
        <ele>360.15</ele>
        <time>2019-01-10T08:18:31Z</time>
      </trkpt>
      <trkpt lat="44.77092" lon="5.04528">
        <ele>360.15</ele>
        <time>2019-01-10T08:18:32Z</time>
      </trkpt>
      <trkpt lat="44.77114" lon="5.04539">
        <ele>356.79</ele>
        <time>2019-01-10T08:18:35Z</time>
      </trkpt>
      <trkpt lat="44.77121" lon="5.04544">
        <ele>356.79</ele>
        <time>2019-01-10T08:18:36Z</time>
      </trkpt>
      <trkpt lat="44.77145" lon="5.04562">
        <ele>352.46</ele>
        <time>2019-01-10T08:18:40Z</time>
      </trkpt>
      <trkpt lat="44.77162" lon="5.04576">
        <ele>350.06</ele>
        <time>2019-01-10T08:18:43Z</time>
      </trkpt>
      <trkpt lat="44.77171" lon="5.04585">
        <ele>347.65</ele>
        <time>2019-01-10T08:18:45Z</time>
      </trkpt>
      <trkpt lat="44.77176" lon="5.04587">
        <ele>347.17</ele>
        <time>2019-01-10T08:18:46Z</time>
      </trkpt>
      <trkpt lat="44.77181" lon="5.04587">
        <ele>346.21</ele>
        <time>2019-01-10T08:18:47Z</time>
      </trkpt>
      <trkpt lat="44.77185" lon="5.04584">
        <ele>345.25</ele>
        <time>2019-01-10T08:18:48Z</time>
      </trkpt>
      <trkpt lat="44.77189" lon="5.04581">
        <ele>344.29</ele>
        <time>2019-01-10T08:18:49Z</time>
      </trkpt>
      <trkpt lat="44.77194" lon="5.04579">
        <ele>343.33</ele>
        <time>2019-01-10T08:18:50Z</time>
      </trkpt>
      <trkpt lat="44.77199" lon="5.0458">
        <ele>342.37</ele>
        <time>2019-01-10T08:18:51Z</time>
      </trkpt>
      <trkpt lat="44.77203" lon="5.04582">
        <ele>341.41</ele>
        <time>2019-01-10T08:18:52Z</time>
      </trkpt>
      <trkpt lat="44.77207" lon="5.04585">
        <ele>340.44</ele>
        <time>2019-01-10T08:18:53Z</time>
      </trkpt>
      <trkpt lat="44.77212" lon="5.04589">
        <ele>339</ele>
        <time>2019-01-10T08:18:54Z</time>
      </trkpt>
      <trkpt lat="44.77216" lon="5.04591">
        <ele>338.52</ele>
        <time>2019-01-10T08:18:55Z</time>
      </trkpt>
      <trkpt lat="44.7722" lon="5.04589">
        <ele>337.56</ele>
        <time>2019-01-10T08:18:56Z</time>
      </trkpt>
      <trkpt lat="44.77221" lon="5.04586">
        <ele>337.08</ele>
        <time>2019-01-10T08:18:57Z</time>
      </trkpt>
      <trkpt lat="44.77222" lon="5.04581">
        <ele>337.08</ele>
        <time>2019-01-10T08:18:58Z</time>
      </trkpt>
      <trkpt lat="44.7722" lon="5.04576">
        <ele>336.12</ele>
        <time>2019-01-10T08:18:59Z</time>
      </trkpt>
      <trkpt lat="44.77218" lon="5.04572">
        <ele>336.12</ele>
        <time>2019-01-10T08:19:00Z</time>
      </trkpt>
      <trkpt lat="44.77215" lon="5.04564">
        <ele>334.68</ele>
        <time>2019-01-10T08:19:02Z</time>
      </trkpt>
      <trkpt lat="44.77212" lon="5.04557">
        <ele>335.16</ele>
        <time>2019-01-10T08:19:04Z</time>
      </trkpt>
      <trkpt lat="44.77211" lon="5.04553">
        <ele>334.68</ele>
        <time>2019-01-10T08:19:05Z</time>
      </trkpt>
      <trkpt lat="44.77204" lon="5.04513">
        <ele>334.68</ele>
        <time>2019-01-10T08:19:15Z</time>
      </trkpt>
      <trkpt lat="44.77203" lon="5.04509">
        <ele>335.16</ele>
        <time>2019-01-10T08:19:16Z</time>
      </trkpt>
      <trkpt lat="44.77203" lon="5.04506">
        <ele>334.68</ele>
        <time>2019-01-10T08:19:17Z</time>
      </trkpt>
      <trkpt lat="44.77203" lon="5.04502">
        <ele>335.16</ele>
        <time>2019-01-10T08:19:18Z</time>
      </trkpt>
      <trkpt lat="44.77203" lon="5.04498">
        <ele>335.16</ele>
        <time>2019-01-10T08:19:19Z</time>
      </trkpt>
      <trkpt lat="44.77203" lon="5.04485">
        <ele>336.6</ele>
        <time>2019-01-10T08:19:23Z</time>
      </trkpt>
      <trkpt lat="44.77204" lon="5.04481">
        <ele>336.6</ele>
        <time>2019-01-10T08:19:24Z</time>
      </trkpt>
      <trkpt lat="44.77204" lon="5.04478">
        <ele>337.08</ele>
        <time>2019-01-10T08:19:25Z</time>
      </trkpt>
      <trkpt lat="44.77205" lon="5.04475">
        <ele>337.56</ele>
        <time>2019-01-10T08:19:26Z</time>
      </trkpt>
      <trkpt lat="44.77205" lon="5.04472">
        <ele>338.04</ele>
        <time>2019-01-10T08:19:27Z</time>
      </trkpt>
      <trkpt lat="44.77205" lon="5.04468">
        <ele>338.04</ele>
        <time>2019-01-10T08:19:28Z</time>
      </trkpt>
      <trkpt lat="44.77205" lon="5.04465">
        <ele>338.52</ele>
        <time>2019-01-10T08:19:29Z</time>
      </trkpt>
      <trkpt lat="44.77205" lon="5.04462">
        <ele>339</ele>
        <time>2019-01-10T08:19:30Z</time>
      </trkpt>
      <trkpt lat="44.77202" lon="5.04421">
        <ele>341.89</ele>
        <time>2019-01-10T08:19:43Z</time>
      </trkpt>
      <trkpt lat="44.772" lon="5.04374">
        <ele>342.37</ele>
        <time>2019-01-10T08:19:56Z</time>
      </trkpt>
      <trkpt lat="44.77199" lon="5.04357">
        <ele>341.41</ele>
        <time>2019-01-10T08:19:59Z</time>
      </trkpt>
      <trkpt lat="44.772" lon="5.0435">
        <ele>340.92</ele>
        <time>2019-01-10T08:20:00Z</time>
      </trkpt>
      <trkpt lat="44.77202" lon="5.04344">
        <ele>339.96</ele>
        <time>2019-01-10T08:20:01Z</time>
      </trkpt>
      <trkpt lat="44.77206" lon="5.04339">
        <ele>339.48</ele>
        <time>2019-01-10T08:20:02Z</time>
      </trkpt>
      <trkpt lat="44.77211" lon="5.04336">
        <ele>339.48</ele>
        <time>2019-01-10T08:20:03Z</time>
      </trkpt>
      <trkpt lat="44.77216" lon="5.04335">
        <ele>339</ele>
        <time>2019-01-10T08:20:04Z</time>
      </trkpt>
      <trkpt lat="44.77221" lon="5.04334">
        <ele>339</ele>
        <time>2019-01-10T08:20:05Z</time>
      </trkpt>
      <trkpt lat="44.77226" lon="5.04332">
        <ele>339</ele>
        <time>2019-01-10T08:20:06Z</time>
      </trkpt>
      <trkpt lat="44.7723" lon="5.04331">
        <ele>339.48</ele>
        <time>2019-01-10T08:20:07Z</time>
      </trkpt>
      <trkpt lat="44.7725" lon="5.04327">
        <ele>341.41</ele>
        <time>2019-01-10T08:20:14Z</time>
      </trkpt>
      <trkpt lat="44.77252" lon="5.04329">
        <ele>341.41</ele>
        <time>2019-01-10T08:20:15Z</time>
      </trkpt>
      <trkpt lat="44.77253" lon="5.04331">
        <ele>341.89</ele>
        <time>2019-01-10T08:20:16Z</time>
      </trkpt>
      <trkpt lat="44.77253" lon="5.04334">
        <ele>341.89</ele>
        <time>2019-01-10T08:20:17Z</time>
      </trkpt>
      <trkpt lat="44.77251" lon="5.04335">
        <ele>341.89</ele>
        <time>2019-01-10T08:20:18Z</time>
      </trkpt>
      <trkpt lat="44.77249" lon="5.04337">
        <ele>341.89</ele>
        <time>2019-01-10T08:20:19Z</time>
      </trkpt>
      <trkpt lat="44.77246" lon="5.04338">
        <ele>342.37</ele>
        <time>2019-01-10T08:20:20Z</time>
      </trkpt>
      <trkpt lat="44.77234" lon="5.04356">
        <ele>344.29</ele>
        <time>2019-01-10T08:20:29Z</time>
      </trkpt>
      <trkpt lat="44.77234" lon="5.04358">
        <ele>344.29</ele>
        <time>2019-01-10T08:20:30Z</time>
      </trkpt>
      <trkpt lat="44.77234" lon="5.04361">
        <ele>344.77</ele>
        <time>2019-01-10T08:20:31Z</time>
      </trkpt>
      <trkpt lat="44.77233" lon="5.04363">
        <ele>344.77</ele>
        <time>2019-01-10T08:20:32Z</time>
      </trkpt>
      <trkpt lat="44.77233" lon="5.04366">
        <ele>344.77</ele>
        <time>2019-01-10T08:20:33Z</time>
      </trkpt>
      <trkpt lat="44.77233" lon="5.04369">
        <ele>345.25</ele>
        <time>2019-01-10T08:20:34Z</time>
      </trkpt>
      <trkpt lat="44.77233" lon="5.04371">
        <ele>345.25</ele>
        <time>2019-01-10T08:20:35Z</time>
      </trkpt>
      <trkpt lat="44.77234" lon="5.04374">
        <ele>345.25</ele>
        <time>2019-01-10T08:20:36Z</time>
      </trkpt>
      <trkpt lat="44.77235" lon="5.04377">
        <ele>345.73</ele>
        <time>2019-01-10T08:20:37Z</time>
      </trkpt>
      <trkpt lat="44.77235" lon="5.04379">
        <ele>345.73</ele>
        <time>2019-01-10T08:20:38Z</time>
      </trkpt>
      <trkpt lat="44.77247" lon="5.04399">
        <ele>348.62</ele>
        <time>2019-01-10T08:20:48Z</time>
      </trkpt>
      <trkpt lat="44.77263" lon="5.04424">
        <ele>351.98</ele>
        <time>2019-01-10T08:21:01Z</time>
      </trkpt>
      <trkpt lat="44.77278" lon="5.04443">
        <ele>355.34</ele>
        <time>2019-01-10T08:21:12Z</time>
      </trkpt>
      <trkpt lat="44.77292" lon="5.04465">
        <ele>358.23</ele>
        <time>2019-01-10T08:21:25Z</time>
      </trkpt>
      <trkpt lat="44.7731" lon="5.04482">
        <ele>361.59</ele>
        <time>2019-01-10T08:21:38Z</time>
      </trkpt>
      <trkpt lat="44.77329" lon="5.04501">
        <ele>364.96</ele>
        <time>2019-01-10T08:21:52Z</time>
      </trkpt>
      <trkpt lat="44.77334" lon="5.04525">
        <ele>367.84</ele>
        <time>2019-01-10T08:22:03Z</time>
      </trkpt>
      <trkpt lat="44.7734" lon="5.04554">
        <ele>371.21</ele>
        <time>2019-01-10T08:22:16Z</time>
      </trkpt>
      <trkpt lat="44.77357" lon="5.04594">
        <ele>374.09</ele>
        <time>2019-01-10T08:22:34Z</time>
      </trkpt>
      <trkpt lat="44.77372" lon="5.04612">
        <ele>376.97</ele>
        <time>2019-01-10T08:22:46Z</time>
      </trkpt>
      <trkpt lat="44.77381" lon="5.04616">
        <ele>378.42</ele>
        <time>2019-01-10T08:22:51Z</time>
      </trkpt>
      <trkpt lat="44.77382" lon="5.04616">
        <ele>378.9</ele>
        <time>2019-01-10T08:22:52Z</time>
      </trkpt>
      <trkpt lat="44.77384" lon="5.04616">
        <ele>379.38</ele>
        <time>2019-01-10T08:22:53Z</time>
      </trkpt>
      <trkpt lat="44.77407" lon="5.04618">
        <ele>382.74</ele>
        <time>2019-01-10T08:23:06Z</time>
      </trkpt>
      <trkpt lat="44.7741" lon="5.04618">
        <ele>383.22</ele>
        <time>2019-01-10T08:23:08Z</time>
      </trkpt>
      <trkpt lat="44.77412" lon="5.04617">
        <ele>383.22</ele>
        <time>2019-01-10T08:23:09Z</time>
      </trkpt>
      <trkpt lat="44.77413" lon="5.04617">
        <ele>383.7</ele>
        <time>2019-01-10T08:23:10Z</time>
      </trkpt>
      <trkpt lat="44.77433" lon="5.04605">
        <ele>387.07</ele>
        <time>2019-01-10T08:23:23Z</time>
      </trkpt>
      <trkpt lat="44.77455" lon="5.04603">
        <ele>389.95</ele>
        <time>2019-01-10T08:23:36Z</time>
      </trkpt>
      <trkpt lat="44.77481" lon="5.04616">
        <ele>391.87</ele>
        <time>2019-01-10T08:23:52Z</time>
      </trkpt>
      <trkpt lat="44.77503" lon="5.04618">
        <ele>394.76</ele>
        <time>2019-01-10T08:24:06Z</time>
      </trkpt>
      <trkpt lat="44.77504" lon="5.04618">
        <ele>394.76</ele>
        <time>2019-01-10T08:24:07Z</time>
      </trkpt>
      <trkpt lat="44.77506" lon="5.04618">
        <ele>395.24</ele>
        <time>2019-01-10T08:24:08Z</time>
      </trkpt>
      <trkpt lat="44.77507" lon="5.04618">
        <ele>395.24</ele>
        <time>2019-01-10T08:24:09Z</time>
      </trkpt>
      <trkpt lat="44.77508" lon="5.04617">
        <ele>395.72</ele>
        <time>2019-01-10T08:24:10Z</time>
      </trkpt>
      <trkpt lat="44.77509" lon="5.04617">
        <ele>395.72</ele>
        <time>2019-01-10T08:24:11Z</time>
      </trkpt>
      <trkpt lat="44.77511" lon="5.04616">
        <ele>396.2</ele>
        <time>2019-01-10T08:24:12Z</time>
      </trkpt>
      <trkpt lat="44.77513" lon="5.04615">
        <ele>396.2</ele>
        <time>2019-01-10T08:24:13Z</time>
      </trkpt>
      <trkpt lat="44.77514" lon="5.04615">
        <ele>396.68</ele>
        <time>2019-01-10T08:24:14Z</time>
      </trkpt>
      <trkpt lat="44.77516" lon="5.04614">
        <ele>396.68</ele>
        <time>2019-01-10T08:24:15Z</time>
      </trkpt>
      <trkpt lat="44.77517" lon="5.04614">
        <ele>396.68</ele>
        <time>2019-01-10T08:24:16Z</time>
      </trkpt>
      <trkpt lat="44.77519" lon="5.04613">
        <ele>397.16</ele>
        <time>2019-01-10T08:24:17Z</time>
      </trkpt>
      <trkpt lat="44.77529" lon="5.04609">
        <ele>399.57</ele>
        <time>2019-01-10T08:24:24Z</time>
      </trkpt>
      <trkpt lat="44.77543" lon="5.04608">
        <ele>402.45</ele>
        <time>2019-01-10T08:24:34Z</time>
      </trkpt>
      <trkpt lat="44.77556" lon="5.0461">
        <ele>405.81</ele>
        <time>2019-01-10T08:24:43Z</time>
      </trkpt>
      <trkpt lat="44.77574" lon="5.04613">
        <ele>409.18</ele>
        <time>2019-01-10T08:24:56Z</time>
      </trkpt>
      <trkpt lat="44.77592" lon="5.04619">
        <ele>412.06</ele>
        <time>2019-01-10T08:25:10Z</time>
      </trkpt>
      <trkpt lat="44.77598" lon="5.04622">
        <ele>413.5</ele>
        <time>2019-01-10T08:25:15Z</time>
      </trkpt>
      <trkpt lat="44.77599" lon="5.04622">
        <ele>413.5</ele>
        <time>2019-01-10T08:25:16Z</time>
      </trkpt>
      <trkpt lat="44.776" lon="5.04622">
        <ele>413.98</ele>
        <time>2019-01-10T08:25:17Z</time>
      </trkpt>
      <trkpt lat="44.77602" lon="5.04623">
        <ele>414.47</ele>
        <time>2019-01-10T08:25:18Z</time>
      </trkpt>
      <trkpt lat="44.77603" lon="5.04623">
        <ele>414.47</ele>
        <time>2019-01-10T08:25:19Z</time>
      </trkpt>
      <trkpt lat="44.77618" lon="5.04632">
        <ele>417.83</ele>
        <time>2019-01-10T08:25:33Z</time>
      </trkpt>
      <trkpt lat="44.77625" lon="5.04636">
        <ele>419.27</ele>
        <time>2019-01-10T08:25:39Z</time>
      </trkpt>
      <trkpt lat="44.77627" lon="5.04637">
        <ele>419.27</ele>
        <time>2019-01-10T08:25:40Z</time>
      </trkpt>
      <trkpt lat="44.77634" lon="5.04638">
        <ele>421.19</ele>
        <time>2019-01-10T08:25:46Z</time>
      </trkpt>
      <trkpt lat="44.7765" lon="5.04639">
        <ele>423.12</ele>
        <time>2019-01-10T08:25:59Z</time>
      </trkpt>
      <trkpt lat="44.77661" lon="5.04642">
        <ele>426.48</ele>
        <time>2019-01-10T08:26:08Z</time>
      </trkpt>
      <trkpt lat="44.77677" lon="5.04649">
        <ele>429.37</ele>
        <time>2019-01-10T08:26:22Z</time>
      </trkpt>
      <trkpt lat="44.7769" lon="5.04653">
        <ele>432.73</ele>
        <time>2019-01-10T08:26:33Z</time>
      </trkpt>
      <trkpt lat="44.77702" lon="5.04656">
        <ele>435.61</ele>
        <time>2019-01-10T08:26:44Z</time>
      </trkpt>
      <trkpt lat="44.77712" lon="5.04658">
        <ele>438.98</ele>
        <time>2019-01-10T08:26:54Z</time>
      </trkpt>
      <trkpt lat="44.7773" lon="5.04661">
        <ele>441.38</ele>
        <time>2019-01-10T08:27:09Z</time>
      </trkpt>
      <trkpt lat="44.77738" lon="5.04659">
        <ele>443.79</ele>
        <time>2019-01-10T08:27:17Z</time>
      </trkpt>
      <trkpt lat="44.77742" lon="5.04657">
        <ele>444.27</ele>
        <time>2019-01-10T08:27:20Z</time>
      </trkpt>
      <trkpt lat="44.77743" lon="5.04656">
        <ele>444.75</ele>
        <time>2019-01-10T08:27:21Z</time>
      </trkpt>
      <trkpt lat="44.77744" lon="5.04654">
        <ele>444.75</ele>
        <time>2019-01-10T08:27:22Z</time>
      </trkpt>
      <trkpt lat="44.77756" lon="5.04628">
        <ele>447.63</ele>
        <time>2019-01-10T08:27:37Z</time>
      </trkpt>
      <trkpt lat="44.77771" lon="5.046">
        <ele>448.59</ele>
        <time>2019-01-10T08:27:53Z</time>
      </trkpt>
      <trkpt lat="44.77784" lon="5.04576">
        <ele>449.55</ele>
        <time>2019-01-10T08:28:07Z</time>
      </trkpt>
      <trkpt lat="44.778" lon="5.04559">
        <ele>452.44</ele>
        <time>2019-01-10T08:28:21Z</time>
      </trkpt>
      <trkpt lat="44.77817" lon="5.04548">
        <ele>454.84</ele>
        <time>2019-01-10T08:28:35Z</time>
      </trkpt>
      <trkpt lat="44.77833" lon="5.04539">
        <ele>458.21</ele>
        <time>2019-01-10T08:28:48Z</time>
      </trkpt>
      <trkpt lat="44.77848" lon="5.04531">
        <ele>459.65</ele>
        <time>2019-01-10T08:29:02Z</time>
      </trkpt>
      <trkpt lat="44.77849" lon="5.0453">
        <ele>459.65</ele>
        <time>2019-01-10T08:29:03Z</time>
      </trkpt>
      <trkpt lat="44.77853" lon="5.04528">
        <ele>461.09</ele>
        <time>2019-01-10T08:29:07Z</time>
      </trkpt>
      <trkpt lat="44.77854" lon="5.04528">
        <ele>461.09</ele>
        <time>2019-01-10T08:29:08Z</time>
      </trkpt>
      <trkpt lat="44.77855" lon="5.04527">
        <ele>461.57</ele>
        <time>2019-01-10T08:29:09Z</time>
      </trkpt>
      <trkpt lat="44.77856" lon="5.04527">
        <ele>461.57</ele>
        <time>2019-01-10T08:29:10Z</time>
      </trkpt>
      <trkpt lat="44.77858" lon="5.04526">
        <ele>462.05</ele>
        <time>2019-01-10T08:29:11Z</time>
      </trkpt>
      <trkpt lat="44.77859" lon="5.04524">
        <ele>463.01</ele>
        <time>2019-01-10T08:29:13Z</time>
      </trkpt>
      <trkpt lat="44.77862" lon="5.04523">
        <ele>464.45</ele>
        <time>2019-01-10T08:29:16Z</time>
      </trkpt>
      <trkpt lat="44.77882" lon="5.0451">
        <ele>465.9</ele>
        <time>2019-01-10T08:29:32Z</time>
      </trkpt>
      <trkpt lat="44.77886" lon="5.04507">
        <ele>465.9</ele>
        <time>2019-01-10T08:29:35Z</time>
      </trkpt>
      <trkpt lat="44.77887" lon="5.04507">
        <ele>466.38</ele>
        <time>2019-01-10T08:29:36Z</time>
      </trkpt>
      <trkpt lat="44.77891" lon="5.04503">
        <ele>467.34</ele>
        <time>2019-01-10T08:29:39Z</time>
      </trkpt>
      <trkpt lat="44.77918" lon="5.04487">
        <ele>468.3</ele>
        <time>2019-01-10T08:29:54Z</time>
      </trkpt>
      <trkpt lat="44.77947" lon="5.04466">
        <ele>468.78</ele>
        <time>2019-01-10T08:30:08Z</time>
      </trkpt>
      <trkpt lat="44.77978" lon="5.04446">
        <ele>469.74</ele>
        <time>2019-01-10T08:30:22Z</time>
      </trkpt>
      <trkpt lat="44.78011" lon="5.04424">
        <ele>470.7</ele>
        <time>2019-01-10T08:30:37Z</time>
      </trkpt>
      <trkpt lat="44.78038" lon="5.04414">
        <ele>472.63</ele>
        <time>2019-01-10T08:30:49Z</time>
      </trkpt>
      <trkpt lat="44.78042" lon="5.04421">
        <ele>473.11</ele>
        <time>2019-01-10T08:30:52Z</time>
      </trkpt>
      <trkpt lat="44.78043" lon="5.04424">
        <ele>473.11</ele>
        <time>2019-01-10T08:30:53Z</time>
      </trkpt>
      <trkpt lat="44.7804" lon="5.04457">
        <ele>475.03</ele>
        <time>2019-01-10T08:31:04Z</time>
      </trkpt>
      <trkpt lat="44.78039" lon="5.04498">
        <ele>477.91</ele>
        <time>2019-01-10T08:31:19Z</time>
      </trkpt>
      <trkpt lat="44.78038" lon="5.04528">
        <ele>480.8</ele>
        <time>2019-01-10T08:31:31Z</time>
      </trkpt>
      <trkpt lat="44.78035" lon="5.04537">
        <ele>482.24</ele>
        <time>2019-01-10T08:31:42Z</time>
      </trkpt>
      <trkpt lat="44.78034" lon="5.04537">
        <ele>480.8</ele>
        <time>2019-01-10T08:32:00Z</time>
      </trkpt>
      <trkpt lat="44.78034" lon="5.04536">
        <ele>481.28</ele>
        <time>2019-01-10T08:32:23Z</time>
      </trkpt>
      <trkpt lat="44.78034" lon="5.04536">
        <ele>481.76</ele>
        <time>2019-01-10T08:32:32Z</time>
      </trkpt>
      <trkpt lat="44.78034" lon="5.04536">
        <ele>480.32</ele>
        <time>2019-01-10T08:32:37Z</time>
      </trkpt>
      <trkpt lat="44.78034" lon="5.04536">
        <ele>481.76</ele>
        <time>2019-01-10T08:32:51Z</time>
      </trkpt>
      <trkpt lat="44.78035" lon="5.04536">
        <ele>480.8</ele>
        <time>2019-01-10T08:33:16Z</time>
      </trkpt>
      <trkpt lat="44.78034" lon="5.04536">
        <ele>481.28</ele>
        <time>2019-01-10T08:33:50Z</time>
      </trkpt>
      <trkpt lat="44.78034" lon="5.04536">
        <ele>480.8</ele>
        <time>2019-01-10T08:34:12Z</time>
      </trkpt>
      <trkpt lat="44.78033" lon="5.04536">
        <ele>482.24</ele>
        <time>2019-01-10T08:34:18Z</time>
      </trkpt>
      <trkpt lat="44.78034" lon="5.04536">
        <ele>481.76</ele>
        <time>2019-01-10T08:34:22Z</time>
      </trkpt>
      <trkpt lat="44.78035" lon="5.04539">
        <ele>482.24</ele>
        <time>2019-01-10T08:34:32Z</time>
      </trkpt>
      <trkpt lat="44.78027" lon="5.04549">
        <ele>483.2</ele>
        <time>2019-01-10T08:34:44Z</time>
      </trkpt>
      <trkpt lat="44.78025" lon="5.04557">
        <ele>483.68</ele>
        <time>2019-01-10T08:34:49Z</time>
      </trkpt>
      <trkpt lat="44.78018" lon="5.04573">
        <ele>486.08</ele>
        <time>2019-01-10T08:35:01Z</time>
      </trkpt>
      <trkpt lat="44.78013" lon="5.04591">
        <ele>488.49</ele>
        <time>2019-01-10T08:35:12Z</time>
      </trkpt>
      <trkpt lat="44.78007" lon="5.04607">
        <ele>491.85</ele>
        <time>2019-01-10T08:35:23Z</time>
      </trkpt>
      <trkpt lat="44.78007" lon="5.04609">
        <ele>492.33</ele>
        <time>2019-01-10T08:35:24Z</time>
      </trkpt>
      <trkpt lat="44.78003" lon="5.04618">
        <ele>493.29</ele>
        <time>2019-01-10T08:35:30Z</time>
      </trkpt>
      <trkpt lat="44.77995" lon="5.04633">
        <ele>496.18</ele>
        <time>2019-01-10T08:35:41Z</time>
      </trkpt>
      <trkpt lat="44.77992" lon="5.04638">
        <ele>497.14</ele>
        <time>2019-01-10T08:35:45Z</time>
      </trkpt>
      <trkpt lat="44.7799" lon="5.04642">
        <ele>498.58</ele>
        <time>2019-01-10T08:35:49Z</time>
      </trkpt>
      <trkpt lat="44.77986" lon="5.04648">
        <ele>499.54</ele>
        <time>2019-01-10T08:35:54Z</time>
      </trkpt>
      <trkpt lat="44.77983" lon="5.04656">
        <ele>501.46</ele>
        <time>2019-01-10T08:36:00Z</time>
      </trkpt>
      <trkpt lat="44.77982" lon="5.04663">
        <ele>502.43</ele>
        <time>2019-01-10T08:36:04Z</time>
      </trkpt>
      <trkpt lat="44.77997" lon="5.0467">
        <ele>503.87</ele>
        <time>2019-01-10T08:36:18Z</time>
      </trkpt>
      <trkpt lat="44.78002" lon="5.04666">
        <ele>503.87</ele>
        <time>2019-01-10T08:36:22Z</time>
      </trkpt>
      <trkpt lat="44.78009" lon="5.04663">
        <ele>504.83</ele>
        <time>2019-01-10T08:36:32Z</time>
      </trkpt>
      <trkpt lat="44.78016" lon="5.04666">
        <ele>507.23</ele>
        <time>2019-01-10T08:36:42Z</time>
      </trkpt>
      <trkpt lat="44.78018" lon="5.04669">
        <ele>507.23</ele>
        <time>2019-01-10T08:36:54Z</time>
      </trkpt>
      <trkpt lat="44.78015" lon="5.04672">
        <ele>506.75</ele>
        <time>2019-01-10T08:37:01Z</time>
      </trkpt>
      <trkpt lat="44.78006" lon="5.04682">
        <ele>503.87</ele>
        <time>2019-01-10T08:37:07Z</time>
      </trkpt>
      <trkpt lat="44.78009" lon="5.04682">
        <ele>503.87</ele>
        <time>2019-01-10T08:37:11Z</time>
      </trkpt>
      <trkpt lat="44.78012" lon="5.04683">
        <ele>503.87</ele>
        <time>2019-01-10T08:37:15Z</time>
      </trkpt>
      <trkpt lat="44.78017" lon="5.04684">
        <ele>503.87</ele>
        <time>2019-01-10T08:37:22Z</time>
      </trkpt>
      <trkpt lat="44.78027" lon="5.04677">
        <ele>502.43</ele>
        <time>2019-01-10T08:37:30Z</time>
      </trkpt>
      <trkpt lat="44.78031" lon="5.04674">
        <ele>500.98</ele>
        <time>2019-01-10T08:37:34Z</time>
      </trkpt>
      <trkpt lat="44.78033" lon="5.04675">
        <ele>502.43</ele>
        <time>2019-01-10T08:37:44Z</time>
      </trkpt>
      <trkpt lat="44.78034" lon="5.04679">
        <ele>503.39</ele>
        <time>2019-01-10T08:37:51Z</time>
      </trkpt>
      <trkpt lat="44.78041" lon="5.04689">
        <ele>505.31</ele>
        <time>2019-01-10T08:38:03Z</time>
      </trkpt>
      <trkpt lat="44.78048" lon="5.04695">
        <ele>507.71</ele>
        <time>2019-01-10T08:38:14Z</time>
      </trkpt>
      <trkpt lat="44.78054" lon="5.04704">
        <ele>510.12</ele>
        <time>2019-01-10T08:38:24Z</time>
      </trkpt>
      <trkpt lat="44.78057" lon="5.04714">
        <ele>512.52</ele>
        <time>2019-01-10T08:38:35Z</time>
      </trkpt>
      <trkpt lat="44.78056" lon="5.04714">
        <ele>512.52</ele>
        <time>2019-01-10T08:38:48Z</time>
      </trkpt>
      <trkpt lat="44.78057" lon="5.04715">
        <ele>513</ele>
        <time>2019-01-10T08:39:01Z</time>
      </trkpt>
      <trkpt lat="44.78058" lon="5.04717">
        <ele>512.52</ele>
        <time>2019-01-10T08:39:06Z</time>
      </trkpt>
      <trkpt lat="44.78065" lon="5.04721">
        <ele>513.48</ele>
        <time>2019-01-10T08:39:17Z</time>
      </trkpt>
      <trkpt lat="44.78072" lon="5.04731">
        <ele>515.4</ele>
        <time>2019-01-10T08:39:27Z</time>
      </trkpt>
      <trkpt lat="44.78076" lon="5.04739">
        <ele>517.33</ele>
        <time>2019-01-10T08:39:40Z</time>
      </trkpt>
      <trkpt lat="44.78081" lon="5.04748">
        <ele>519.73</ele>
        <time>2019-01-10T08:39:52Z</time>
      </trkpt>
      <trkpt lat="44.78087" lon="5.04755">
        <ele>522.13</ele>
        <time>2019-01-10T08:40:04Z</time>
      </trkpt>
      <trkpt lat="44.78094" lon="5.04762">
        <ele>524.06</ele>
        <time>2019-01-10T08:40:15Z</time>
      </trkpt>
      <trkpt lat="44.78094" lon="5.04763">
        <ele>524.54</ele>
        <time>2019-01-10T08:40:16Z</time>
      </trkpt>
      <trkpt lat="44.78098" lon="5.04768">
        <ele>527.42</ele>
        <time>2019-01-10T08:40:28Z</time>
      </trkpt>
      <trkpt lat="44.781" lon="5.04774">
        <ele>527.9</ele>
        <time>2019-01-10T08:40:38Z</time>
      </trkpt>
      <trkpt lat="44.78101" lon="5.0478">
        <ele>529.82</ele>
        <time>2019-01-10T08:40:50Z</time>
      </trkpt>
      <trkpt lat="44.78102" lon="5.04783">
        <ele>530.3</ele>
        <time>2019-01-10T08:40:55Z</time>
      </trkpt>
      <trkpt lat="44.78104" lon="5.04788">
        <ele>531.75</ele>
        <time>2019-01-10T08:41:06Z</time>
      </trkpt>
      <trkpt lat="44.78107" lon="5.04795">
        <ele>532.71</ele>
        <time>2019-01-10T08:41:18Z</time>
      </trkpt>
      <trkpt lat="44.78112" lon="5.04802">
        <ele>536.07</ele>
        <time>2019-01-10T08:41:29Z</time>
      </trkpt>
      <trkpt lat="44.78114" lon="5.04805">
        <ele>536.07</ele>
        <time>2019-01-10T08:41:43Z</time>
      </trkpt>
      <trkpt lat="44.78115" lon="5.04806">
        <ele>537.51</ele>
        <time>2019-01-10T08:41:50Z</time>
      </trkpt>
      <trkpt lat="44.78116" lon="5.04807">
        <ele>536.07</ele>
        <time>2019-01-10T08:42:02Z</time>
      </trkpt>
      <trkpt lat="44.78123" lon="5.04814">
        <ele>536.55</ele>
        <time>2019-01-10T08:42:16Z</time>
      </trkpt>
      <trkpt lat="44.78123" lon="5.04815">
        <ele>536.55</ele>
        <time>2019-01-10T08:42:22Z</time>
      </trkpt>
      <trkpt lat="44.78127" lon="5.04818">
        <ele>536.55</ele>
        <time>2019-01-10T08:42:27Z</time>
      </trkpt>
      <trkpt lat="44.78133" lon="5.04826">
        <ele>537.51</ele>
        <time>2019-01-10T08:42:33Z</time>
      </trkpt>
      <trkpt lat="44.78141" lon="5.04833">
        <ele>538.48</ele>
        <time>2019-01-10T08:42:43Z</time>
      </trkpt>
      <trkpt lat="44.78143" lon="5.04835">
        <ele>537.99</ele>
        <time>2019-01-10T08:42:50Z</time>
      </trkpt>
      <trkpt lat="44.78154" lon="5.04846">
        <ele>540.88</ele>
        <time>2019-01-10T08:43:02Z</time>
      </trkpt>
      <trkpt lat="44.78163" lon="5.04856">
        <ele>542.8</ele>
        <time>2019-01-10T08:43:12Z</time>
      </trkpt>
      <trkpt lat="44.78167" lon="5.04867">
        <ele>545.2</ele>
        <time>2019-01-10T08:43:21Z</time>
      </trkpt>
      <trkpt lat="44.78168" lon="5.04867">
        <ele>545.2</ele>
        <time>2019-01-10T08:43:22Z</time>
      </trkpt>
      <trkpt lat="44.78173" lon="5.04872">
        <ele>547.13</ele>
        <time>2019-01-10T08:43:27Z</time>
      </trkpt>
      <trkpt lat="44.78176" lon="5.04874">
        <ele>547.61</ele>
        <time>2019-01-10T08:43:30Z</time>
      </trkpt>
      <trkpt lat="44.78185" lon="5.04884">
        <ele>549.05</ele>
        <time>2019-01-10T08:43:42Z</time>
      </trkpt>
      <trkpt lat="44.78199" lon="5.04897">
        <ele>551.93</ele>
        <time>2019-01-10T08:43:57Z</time>
      </trkpt>
      <trkpt lat="44.78208" lon="5.04908">
        <ele>553.86</ele>
        <time>2019-01-10T08:44:08Z</time>
      </trkpt>
      <trkpt lat="44.78212" lon="5.04913">
        <ele>554.82</ele>
        <time>2019-01-10T08:44:13Z</time>
      </trkpt>
      <trkpt lat="44.7822" lon="5.04924">
        <ele>556.74</ele>
        <time>2019-01-10T08:44:22Z</time>
      </trkpt>
      <trkpt lat="44.78222" lon="5.04926">
        <ele>557.22</ele>
        <time>2019-01-10T08:44:24Z</time>
      </trkpt>
      <trkpt lat="44.78227" lon="5.04935">
        <ele>558.18</ele>
        <time>2019-01-10T08:44:31Z</time>
      </trkpt>
      <trkpt lat="44.78229" lon="5.04939">
        <ele>558.66</ele>
        <time>2019-01-10T08:44:34Z</time>
      </trkpt>
      <trkpt lat="44.78236" lon="5.04959">
        <ele>560.11</ele>
        <time>2019-01-10T08:44:46Z</time>
      </trkpt>
      <trkpt lat="44.78237" lon="5.04964">
        <ele>561.07</ele>
        <time>2019-01-10T08:44:49Z</time>
      </trkpt>
      <trkpt lat="44.78238" lon="5.04966">
        <ele>561.07</ele>
        <time>2019-01-10T08:44:51Z</time>
      </trkpt>
      <trkpt lat="44.7824" lon="5.04969">
        <ele>561.55</ele>
        <time>2019-01-10T08:44:53Z</time>
      </trkpt>
      <trkpt lat="44.78246" lon="5.04989">
        <ele>562.99</ele>
        <time>2019-01-10T08:45:05Z</time>
      </trkpt>
      <trkpt lat="44.78248" lon="5.04993">
        <ele>563.95</ele>
        <time>2019-01-10T08:45:07Z</time>
      </trkpt>
      <trkpt lat="44.78251" lon="5.04999">
        <ele>564.43</ele>
        <time>2019-01-10T08:45:11Z</time>
      </trkpt>
      <trkpt lat="44.78251" lon="5.05002">
        <ele>565.39</ele>
        <time>2019-01-10T08:45:13Z</time>
      </trkpt>
      <trkpt lat="44.78255" lon="5.05007">
        <ele>565.87</ele>
        <time>2019-01-10T08:45:17Z</time>
      </trkpt>
      <trkpt lat="44.78263" lon="5.05015">
        <ele>568.28</ele>
        <time>2019-01-10T08:45:27Z</time>
      </trkpt>
      <trkpt lat="44.78267" lon="5.05019">
        <ele>569.72</ele>
        <time>2019-01-10T08:45:31Z</time>
      </trkpt>
      <trkpt lat="44.78268" lon="5.0502">
        <ele>569.72</ele>
        <time>2019-01-10T08:45:32Z</time>
      </trkpt>
      <trkpt lat="44.78267" lon="5.05023">
        <ele>569.72</ele>
        <time>2019-01-10T08:45:34Z</time>
      </trkpt>
      <trkpt lat="44.78257" lon="5.05024">
        <ele>570.2</ele>
        <time>2019-01-10T08:45:43Z</time>
      </trkpt>
      <trkpt lat="44.78247" lon="5.05023">
        <ele>571.16</ele>
        <time>2019-01-10T08:45:51Z</time>
      </trkpt>
      <trkpt lat="44.78239" lon="5.0502">
        <ele>573.56</ele>
        <time>2019-01-10T08:45:57Z</time>
      </trkpt>
      <trkpt lat="44.78231" lon="5.05018">
        <ele>576.45</ele>
        <time>2019-01-10T08:46:06Z</time>
      </trkpt>
      <trkpt lat="44.78231" lon="5.05019">
        <ele>575.01</ele>
        <time>2019-01-10T08:46:09Z</time>
      </trkpt>
      <trkpt lat="44.78233" lon="5.0502">
        <ele>574.53</ele>
        <time>2019-01-10T08:46:14Z</time>
      </trkpt>
      <trkpt lat="44.78251" lon="5.05024">
        <ele>571.16</ele>
        <time>2019-01-10T08:46:21Z</time>
      </trkpt>
      <trkpt lat="44.78268" lon="5.05026">
        <ele>569.72</ele>
        <time>2019-01-10T08:46:27Z</time>
      </trkpt>
      <trkpt lat="44.78271" lon="5.05036">
        <ele>569.72</ele>
        <time>2019-01-10T08:46:32Z</time>
      </trkpt>
      <trkpt lat="44.78263" lon="5.05052">
        <ele>565.87</ele>
        <time>2019-01-10T08:46:37Z</time>
      </trkpt>
      <trkpt lat="44.78256" lon="5.05059">
        <ele>563.47</ele>
        <time>2019-01-10T08:46:39Z</time>
      </trkpt>
      <trkpt lat="44.78252" lon="5.05063">
        <ele>562.03</ele>
        <time>2019-01-10T08:46:40Z</time>
      </trkpt>
      <trkpt lat="44.78249" lon="5.05066">
        <ele>561.07</ele>
        <time>2019-01-10T08:46:41Z</time>
      </trkpt>
      <trkpt lat="44.78244" lon="5.0507">
        <ele>560.11</ele>
        <time>2019-01-10T08:46:42Z</time>
      </trkpt>
      <trkpt lat="44.7824" lon="5.05073">
        <ele>558.66</ele>
        <time>2019-01-10T08:46:43Z</time>
      </trkpt>
      <trkpt lat="44.78232" lon="5.05078">
        <ele>556.26</ele>
        <time>2019-01-10T08:46:45Z</time>
      </trkpt>
      <trkpt lat="44.78229" lon="5.05082">
        <ele>554.34</ele>
        <time>2019-01-10T08:46:46Z</time>
      </trkpt>
      <trkpt lat="44.78226" lon="5.05086">
        <ele>552.9</ele>
        <time>2019-01-10T08:46:47Z</time>
      </trkpt>
      <trkpt lat="44.78223" lon="5.05089">
        <ele>551.93</ele>
        <time>2019-01-10T08:46:48Z</time>
      </trkpt>
      <trkpt lat="44.78221" lon="5.05093">
        <ele>550.49</ele>
        <time>2019-01-10T08:46:49Z</time>
      </trkpt>
      <trkpt lat="44.78219" lon="5.05098">
        <ele>549.53</ele>
        <time>2019-01-10T08:46:50Z</time>
      </trkpt>
      <trkpt lat="44.78213" lon="5.05108">
        <ele>548.09</ele>
        <time>2019-01-10T08:46:52Z</time>
      </trkpt>
      <trkpt lat="44.78211" lon="5.05113">
        <ele>547.13</ele>
        <time>2019-01-10T08:46:53Z</time>
      </trkpt>
      <trkpt lat="44.78208" lon="5.05119">
        <ele>546.17</ele>
        <time>2019-01-10T08:46:54Z</time>
      </trkpt>
      <trkpt lat="44.78204" lon="5.05124">
        <ele>544.72</ele>
        <time>2019-01-10T08:46:55Z</time>
      </trkpt>
      <trkpt lat="44.78199" lon="5.05128">
        <ele>543.76</ele>
        <time>2019-01-10T08:46:56Z</time>
      </trkpt>
      <trkpt lat="44.78194" lon="5.05131">
        <ele>542.8</ele>
        <time>2019-01-10T08:46:57Z</time>
      </trkpt>
      <trkpt lat="44.7819" lon="5.05134">
        <ele>541.36</ele>
        <time>2019-01-10T08:46:58Z</time>
      </trkpt>
      <trkpt lat="44.78186" lon="5.05138">
        <ele>540.88</ele>
        <time>2019-01-10T08:46:59Z</time>
      </trkpt>
      <trkpt lat="44.78183" lon="5.05142">
        <ele>539.92</ele>
        <time>2019-01-10T08:47:00Z</time>
      </trkpt>
      <trkpt lat="44.78181" lon="5.05146">
        <ele>538.48</ele>
        <time>2019-01-10T08:47:01Z</time>
      </trkpt>
      <trkpt lat="44.78178" lon="5.05151">
        <ele>537.51</ele>
        <time>2019-01-10T08:47:02Z</time>
      </trkpt>
      <trkpt lat="44.78165" lon="5.05165">
        <ele>533.67</ele>
        <time>2019-01-10T08:47:06Z</time>
      </trkpt>
      <trkpt lat="44.78161" lon="5.05167">
        <ele>532.71</ele>
        <time>2019-01-10T08:47:07Z</time>
      </trkpt>
      <trkpt lat="44.78145" lon="5.05174">
        <ele>529.34</ele>
        <time>2019-01-10T08:47:10Z</time>
      </trkpt>
      <trkpt lat="44.78141" lon="5.05178">
        <ele>528.86</ele>
        <time>2019-01-10T08:47:11Z</time>
      </trkpt>
      <trkpt lat="44.78137" lon="5.05183">
        <ele>528.38</ele>
        <time>2019-01-10T08:47:12Z</time>
      </trkpt>
      <trkpt lat="44.78136" lon="5.05188">
        <ele>528.38</ele>
        <time>2019-01-10T08:47:13Z</time>
      </trkpt>
      <trkpt lat="44.78135" lon="5.05192">
        <ele>528.38</ele>
        <time>2019-01-10T08:47:14Z</time>
      </trkpt>
      <trkpt lat="44.78135" lon="5.05196">
        <ele>527.9</ele>
        <time>2019-01-10T08:47:22Z</time>
      </trkpt>
      <trkpt lat="44.78134" lon="5.05198">
        <ele>527.42</ele>
        <time>2019-01-10T08:47:23Z</time>
      </trkpt>
      <trkpt lat="44.78132" lon="5.05202">
        <ele>527.42</ele>
        <time>2019-01-10T08:47:24Z</time>
      </trkpt>
      <trkpt lat="44.78131" lon="5.05207">
        <ele>526.94</ele>
        <time>2019-01-10T08:47:25Z</time>
      </trkpt>
      <trkpt lat="44.78129" lon="5.05212">
        <ele>526.94</ele>
        <time>2019-01-10T08:47:26Z</time>
      </trkpt>
      <trkpt lat="44.78127" lon="5.05215">
        <ele>526.46</ele>
        <time>2019-01-10T08:47:27Z</time>
      </trkpt>
      <trkpt lat="44.78123" lon="5.05217">
        <ele>525.98</ele>
        <time>2019-01-10T08:47:28Z</time>
      </trkpt>
      <trkpt lat="44.78119" lon="5.05219">
        <ele>525.02</ele>
        <time>2019-01-10T08:47:29Z</time>
      </trkpt>
      <trkpt lat="44.78114" lon="5.0522">
        <ele>524.06</ele>
        <time>2019-01-10T08:47:30Z</time>
      </trkpt>
      <trkpt lat="44.78109" lon="5.05223">
        <ele>523.58</ele>
        <time>2019-01-10T08:47:31Z</time>
      </trkpt>
      <trkpt lat="44.78105" lon="5.05226">
        <ele>523.09</ele>
        <time>2019-01-10T08:47:32Z</time>
      </trkpt>
      <trkpt lat="44.78101" lon="5.0523">
        <ele>520.69</ele>
        <time>2019-01-10T08:47:33Z</time>
      </trkpt>
      <trkpt lat="44.78096" lon="5.05234">
        <ele>519.25</ele>
        <time>2019-01-10T08:47:34Z</time>
      </trkpt>
      <trkpt lat="44.78092" lon="5.05239">
        <ele>517.81</ele>
        <time>2019-01-10T08:47:35Z</time>
      </trkpt>
      <trkpt lat="44.78086" lon="5.05245">
        <ele>515.88</ele>
        <time>2019-01-10T08:47:36Z</time>
      </trkpt>
      <trkpt lat="44.78081" lon="5.05252">
        <ele>515.4</ele>
        <time>2019-01-10T08:47:37Z</time>
      </trkpt>
      <trkpt lat="44.78076" lon="5.05257">
        <ele>514.44</ele>
        <time>2019-01-10T08:47:38Z</time>
      </trkpt>
      <trkpt lat="44.78071" lon="5.05262">
        <ele>513.96</ele>
        <time>2019-01-10T08:47:39Z</time>
      </trkpt>
      <trkpt lat="44.78054" lon="5.05282">
        <ele>511.08</ele>
        <time>2019-01-10T08:47:43Z</time>
      </trkpt>
      <trkpt lat="44.78047" lon="5.05288">
        <ele>510.12</ele>
        <time>2019-01-10T08:47:45Z</time>
      </trkpt>
      <trkpt lat="44.78044" lon="5.05293">
        <ele>509.64</ele>
        <time>2019-01-10T08:47:46Z</time>
      </trkpt>
      <trkpt lat="44.78034" lon="5.05316">
        <ele>505.31</ele>
        <time>2019-01-10T08:47:49Z</time>
      </trkpt>
      <trkpt lat="44.7803" lon="5.05323">
        <ele>503.87</ele>
        <time>2019-01-10T08:47:50Z</time>
      </trkpt>
      <trkpt lat="44.78027" lon="5.05331">
        <ele>502.91</ele>
        <time>2019-01-10T08:47:51Z</time>
      </trkpt>
      <trkpt lat="44.78024" lon="5.05336">
        <ele>501.95</ele>
        <time>2019-01-10T08:47:52Z</time>
      </trkpt>
      <trkpt lat="44.78022" lon="5.05341">
        <ele>501.95</ele>
        <time>2019-01-10T08:47:53Z</time>
      </trkpt>
      <trkpt lat="44.78021" lon="5.05344">
        <ele>501.46</ele>
        <time>2019-01-10T08:47:54Z</time>
      </trkpt>
      <trkpt lat="44.78021" lon="5.05346">
        <ele>501.46</ele>
        <time>2019-01-10T08:47:55Z</time>
      </trkpt>
      <trkpt lat="44.78021" lon="5.05348">
        <ele>501.46</ele>
        <time>2019-01-10T08:47:56Z</time>
      </trkpt>
      <trkpt lat="44.78021" lon="5.05351">
        <ele>500.98</ele>
        <time>2019-01-10T08:47:57Z</time>
      </trkpt>
      <trkpt lat="44.78021" lon="5.05361">
        <ele>502.43</ele>
        <time>2019-01-10T08:48:00Z</time>
      </trkpt>
      <trkpt lat="44.7802" lon="5.05365">
        <ele>500.98</ele>
        <time>2019-01-10T08:48:01Z</time>
      </trkpt>
      <trkpt lat="44.78018" lon="5.05367">
        <ele>500.5</ele>
        <time>2019-01-10T08:48:02Z</time>
      </trkpt>
      <trkpt lat="44.78018" lon="5.05368">
        <ele>500.5</ele>
        <time>2019-01-10T08:48:09Z</time>
      </trkpt>
      <trkpt lat="44.78019" lon="5.05363">
        <ele>501.46</ele>
        <time>2019-01-10T08:48:12Z</time>
      </trkpt>
      <trkpt lat="44.7802" lon="5.05361">
        <ele>500.98</ele>
        <time>2019-01-10T08:48:14Z</time>
      </trkpt>
      <trkpt lat="44.78021" lon="5.05359">
        <ele>500.5</ele>
        <time>2019-01-10T08:48:15Z</time>
      </trkpt>
      <trkpt lat="44.78022" lon="5.05358">
        <ele>500.02</ele>
        <time>2019-01-10T08:48:16Z</time>
      </trkpt>
      <trkpt lat="44.78023" lon="5.05357">
        <ele>500.5</ele>
        <time>2019-01-10T08:48:17Z</time>
      </trkpt>
      <trkpt lat="44.78024" lon="5.05356">
        <ele>500.02</ele>
        <time>2019-01-10T08:48:18Z</time>
      </trkpt>
      <trkpt lat="44.78025" lon="5.05355">
        <ele>499.54</ele>
        <time>2019-01-10T08:48:19Z</time>
      </trkpt>
      <trkpt lat="44.78025" lon="5.05354">
        <ele>499.06</ele>
        <time>2019-01-10T08:48:20Z</time>
      </trkpt>
      <trkpt lat="44.78026" lon="5.05353">
        <ele>499.54</ele>
        <time>2019-01-10T08:48:21Z</time>
      </trkpt>
      <trkpt lat="44.78027" lon="5.05352">
        <ele>500.02</ele>
        <time>2019-01-10T08:48:22Z</time>
      </trkpt>
      <trkpt lat="44.78029" lon="5.05351">
        <ele>500.02</ele>
        <time>2019-01-10T08:48:23Z</time>
      </trkpt>
      <trkpt lat="44.78031" lon="5.0535">
        <ele>499.06</ele>
        <time>2019-01-10T08:48:31Z</time>
      </trkpt>
      <trkpt lat="44.78033" lon="5.0535">
        <ele>499.54</ele>
        <time>2019-01-10T08:48:32Z</time>
      </trkpt>
      <trkpt lat="44.78051" lon="5.05349">
        <ele>496.18</ele>
        <time>2019-01-10T08:48:38Z</time>
      </trkpt>
      <trkpt lat="44.78055" lon="5.0535">
        <ele>495.22</ele>
        <time>2019-01-10T08:48:39Z</time>
      </trkpt>
      <trkpt lat="44.78063" lon="5.05354">
        <ele>493.29</ele>
        <time>2019-01-10T08:48:41Z</time>
      </trkpt>
      <trkpt lat="44.78073" lon="5.05356">
        <ele>491.37</ele>
        <time>2019-01-10T08:48:43Z</time>
      </trkpt>
      <trkpt lat="44.78079" lon="5.05357">
        <ele>489.93</ele>
        <time>2019-01-10T08:48:44Z</time>
      </trkpt>
      <trkpt lat="44.78085" lon="5.05356">
        <ele>489.93</ele>
        <time>2019-01-10T08:48:45Z</time>
      </trkpt>
      <trkpt lat="44.78104" lon="5.05353">
        <ele>488.01</ele>
        <time>2019-01-10T08:48:49Z</time>
      </trkpt>
      <trkpt lat="44.78108" lon="5.05351">
        <ele>487.05</ele>
        <time>2019-01-10T08:48:50Z</time>
      </trkpt>
      <trkpt lat="44.78129" lon="5.05339">
        <ele>485.12</ele>
        <time>2019-01-10T08:48:55Z</time>
      </trkpt>
      <trkpt lat="44.78134" lon="5.05338">
        <ele>484.64</ele>
        <time>2019-01-10T08:48:56Z</time>
      </trkpt>
      <trkpt lat="44.78138" lon="5.05338">
        <ele>484.16</ele>
        <time>2019-01-10T08:48:57Z</time>
      </trkpt>
      <trkpt lat="44.78161" lon="5.05337">
        <ele>481.28</ele>
        <time>2019-01-10T08:49:03Z</time>
      </trkpt>
      <trkpt lat="44.78165" lon="5.05336">
        <ele>481.28</ele>
        <time>2019-01-10T08:49:04Z</time>
      </trkpt>
      <trkpt lat="44.78198" lon="5.05333">
        <ele>479.84</ele>
        <time>2019-01-10T08:49:13Z</time>
      </trkpt>
      <trkpt lat="44.78202" lon="5.05332">
        <ele>478.87</ele>
        <time>2019-01-10T08:49:14Z</time>
      </trkpt>
      <trkpt lat="44.78207" lon="5.05331">
        <ele>478.39</ele>
        <time>2019-01-10T08:49:15Z</time>
      </trkpt>
      <trkpt lat="44.7821" lon="5.0533">
        <ele>478.87</ele>
        <time>2019-01-10T08:49:16Z</time>
      </trkpt>
      <trkpt lat="44.78214" lon="5.05329">
        <ele>479.84</ele>
        <time>2019-01-10T08:49:17Z</time>
      </trkpt>
      <trkpt lat="44.78217" lon="5.05329">
        <ele>480.32</ele>
        <time>2019-01-10T08:49:18Z</time>
      </trkpt>
      <trkpt lat="44.78234" lon="5.05333">
        <ele>477.91</ele>
        <time>2019-01-10T08:49:23Z</time>
      </trkpt>
      <trkpt lat="44.78254" lon="5.05337">
        <ele>475.51</ele>
        <time>2019-01-10T08:49:27Z</time>
      </trkpt>
      <trkpt lat="44.7826" lon="5.05337">
        <ele>475.03</ele>
        <time>2019-01-10T08:49:28Z</time>
      </trkpt>
      <trkpt lat="44.78267" lon="5.05338">
        <ele>474.55</ele>
        <time>2019-01-10T08:49:29Z</time>
      </trkpt>
      <trkpt lat="44.78297" lon="5.05345">
        <ele>473.11</ele>
        <time>2019-01-10T08:49:35Z</time>
      </trkpt>
      <trkpt lat="44.78301" lon="5.05347">
        <ele>472.14</ele>
        <time>2019-01-10T08:49:36Z</time>
      </trkpt>
      <trkpt lat="44.78314" lon="5.05354">
        <ele>469.26</ele>
        <time>2019-01-10T08:49:40Z</time>
      </trkpt>
      <trkpt lat="44.78323" lon="5.05359">
        <ele>465.9</ele>
        <time>2019-01-10T08:49:43Z</time>
      </trkpt>
      <trkpt lat="44.78327" lon="5.05362">
        <ele>464.93</ele>
        <time>2019-01-10T08:49:44Z</time>
      </trkpt>
      <trkpt lat="44.78331" lon="5.05364">
        <ele>464.45</ele>
        <time>2019-01-10T08:49:45Z</time>
      </trkpt>
      <trkpt lat="44.7835" lon="5.05381">
        <ele>461.57</ele>
        <time>2019-01-10T08:49:52Z</time>
      </trkpt>
      <trkpt lat="44.78353" lon="5.05383">
        <ele>461.09</ele>
        <time>2019-01-10T08:49:53Z</time>
      </trkpt>
      <trkpt lat="44.78378" lon="5.05403">
        <ele>458.21</ele>
        <time>2019-01-10T08:50:03Z</time>
      </trkpt>
      <trkpt lat="44.7838" lon="5.05405">
        <ele>457.72</ele>
        <time>2019-01-10T08:50:04Z</time>
      </trkpt>
      <trkpt lat="44.78383" lon="5.05407">
        <ele>456.76</ele>
        <time>2019-01-10T08:50:05Z</time>
      </trkpt>
      <trkpt lat="44.78386" lon="5.05411">
        <ele>456.28</ele>
        <time>2019-01-10T08:50:06Z</time>
      </trkpt>
      <trkpt lat="44.78388" lon="5.05413">
        <ele>455.8</ele>
        <time>2019-01-10T08:50:07Z</time>
      </trkpt>
      <trkpt lat="44.78407" lon="5.05421">
        <ele>453.4</ele>
        <time>2019-01-10T08:50:13Z</time>
      </trkpt>
      <trkpt lat="44.7842" lon="5.05426">
        <ele>451.48</ele>
        <time>2019-01-10T08:50:16Z</time>
      </trkpt>
      <trkpt lat="44.78438" lon="5.05429">
        <ele>448.11</ele>
        <time>2019-01-10T08:50:22Z</time>
      </trkpt>
      <trkpt lat="44.78446" lon="5.05426">
        <ele>446.67</ele>
        <time>2019-01-10T08:50:25Z</time>
      </trkpt>
      <trkpt lat="44.78459" lon="5.0542">
        <ele>444.27</ele>
        <time>2019-01-10T08:50:31Z</time>
      </trkpt>
      <trkpt lat="44.78461" lon="5.05419">
        <ele>443.79</ele>
        <time>2019-01-10T08:50:32Z</time>
      </trkpt>
      <trkpt lat="44.78463" lon="5.05419">
        <ele>443.79</ele>
        <time>2019-01-10T08:50:33Z</time>
      </trkpt>
      <trkpt lat="44.78483" lon="5.0541">
        <ele>441.38</ele>
        <time>2019-01-10T08:50:38Z</time>
      </trkpt>
      <trkpt lat="44.78505" lon="5.05397">
        <ele>438.5</ele>
        <time>2019-01-10T08:50:42Z</time>
      </trkpt>
      <trkpt lat="44.78526" lon="5.05387">
        <ele>438.02</ele>
        <time>2019-01-10T08:50:47Z</time>
      </trkpt>
      <trkpt lat="44.78531" lon="5.05385">
        <ele>437.54</ele>
        <time>2019-01-10T08:50:48Z</time>
      </trkpt>
      <trkpt lat="44.78535" lon="5.05382">
        <ele>437.54</ele>
        <time>2019-01-10T08:50:49Z</time>
      </trkpt>
      <trkpt lat="44.78539" lon="5.05377">
        <ele>437.06</ele>
        <time>2019-01-10T08:50:50Z</time>
      </trkpt>
      <trkpt lat="44.78542" lon="5.05374">
        <ele>437.06</ele>
        <time>2019-01-10T08:50:51Z</time>
      </trkpt>
      <trkpt lat="44.78545" lon="5.05372">
        <ele>437.06</ele>
        <time>2019-01-10T08:50:52Z</time>
      </trkpt>
      <trkpt lat="44.78546" lon="5.0537">
        <ele>438.02</ele>
        <time>2019-01-10T08:50:53Z</time>
      </trkpt>
      <trkpt lat="44.7855" lon="5.05367">
        <ele>439.46</ele>
        <time>2019-01-10T08:50:55Z</time>
      </trkpt>
      <trkpt lat="44.78553" lon="5.05366">
        <ele>439.46</ele>
        <time>2019-01-10T08:50:56Z</time>
      </trkpt>
      <trkpt lat="44.78585" lon="5.05347">
        <ele>436.58</ele>
        <time>2019-01-10T08:51:06Z</time>
      </trkpt>
      <trkpt lat="44.78587" lon="5.05344">
        <ele>435.13</ele>
        <time>2019-01-10T08:51:07Z</time>
      </trkpt>
      <trkpt lat="44.7859" lon="5.05343">
        <ele>435.13</ele>
        <time>2019-01-10T08:51:08Z</time>
      </trkpt>
      <trkpt lat="44.78594" lon="5.05343">
        <ele>435.13</ele>
        <time>2019-01-10T08:51:09Z</time>
      </trkpt>
      <trkpt lat="44.78598" lon="5.05345">
        <ele>435.13</ele>
        <time>2019-01-10T08:51:10Z</time>
      </trkpt>
      <trkpt lat="44.78601" lon="5.05348">
        <ele>434.65</ele>
        <time>2019-01-10T08:51:11Z</time>
      </trkpt>
      <trkpt lat="44.78618" lon="5.05357">
        <ele>432.25</ele>
        <time>2019-01-10T08:51:17Z</time>
      </trkpt>
      <trkpt lat="44.78619" lon="5.05356">
        <ele>431.29</ele>
        <time>2019-01-10T08:51:18Z</time>
      </trkpt>
      <trkpt lat="44.78622" lon="5.05355">
        <ele>430.33</ele>
        <time>2019-01-10T08:51:19Z</time>
      </trkpt>
      <trkpt lat="44.78624" lon="5.05354">
        <ele>429.85</ele>
        <time>2019-01-10T08:51:20Z</time>
      </trkpt>
      <trkpt lat="44.78627" lon="5.05352">
        <ele>429.37</ele>
        <time>2019-01-10T08:51:21Z</time>
      </trkpt>
      <trkpt lat="44.78629" lon="5.05351">
        <ele>428.89</ele>
        <time>2019-01-10T08:51:22Z</time>
      </trkpt>
      <trkpt lat="44.78632" lon="5.05348">
        <ele>427.92</ele>
        <time>2019-01-10T08:51:23Z</time>
      </trkpt>
      <trkpt lat="44.78644" lon="5.05342">
        <ele>425.52</ele>
        <time>2019-01-10T08:51:26Z</time>
      </trkpt>
      <trkpt lat="44.78647" lon="5.0534">
        <ele>425.04</ele>
        <time>2019-01-10T08:51:27Z</time>
      </trkpt>
      <trkpt lat="44.78661" lon="5.05332">
        <ele>422.16</ele>
        <time>2019-01-10T08:51:31Z</time>
      </trkpt>
      <trkpt lat="44.7867" lon="5.05326">
        <ele>420.71</ele>
        <time>2019-01-10T08:51:33Z</time>
      </trkpt>
      <trkpt lat="44.78675" lon="5.05323">
        <ele>420.23</ele>
        <time>2019-01-10T08:51:34Z</time>
      </trkpt>
      <trkpt lat="44.78689" lon="5.05306">
        <ele>417.35</ele>
        <time>2019-01-10T08:51:38Z</time>
      </trkpt>
      <trkpt lat="44.78702" lon="5.05297">
        <ele>414.47</ele>
        <time>2019-01-10T08:51:41Z</time>
      </trkpt>
      <trkpt lat="44.78707" lon="5.05295">
        <ele>413.5</ele>
        <time>2019-01-10T08:51:42Z</time>
      </trkpt>
      <trkpt lat="44.78716" lon="5.05293">
        <ele>412.54</ele>
        <time>2019-01-10T08:51:44Z</time>
      </trkpt>
      <trkpt lat="44.78732" lon="5.05297">
        <ele>413.02</ele>
        <time>2019-01-10T08:51:52Z</time>
      </trkpt>
      <trkpt lat="44.78733" lon="5.05296">
        <ele>413.98</ele>
        <time>2019-01-10T08:51:59Z</time>
      </trkpt>
      <trkpt lat="44.7874" lon="5.05292">
        <ele>413.98</ele>
        <time>2019-01-10T08:52:04Z</time>
      </trkpt>
      <trkpt lat="44.78741" lon="5.05291">
        <ele>413.98</ele>
        <time>2019-01-10T08:52:05Z</time>
      </trkpt>
      <trkpt lat="44.78743" lon="5.0529">
        <ele>413.98</ele>
        <time>2019-01-10T08:52:06Z</time>
      </trkpt>
      <trkpt lat="44.78746" lon="5.0529">
        <ele>413.98</ele>
        <time>2019-01-10T08:52:09Z</time>
      </trkpt>
      <trkpt lat="44.78748" lon="5.05289">
        <ele>413.5</ele>
        <time>2019-01-10T08:52:10Z</time>
      </trkpt>
      <trkpt lat="44.78753" lon="5.05286">
        <ele>413.98</ele>
        <time>2019-01-10T08:52:14Z</time>
      </trkpt>
      <trkpt lat="44.78754" lon="5.05285">
        <ele>414.95</ele>
        <time>2019-01-10T08:52:17Z</time>
      </trkpt>
      <trkpt lat="44.78753" lon="5.05285">
        <ele>414.95</ele>
        <time>2019-01-10T08:52:18Z</time>
      </trkpt>
      <trkpt lat="44.78751" lon="5.05286">
        <ele>414.95</ele>
        <time>2019-01-10T08:52:19Z</time>
      </trkpt>
      <trkpt lat="44.7875" lon="5.05287">
        <ele>414.95</ele>
        <time>2019-01-10T08:52:20Z</time>
      </trkpt>
      <trkpt lat="44.78747" lon="5.05296">
        <ele>414.95</ele>
        <time>2019-01-10T08:52:26Z</time>
      </trkpt>
      <trkpt lat="44.78747" lon="5.05301">
        <ele>415.43</ele>
        <time>2019-01-10T08:52:29Z</time>
      </trkpt>
      <trkpt lat="44.78747" lon="5.0531">
        <ele>416.39</ele>
        <time>2019-01-10T08:52:34Z</time>
      </trkpt>
      <trkpt lat="44.7875" lon="5.05317">
        <ele>417.83</ele>
        <time>2019-01-10T08:52:39Z</time>
      </trkpt>
      <trkpt lat="44.78751" lon="5.05326">
        <ele>419.27</ele>
        <time>2019-01-10T08:52:45Z</time>
      </trkpt>
      <trkpt lat="44.78752" lon="5.05333">
        <ele>420.71</ele>
        <time>2019-01-10T08:52:49Z</time>
      </trkpt>
      <trkpt lat="44.78754" lon="5.05339">
        <ele>421.68</ele>
        <time>2019-01-10T08:52:52Z</time>
      </trkpt>
      <trkpt lat="44.78756" lon="5.05352">
        <ele>425.04</ele>
        <time>2019-01-10T08:53:00Z</time>
      </trkpt>
      <trkpt lat="44.78758" lon="5.05364">
        <ele>425.52</ele>
        <time>2019-01-10T08:53:07Z</time>
      </trkpt>
      <trkpt lat="44.7876" lon="5.0537">
        <ele>426.48</ele>
        <time>2019-01-10T08:53:11Z</time>
      </trkpt>
      <trkpt lat="44.78763" lon="5.05381">
        <ele>427.44</ele>
        <time>2019-01-10T08:53:17Z</time>
      </trkpt>
      <trkpt lat="44.78771" lon="5.05399">
        <ele>429.85</ele>
        <time>2019-01-10T08:53:29Z</time>
      </trkpt>
      <trkpt lat="44.78774" lon="5.05404">
        <ele>430.81</ele>
        <time>2019-01-10T08:53:33Z</time>
      </trkpt>
      <trkpt lat="44.78778" lon="5.05411">
        <ele>432.25</ele>
        <time>2019-01-10T08:53:38Z</time>
      </trkpt>
      <trkpt lat="44.78781" lon="5.05423">
        <ele>433.69</ele>
        <time>2019-01-10T08:53:46Z</time>
      </trkpt>
      <trkpt lat="44.78784" lon="5.05442">
        <ele>435.61</ele>
        <time>2019-01-10T08:53:57Z</time>
      </trkpt>
      <trkpt lat="44.78784" lon="5.05459">
        <ele>437.06</ele>
        <time>2019-01-10T08:54:06Z</time>
      </trkpt>
      <trkpt lat="44.78784" lon="5.05477">
        <ele>437.54</ele>
        <time>2019-01-10T08:54:14Z</time>
      </trkpt>
      <trkpt lat="44.78787" lon="5.05503">
        <ele>438.98</ele>
        <time>2019-01-10T08:54:28Z</time>
      </trkpt>
      <trkpt lat="44.78788" lon="5.05505">
        <ele>439.46</ele>
        <time>2019-01-10T08:54:30Z</time>
      </trkpt>
      <trkpt lat="44.78791" lon="5.05514">
        <ele>440.42</ele>
        <time>2019-01-10T08:54:36Z</time>
      </trkpt>
      <trkpt lat="44.78796" lon="5.05533">
        <ele>442.82</ele>
        <time>2019-01-10T08:54:46Z</time>
      </trkpt>
      <trkpt lat="44.78798" lon="5.05542">
        <ele>443.79</ele>
        <time>2019-01-10T08:54:51Z</time>
      </trkpt>
      <trkpt lat="44.78808" lon="5.05572">
        <ele>445.23</ele>
        <time>2019-01-10T08:55:05Z</time>
      </trkpt>
      <trkpt lat="44.78819" lon="5.05597">
        <ele>445.71</ele>
        <time>2019-01-10T08:55:17Z</time>
      </trkpt>
      <trkpt lat="44.78823" lon="5.05605">
        <ele>444.75</ele>
        <time>2019-01-10T08:55:20Z</time>
      </trkpt>
      <trkpt lat="44.78826" lon="5.05616">
        <ele>444.75</ele>
        <time>2019-01-10T08:55:25Z</time>
      </trkpt>
      <trkpt lat="44.78831" lon="5.05623">
        <ele>444.75</ele>
        <time>2019-01-10T08:55:29Z</time>
      </trkpt>
      <trkpt lat="44.78837" lon="5.05629">
        <ele>445.71</ele>
        <time>2019-01-10T08:55:34Z</time>
      </trkpt>
      <trkpt lat="44.7885" lon="5.05645">
        <ele>447.63</ele>
        <time>2019-01-10T08:55:45Z</time>
      </trkpt>
      <trkpt lat="44.78854" lon="5.05652">
        <ele>449.07</ele>
        <time>2019-01-10T08:55:50Z</time>
      </trkpt>
      <trkpt lat="44.78863" lon="5.05665">
        <ele>451</ele>
        <time>2019-01-10T08:55:59Z</time>
      </trkpt>
      <trkpt lat="44.78864" lon="5.05667">
        <ele>451.48</ele>
        <time>2019-01-10T08:56:08Z</time>
      </trkpt>
      <trkpt lat="44.78862" lon="5.05669">
        <ele>451.48</ele>
        <time>2019-01-10T08:56:10Z</time>
      </trkpt>
      <trkpt lat="44.78859" lon="5.05672">
        <ele>451.48</ele>
        <time>2019-01-10T08:56:15Z</time>
      </trkpt>
      <trkpt lat="44.7886" lon="5.05701">
        <ele>450.52</ele>
        <time>2019-01-10T08:56:29Z</time>
      </trkpt>
      <trkpt lat="44.78862" lon="5.0571">
        <ele>451.96</ele>
        <time>2019-01-10T08:56:39Z</time>
      </trkpt>
      <trkpt lat="44.78863" lon="5.05711">
        <ele>451.96</ele>
        <time>2019-01-10T08:56:40Z</time>
      </trkpt>
      <trkpt lat="44.78866" lon="5.05718">
        <ele>453.4</ele>
        <time>2019-01-10T08:56:45Z</time>
      </trkpt>
      <trkpt lat="44.7887" lon="5.05727">
        <ele>455.8</ele>
        <time>2019-01-10T08:56:53Z</time>
      </trkpt>
      <trkpt lat="44.78875" lon="5.05731">
        <ele>457.72</ele>
        <time>2019-01-10T08:57:03Z</time>
      </trkpt>
      <trkpt lat="44.78885" lon="5.0573">
        <ele>461.09</ele>
        <time>2019-01-10T08:57:15Z</time>
      </trkpt>
      <trkpt lat="44.78896" lon="5.05733">
        <ele>463.49</ele>
        <time>2019-01-10T08:57:28Z</time>
      </trkpt>
      <trkpt lat="44.7891" lon="5.0574">
        <ele>463.97</ele>
        <time>2019-01-10T08:57:42Z</time>
      </trkpt>
      <trkpt lat="44.7891" lon="5.0574">
        <ele>464.45</ele>
        <time>2019-01-10T08:58:00Z</time>
      </trkpt>
      <trkpt lat="44.7891" lon="5.0574">
        <ele>464.93</ele>
        <time>2019-01-10T08:58:35Z</time>
      </trkpt>
      <trkpt lat="44.78911" lon="5.05742">
        <ele>464.93</ele>
        <time>2019-01-10T08:58:53Z</time>
      </trkpt>
      <trkpt lat="44.78917" lon="5.05743">
        <ele>465.9</ele>
        <time>2019-01-10T08:59:04Z</time>
      </trkpt>
      <trkpt lat="44.78917" lon="5.05743">
        <ele>466.38</ele>
        <time>2019-01-10T08:59:08Z</time>
      </trkpt>
      <trkpt lat="44.78929" lon="5.05749">
        <ele>466.86</ele>
        <time>2019-01-10T08:59:16Z</time>
      </trkpt>
      <trkpt lat="44.7894" lon="5.05772">
        <ele>467.82</ele>
        <time>2019-01-10T08:59:30Z</time>
      </trkpt>
      <trkpt lat="44.78944" lon="5.0578">
        <ele>469.74</ele>
        <time>2019-01-10T08:59:42Z</time>
      </trkpt>
      <trkpt lat="44.78946" lon="5.05783">
        <ele>470.22</ele>
        <time>2019-01-10T08:59:45Z</time>
      </trkpt>
      <trkpt lat="44.78947" lon="5.05786">
        <ele>470.7</ele>
        <time>2019-01-10T08:59:55Z</time>
      </trkpt>
      <trkpt lat="44.78948" lon="5.05787">
        <ele>471.18</ele>
        <time>2019-01-10T09:00:04Z</time>
      </trkpt>
      <trkpt lat="44.78961" lon="5.058">
        <ele>473.11</ele>
        <time>2019-01-10T09:00:16Z</time>
      </trkpt>
      <trkpt lat="44.78974" lon="5.05817">
        <ele>475.51</ele>
        <time>2019-01-10T09:00:29Z</time>
      </trkpt>
      <trkpt lat="44.78977" lon="5.0582">
        <ele>476.47</ele>
        <time>2019-01-10T09:00:32Z</time>
      </trkpt>
      <trkpt lat="44.78983" lon="5.05824">
        <ele>477.91</ele>
        <time>2019-01-10T09:00:38Z</time>
      </trkpt>
      <trkpt lat="44.78989" lon="5.05829">
        <ele>478.87</ele>
        <time>2019-01-10T09:00:43Z</time>
      </trkpt>
      <trkpt lat="44.78993" lon="5.05836">
        <ele>479.84</ele>
        <time>2019-01-10T09:00:48Z</time>
      </trkpt>
      <trkpt lat="44.78999" lon="5.05853">
        <ele>482.72</ele>
        <time>2019-01-10T09:01:01Z</time>
      </trkpt>
      <trkpt lat="44.79001" lon="5.05857">
        <ele>483.2</ele>
        <time>2019-01-10T09:01:09Z</time>
      </trkpt>
      <trkpt lat="44.79003" lon="5.05863">
        <ele>484.16</ele>
        <time>2019-01-10T09:01:14Z</time>
      </trkpt>
      <trkpt lat="44.79004" lon="5.05866">
        <ele>484.64</ele>
        <time>2019-01-10T09:01:16Z</time>
      </trkpt>
      <trkpt lat="44.79006" lon="5.05872">
        <ele>489.93</ele>
        <time>2019-01-10T09:01:31Z</time>
      </trkpt>
      <trkpt lat="44.79006" lon="5.05872">
        <ele>484.16</ele>
        <time>2019-01-10T09:01:32Z</time>
      </trkpt>
      <trkpt lat="44.79006" lon="5.05881">
        <ele>486.56</ele>
        <time>2019-01-10T09:01:47Z</time>
      </trkpt>
      <trkpt lat="44.79007" lon="5.05883">
        <ele>486.56</ele>
        <time>2019-01-10T09:01:48Z</time>
      </trkpt>
      <trkpt lat="44.7901" lon="5.05901">
        <ele>489.93</ele>
        <time>2019-01-10T09:02:00Z</time>
      </trkpt>
      <trkpt lat="44.7901" lon="5.05902">
        <ele>490.41</ele>
        <time>2019-01-10T09:02:01Z</time>
      </trkpt>
      <trkpt lat="44.79011" lon="5.05905">
        <ele>490.89</ele>
        <time>2019-01-10T09:02:03Z</time>
      </trkpt>
      <trkpt lat="44.79011" lon="5.05908">
        <ele>491.37</ele>
        <time>2019-01-10T09:02:05Z</time>
      </trkpt>
      <trkpt lat="44.79018" lon="5.0592">
        <ele>494.74</ele>
        <time>2019-01-10T09:02:15Z</time>
      </trkpt>
      <trkpt lat="44.7902" lon="5.0593">
        <ele>497.62</ele>
        <time>2019-01-10T09:02:27Z</time>
      </trkpt>
      <trkpt lat="44.79021" lon="5.05938">
        <ele>498.58</ele>
        <time>2019-01-10T09:02:37Z</time>
      </trkpt>
      <trkpt lat="44.79022" lon="5.05948">
        <ele>499.06</ele>
        <time>2019-01-10T09:02:43Z</time>
      </trkpt>
      <trkpt lat="44.7902" lon="5.05955">
        <ele>499.54</ele>
        <time>2019-01-10T09:02:47Z</time>
      </trkpt>
      <trkpt lat="44.79025" lon="5.05971">
        <ele>501.95</ele>
        <time>2019-01-10T09:02:59Z</time>
      </trkpt>
      <trkpt lat="44.79025" lon="5.05973">
        <ele>502.43</ele>
        <time>2019-01-10T09:03:00Z</time>
      </trkpt>
      <trkpt lat="44.79025" lon="5.05976">
        <ele>502.43</ele>
        <time>2019-01-10T09:03:02Z</time>
      </trkpt>
      <trkpt lat="44.79029" lon="5.05988">
        <ele>505.79</ele>
        <time>2019-01-10T09:03:12Z</time>
      </trkpt>
      <trkpt lat="44.79029" lon="5.05999">
        <ele>507.71</ele>
        <time>2019-01-10T09:03:23Z</time>
      </trkpt>
      <trkpt lat="44.79028" lon="5.06008">
        <ele>509.16</ele>
        <time>2019-01-10T09:03:31Z</time>
      </trkpt>
      <trkpt lat="44.79026" lon="5.06018">
        <ele>510.6</ele>
        <time>2019-01-10T09:03:40Z</time>
      </trkpt>
      <trkpt lat="44.79028" lon="5.06029">
        <ele>513</ele>
        <time>2019-01-10T09:03:48Z</time>
      </trkpt>
      <trkpt lat="44.79027" lon="5.06034">
        <ele>513.96</ele>
        <time>2019-01-10T09:03:52Z</time>
      </trkpt>
      <trkpt lat="44.79027" lon="5.06051">
        <ele>515.4</ele>
        <time>2019-01-10T09:04:02Z</time>
      </trkpt>
      <trkpt lat="44.79028" lon="5.06056">
        <ele>516.37</ele>
        <time>2019-01-10T09:04:06Z</time>
      </trkpt>
      <trkpt lat="44.7903" lon="5.06063">
        <ele>517.33</ele>
        <time>2019-01-10T09:04:10Z</time>
      </trkpt>
      <trkpt lat="44.79031" lon="5.06066">
        <ele>517.33</ele>
        <time>2019-01-10T09:04:12Z</time>
      </trkpt>
      <trkpt lat="44.79029" lon="5.0607">
        <ele>517.81</ele>
        <time>2019-01-10T09:04:15Z</time>
      </trkpt>
      <trkpt lat="44.7903" lon="5.06073">
        <ele>518.29</ele>
        <time>2019-01-10T09:04:17Z</time>
      </trkpt>
      <trkpt lat="44.79029" lon="5.06082">
        <ele>518.29</ele>
        <time>2019-01-10T09:04:22Z</time>
      </trkpt>
      <trkpt lat="44.7903" lon="5.06088">
        <ele>518.29</ele>
        <time>2019-01-10T09:04:26Z</time>
      </trkpt>
      <trkpt lat="44.79029" lon="5.06103">
        <ele>520.69</ele>
        <time>2019-01-10T09:04:37Z</time>
      </trkpt>
      <trkpt lat="44.79026" lon="5.06114">
        <ele>523.58</ele>
        <time>2019-01-10T09:04:48Z</time>
      </trkpt>
      <trkpt lat="44.79023" lon="5.06124">
        <ele>525.5</ele>
        <time>2019-01-10T09:04:57Z</time>
      </trkpt>
      <trkpt lat="44.79023" lon="5.06135">
        <ele>527.42</ele>
        <time>2019-01-10T09:05:06Z</time>
      </trkpt>
      <trkpt lat="44.79025" lon="5.06145">
        <ele>528.38</ele>
        <time>2019-01-10T09:05:12Z</time>
      </trkpt>
      <trkpt lat="44.79028" lon="5.06162">
        <ele>527.9</ele>
        <time>2019-01-10T09:05:21Z</time>
      </trkpt>
      <trkpt lat="44.79029" lon="5.06165">
        <ele>528.38</ele>
        <time>2019-01-10T09:05:23Z</time>
      </trkpt>
      <trkpt lat="44.79031" lon="5.06172">
        <ele>528.38</ele>
        <time>2019-01-10T09:05:27Z</time>
      </trkpt>
      <trkpt lat="44.79029" lon="5.06178">
        <ele>528.86</ele>
        <time>2019-01-10T09:05:31Z</time>
      </trkpt>
      <trkpt lat="44.79027" lon="5.06201">
        <ele>529.82</ele>
        <time>2019-01-10T09:05:40Z</time>
      </trkpt>
      <trkpt lat="44.79027" lon="5.06209">
        <ele>530.79</ele>
        <time>2019-01-10T09:05:45Z</time>
      </trkpt>
      <trkpt lat="44.79026" lon="5.06214">
        <ele>530.79</ele>
        <time>2019-01-10T09:05:48Z</time>
      </trkpt>
      <trkpt lat="44.79031" lon="5.06224">
        <ele>531.27</ele>
        <time>2019-01-10T09:05:55Z</time>
      </trkpt>
      <trkpt lat="44.79031" lon="5.06235">
        <ele>532.23</ele>
        <time>2019-01-10T09:06:00Z</time>
      </trkpt>
      <trkpt lat="44.79035" lon="5.06242">
        <ele>532.71</ele>
        <time>2019-01-10T09:06:04Z</time>
      </trkpt>
      <trkpt lat="44.79037" lon="5.06255">
        <ele>534.63</ele>
        <time>2019-01-10T09:06:16Z</time>
      </trkpt>
      <trkpt lat="44.79036" lon="5.06261">
        <ele>535.11</ele>
        <time>2019-01-10T09:06:24Z</time>
      </trkpt>
      <trkpt lat="44.79038" lon="5.06261">
        <ele>535.11</ele>
        <time>2019-01-10T09:06:35Z</time>
      </trkpt>
      <trkpt lat="44.79038" lon="5.06261">
        <ele>534.63</ele>
        <time>2019-01-10T09:07:04Z</time>
      </trkpt>
      <trkpt lat="44.79038" lon="5.06261">
        <ele>535.11</ele>
        <time>2019-01-10T09:07:34Z</time>
      </trkpt>
      <trkpt lat="44.79038" lon="5.06261">
        <ele>535.11</ele>
        <time>2019-01-10T09:07:58Z</time>
      </trkpt>
      <trkpt lat="44.79038" lon="5.06261">
        <ele>535.11</ele>
        <time>2019-01-10T09:08:05Z</time>
      </trkpt>
      <trkpt lat="44.79037" lon="5.06263">
        <ele>534.63</ele>
        <time>2019-01-10T09:08:07Z</time>
      </trkpt>
      <trkpt lat="44.79037" lon="5.06267">
        <ele>534.63</ele>
        <time>2019-01-10T09:08:10Z</time>
      </trkpt>
      <trkpt lat="44.79038" lon="5.06272">
        <ele>535.59</ele>
        <time>2019-01-10T09:08:14Z</time>
      </trkpt>
      <trkpt lat="44.79037" lon="5.06278">
        <ele>536.55</ele>
        <time>2019-01-10T09:08:19Z</time>
      </trkpt>
      <trkpt lat="44.7904" lon="5.06288">
        <ele>537.99</ele>
        <time>2019-01-10T09:08:26Z</time>
      </trkpt>
      <trkpt lat="44.79042" lon="5.06303">
        <ele>541.84</ele>
        <time>2019-01-10T09:08:38Z</time>
      </trkpt>
      <trkpt lat="44.79041" lon="5.06311">
        <ele>543.76</ele>
        <time>2019-01-10T09:08:49Z</time>
      </trkpt>
      <trkpt lat="44.79044" lon="5.06321">
        <ele>546.17</ele>
        <time>2019-01-10T09:09:01Z</time>
      </trkpt>
      <trkpt lat="44.79044" lon="5.0633">
        <ele>547.61</ele>
        <time>2019-01-10T09:09:14Z</time>
      </trkpt>
      <trkpt lat="44.79042" lon="5.06337">
        <ele>549.53</ele>
        <time>2019-01-10T09:09:24Z</time>
      </trkpt>
      <trkpt lat="44.79042" lon="5.06341">
        <ele>550.49</ele>
        <time>2019-01-10T09:09:27Z</time>
      </trkpt>
      <trkpt lat="44.79043" lon="5.06356">
        <ele>552.41</ele>
        <time>2019-01-10T09:09:41Z</time>
      </trkpt>
      <trkpt lat="44.79043" lon="5.06368">
        <ele>555.3</ele>
        <time>2019-01-10T09:09:55Z</time>
      </trkpt>
      <trkpt lat="44.79042" lon="5.06383">
        <ele>557.7</ele>
        <time>2019-01-10T09:10:09Z</time>
      </trkpt>
      <trkpt lat="44.79042" lon="5.06395">
        <ele>560.11</ele>
        <time>2019-01-10T09:10:22Z</time>
      </trkpt>
      <trkpt lat="44.79042" lon="5.06397">
        <ele>558.66</ele>
        <time>2019-01-10T09:10:39Z</time>
      </trkpt>
      <trkpt lat="44.79042" lon="5.06397">
        <ele>562.51</ele>
        <time>2019-01-10T09:10:41Z</time>
      </trkpt>
      <trkpt lat="44.79042" lon="5.06397">
        <ele>551.45</ele>
        <time>2019-01-10T09:10:46Z</time>
      </trkpt>
      <trkpt lat="44.79042" lon="5.06397">
        <ele>570.68</ele>
        <time>2019-01-10T09:10:47Z</time>
      </trkpt>
      <trkpt lat="44.79042" lon="5.06397">
        <ele>558.66</ele>
        <time>2019-01-10T09:10:48Z</time>
      </trkpt>
      <trkpt lat="44.79042" lon="5.06397">
        <ele>563.47</ele>
        <time>2019-01-10T09:10:49Z</time>
      </trkpt>
      <trkpt lat="44.79042" lon="5.06397">
        <ele>560.11</ele>
        <time>2019-01-10T09:10:50Z</time>
      </trkpt>
      <trkpt lat="44.79042" lon="5.06404">
        <ele>562.99</ele>
        <time>2019-01-10T09:11:03Z</time>
      </trkpt>
      <trkpt lat="44.79042" lon="5.06415">
        <ele>565.87</ele>
        <time>2019-01-10T09:11:17Z</time>
      </trkpt>
      <trkpt lat="44.79042" lon="5.06429">
        <ele>568.76</ele>
        <time>2019-01-10T09:11:32Z</time>
      </trkpt>
      <trkpt lat="44.79041" lon="5.06442">
        <ele>572.12</ele>
        <time>2019-01-10T09:11:47Z</time>
      </trkpt>
      <trkpt lat="44.79039" lon="5.0645">
        <ele>572.6</ele>
        <time>2019-01-10T09:11:59Z</time>
      </trkpt>
      <trkpt lat="44.79037" lon="5.06459">
        <ele>575.49</ele>
        <time>2019-01-10T09:12:11Z</time>
      </trkpt>
      <trkpt lat="44.79036" lon="5.06463">
        <ele>576.93</ele>
        <time>2019-01-10T09:12:17Z</time>
      </trkpt>
      <trkpt lat="44.79034" lon="5.06471">
        <ele>577.41</ele>
        <time>2019-01-10T09:12:32Z</time>
      </trkpt>
      <trkpt lat="44.7903" lon="5.06477">
        <ele>580.77</ele>
        <time>2019-01-10T09:12:48Z</time>
      </trkpt>
      <trkpt lat="44.79027" lon="5.06486">
        <ele>582.22</ele>
        <time>2019-01-10T09:13:03Z</time>
      </trkpt>
      <trkpt lat="44.79024" lon="5.06495">
        <ele>584.14</ele>
        <time>2019-01-10T09:13:15Z</time>
      </trkpt>
      <trkpt lat="44.79023" lon="5.06499">
        <ele>586.06</ele>
        <time>2019-01-10T09:13:20Z</time>
      </trkpt>
      <trkpt lat="44.79021" lon="5.06501">
        <ele>586.54</ele>
        <time>2019-01-10T09:13:24Z</time>
      </trkpt>
      <trkpt lat="44.79019" lon="5.06501">
        <ele>587.5</ele>
        <time>2019-01-10T09:13:29Z</time>
      </trkpt>
      <trkpt lat="44.79018" lon="5.065">
        <ele>587.5</ele>
        <time>2019-01-10T09:13:31Z</time>
      </trkpt>
      <trkpt lat="44.79003" lon="5.06487">
        <ele>588.46</ele>
        <time>2019-01-10T09:13:45Z</time>
      </trkpt>
      <trkpt lat="44.78996" lon="5.06481">
        <ele>588.95</ele>
        <time>2019-01-10T09:13:52Z</time>
      </trkpt>
      <trkpt lat="44.78989" lon="5.06468">
        <ele>589.91</ele>
        <time>2019-01-10T09:14:00Z</time>
      </trkpt>
      <trkpt lat="44.78974" lon="5.0645">
        <ele>592.79</ele>
        <time>2019-01-10T09:14:16Z</time>
      </trkpt>
      <trkpt lat="44.78974" lon="5.0645">
        <ele>592.79</ele>
        <time>2019-01-10T09:14:17Z</time>
      </trkpt>
      <trkpt lat="44.78966" lon="5.06447">
        <ele>594.71</ele>
        <time>2019-01-10T09:14:30Z</time>
      </trkpt>
      <trkpt lat="44.78961" lon="5.06447">
        <ele>596.15</ele>
        <time>2019-01-10T09:14:42Z</time>
      </trkpt>
      <trkpt lat="44.78953" lon="5.06444">
        <ele>599.04</ele>
        <time>2019-01-10T09:14:54Z</time>
      </trkpt>
      <trkpt lat="44.7894" lon="5.06437">
        <ele>601.92</ele>
        <time>2019-01-10T09:15:08Z</time>
      </trkpt>
      <trkpt lat="44.78935" lon="5.06444">
        <ele>605.29</ele>
        <time>2019-01-10T09:15:16Z</time>
      </trkpt>
      <trkpt lat="44.78935" lon="5.06445">
        <ele>606.25</ele>
        <time>2019-01-10T09:15:37Z</time>
      </trkpt>
      <trkpt lat="44.78934" lon="5.06446">
        <ele>606.25</ele>
        <time>2019-01-10T09:15:38Z</time>
      </trkpt>
      <trkpt lat="44.78936" lon="5.06452">
        <ele>605.77</ele>
        <time>2019-01-10T09:15:42Z</time>
      </trkpt>
      <trkpt lat="44.78937" lon="5.06458">
        <ele>606.73</ele>
        <time>2019-01-10T09:15:46Z</time>
      </trkpt>
      <trkpt lat="44.78938" lon="5.06466">
        <ele>608.65</ele>
        <time>2019-01-10T09:15:58Z</time>
      </trkpt>
      <trkpt lat="44.78939" lon="5.06482">
        <ele>612.02</ele>
        <time>2019-01-10T09:16:13Z</time>
      </trkpt>
      <trkpt lat="44.7894" lon="5.06498">
        <ele>614.9</ele>
        <time>2019-01-10T09:16:28Z</time>
      </trkpt>
      <trkpt lat="44.7894" lon="5.065">
        <ele>615.86</ele>
        <time>2019-01-10T09:16:30Z</time>
      </trkpt>
      <trkpt lat="44.78942" lon="5.06516">
        <ele>617.78</ele>
        <time>2019-01-10T09:16:42Z</time>
      </trkpt>
      <trkpt lat="44.78942" lon="5.06517">
        <ele>617.78</ele>
        <time>2019-01-10T09:16:43Z</time>
      </trkpt>
      <trkpt lat="44.78944" lon="5.06537">
        <ele>620.19</ele>
        <time>2019-01-10T09:16:56Z</time>
      </trkpt>
      <trkpt lat="44.78945" lon="5.0654">
        <ele>622.11</ele>
        <time>2019-01-10T09:16:59Z</time>
      </trkpt>
      <trkpt lat="44.78948" lon="5.06559">
        <ele>623.07</ele>
        <time>2019-01-10T09:17:15Z</time>
      </trkpt>
      <trkpt lat="44.78952" lon="5.06576">
        <ele>625.47</ele>
        <time>2019-01-10T09:17:29Z</time>
      </trkpt>
      <trkpt lat="44.78952" lon="5.06579">
        <ele>625.47</ele>
        <time>2019-01-10T09:17:44Z</time>
      </trkpt>
      <trkpt lat="44.78952" lon="5.06579">
        <ele>625.47</ele>
        <time>2019-01-10T09:18:07Z</time>
      </trkpt>
      <trkpt lat="44.78952" lon="5.06579">
        <ele>625.96</ele>
        <time>2019-01-10T09:18:34Z</time>
      </trkpt>
      <trkpt lat="44.78952" lon="5.0658">
        <ele>625.47</ele>
        <time>2019-01-10T09:19:03Z</time>
      </trkpt>
      <trkpt lat="44.78951" lon="5.06581">
        <ele>624.99</ele>
        <time>2019-01-10T09:19:04Z</time>
      </trkpt>
      <trkpt lat="44.78933" lon="5.06608">
        <ele>624.99</ele>
        <time>2019-01-10T09:19:18Z</time>
      </trkpt>
      <trkpt lat="44.78928" lon="5.06613">
        <ele>625.47</ele>
        <time>2019-01-10T09:19:21Z</time>
      </trkpt>
      <trkpt lat="44.7891" lon="5.06634">
        <ele>627.4</ele>
        <time>2019-01-10T09:19:35Z</time>
      </trkpt>
      <trkpt lat="44.78907" lon="5.06638">
        <ele>627.4</ele>
        <time>2019-01-10T09:19:37Z</time>
      </trkpt>
      <trkpt lat="44.78904" lon="5.0664">
        <ele>627.88</ele>
        <time>2019-01-10T09:19:39Z</time>
      </trkpt>
      <trkpt lat="44.78899" lon="5.06643">
        <ele>628.36</ele>
        <time>2019-01-10T09:19:50Z</time>
      </trkpt>
      <trkpt lat="44.78899" lon="5.06643">
        <ele>628.84</ele>
        <time>2019-01-10T09:20:17Z</time>
      </trkpt>
      <trkpt lat="44.78899" lon="5.06643">
        <ele>628.36</ele>
        <time>2019-01-10T09:20:46Z</time>
      </trkpt>
      <trkpt lat="44.78898" lon="5.06644">
        <ele>628.36</ele>
        <time>2019-01-10T09:20:48Z</time>
      </trkpt>
      <trkpt lat="44.78883" lon="5.06668">
        <ele>628.84</ele>
        <time>2019-01-10T09:21:00Z</time>
      </trkpt>
      <trkpt lat="44.78875" lon="5.06676">
        <ele>629.32</ele>
        <time>2019-01-10T09:21:05Z</time>
      </trkpt>
      <trkpt lat="44.78853" lon="5.06673">
        <ele>628.36</ele>
        <time>2019-01-10T09:21:15Z</time>
      </trkpt>
      <trkpt lat="44.78829" lon="5.06653">
        <ele>626.92</ele>
        <time>2019-01-10T09:21:24Z</time>
      </trkpt>
      <trkpt lat="44.7882" lon="5.06648">
        <ele>625.96</ele>
        <time>2019-01-10T09:21:26Z</time>
      </trkpt>
      <trkpt lat="44.78815" lon="5.06645">
        <ele>624.99</ele>
        <time>2019-01-10T09:21:27Z</time>
      </trkpt>
      <trkpt lat="44.7881" lon="5.06643">
        <ele>624.03</ele>
        <time>2019-01-10T09:21:28Z</time>
      </trkpt>
      <trkpt lat="44.78804" lon="5.06642">
        <ele>623.55</ele>
        <time>2019-01-10T09:21:29Z</time>
      </trkpt>
      <trkpt lat="44.78799" lon="5.06641">
        <ele>623.55</ele>
        <time>2019-01-10T09:21:30Z</time>
      </trkpt>
      <trkpt lat="44.78793" lon="5.06641">
        <ele>623.55</ele>
        <time>2019-01-10T09:21:31Z</time>
      </trkpt>
      <trkpt lat="44.78788" lon="5.06642">
        <ele>623.55</ele>
        <time>2019-01-10T09:21:32Z</time>
      </trkpt>
      <trkpt lat="44.78784" lon="5.06643">
        <ele>623.55</ele>
        <time>2019-01-10T09:21:33Z</time>
      </trkpt>
      <trkpt lat="44.78779" lon="5.06645">
        <ele>623.55</ele>
        <time>2019-01-10T09:21:34Z</time>
      </trkpt>
      <trkpt lat="44.78775" lon="5.06647">
        <ele>623.55</ele>
        <time>2019-01-10T09:21:35Z</time>
      </trkpt>
      <trkpt lat="44.7877" lon="5.06649">
        <ele>623.55</ele>
        <time>2019-01-10T09:21:36Z</time>
      </trkpt>
      <trkpt lat="44.78748" lon="5.0666">
        <ele>622.11</ele>
        <time>2019-01-10T09:21:41Z</time>
      </trkpt>
      <trkpt lat="44.78743" lon="5.06661">
        <ele>622.11</ele>
        <time>2019-01-10T09:21:42Z</time>
      </trkpt>
      <trkpt lat="44.78739" lon="5.06659">
        <ele>622.11</ele>
        <time>2019-01-10T09:21:43Z</time>
      </trkpt>
      <trkpt lat="44.78731" lon="5.06656">
        <ele>622.11</ele>
        <time>2019-01-10T09:21:45Z</time>
      </trkpt>
      <trkpt lat="44.78726" lon="5.06655">
        <ele>621.15</ele>
        <time>2019-01-10T09:21:46Z</time>
      </trkpt>
      <trkpt lat="44.78721" lon="5.06654">
        <ele>620.67</ele>
        <time>2019-01-10T09:21:47Z</time>
      </trkpt>
      <trkpt lat="44.78716" lon="5.06653">
        <ele>620.67</ele>
        <time>2019-01-10T09:21:48Z</time>
      </trkpt>
      <trkpt lat="44.78697" lon="5.06649">
        <ele>621.15</ele>
        <time>2019-01-10T09:21:52Z</time>
      </trkpt>
      <trkpt lat="44.78692" lon="5.06648">
        <ele>620.19</ele>
        <time>2019-01-10T09:21:53Z</time>
      </trkpt>
      <trkpt lat="44.78687" lon="5.06646">
        <ele>619.71</ele>
        <time>2019-01-10T09:21:54Z</time>
      </trkpt>
      <trkpt lat="44.78681" lon="5.06645">
        <ele>619.23</ele>
        <time>2019-01-10T09:21:55Z</time>
      </trkpt>
      <trkpt lat="44.78677" lon="5.06644">
        <ele>619.71</ele>
        <time>2019-01-10T09:21:56Z</time>
      </trkpt>
      <trkpt lat="44.78673" lon="5.06644">
        <ele>619.71</ele>
        <time>2019-01-10T09:21:57Z</time>
      </trkpt>
      <trkpt lat="44.78633" lon="5.06653">
        <ele>621.15</ele>
        <time>2019-01-10T09:22:07Z</time>
      </trkpt>
      <trkpt lat="44.786" lon="5.06654">
        <ele>621.63</ele>
        <time>2019-01-10T09:22:18Z</time>
      </trkpt>
      <trkpt lat="44.786" lon="5.06654">
        <ele>622.11</ele>
        <time>2019-01-10T09:22:40Z</time>
      </trkpt>
      <trkpt lat="44.786" lon="5.06654">
        <ele>621.63</ele>
        <time>2019-01-10T09:23:05Z</time>
      </trkpt>
      <trkpt lat="44.78599" lon="5.06655">
        <ele>621.63</ele>
        <time>2019-01-10T09:23:31Z</time>
      </trkpt>
      <trkpt lat="44.78596" lon="5.06653">
        <ele>621.15</ele>
        <time>2019-01-10T09:23:37Z</time>
      </trkpt>
      <trkpt lat="44.78593" lon="5.06652">
        <ele>621.15</ele>
        <time>2019-01-10T09:23:38Z</time>
      </trkpt>
      <trkpt lat="44.78565" lon="5.06634">
        <ele>621.63</ele>
        <time>2019-01-10T09:23:47Z</time>
      </trkpt>
      <trkpt lat="44.78545" lon="5.06613">
        <ele>619.71</ele>
        <time>2019-01-10T09:23:53Z</time>
      </trkpt>
      <trkpt lat="44.78541" lon="5.06611">
        <ele>619.71</ele>
        <time>2019-01-10T09:23:54Z</time>
      </trkpt>
      <trkpt lat="44.78529" lon="5.06613">
        <ele>619.23</ele>
        <time>2019-01-10T09:23:57Z</time>
      </trkpt>
      <trkpt lat="44.78525" lon="5.06618">
        <ele>618.75</ele>
        <time>2019-01-10T09:23:58Z</time>
      </trkpt>
      <trkpt lat="44.78522" lon="5.06623">
        <ele>617.3</ele>
        <time>2019-01-10T09:23:59Z</time>
      </trkpt>
      <trkpt lat="44.78507" lon="5.0665">
        <ele>614.42</ele>
        <time>2019-01-10T09:24:03Z</time>
      </trkpt>
      <trkpt lat="44.78498" lon="5.0666">
        <ele>613.94</ele>
        <time>2019-01-10T09:24:05Z</time>
      </trkpt>
      <trkpt lat="44.78485" lon="5.06672">
        <ele>612.98</ele>
        <time>2019-01-10T09:24:08Z</time>
      </trkpt>
      <trkpt lat="44.78481" lon="5.06677">
        <ele>612.98</ele>
        <time>2019-01-10T09:24:09Z</time>
      </trkpt>
      <trkpt lat="44.78471" lon="5.0669">
        <ele>612.98</ele>
        <time>2019-01-10T09:24:12Z</time>
      </trkpt>
      <trkpt lat="44.78467" lon="5.06692">
        <ele>613.46</ele>
        <time>2019-01-10T09:24:13Z</time>
      </trkpt>
      <trkpt lat="44.78463" lon="5.06694">
        <ele>613.46</ele>
        <time>2019-01-10T09:24:14Z</time>
      </trkpt>
      <trkpt lat="44.7846" lon="5.06695">
        <ele>613.46</ele>
        <time>2019-01-10T09:24:15Z</time>
      </trkpt>
      <trkpt lat="44.78456" lon="5.06695">
        <ele>613.46</ele>
        <time>2019-01-10T09:24:16Z</time>
      </trkpt>
      <trkpt lat="44.78454" lon="5.06696">
        <ele>613.94</ele>
        <time>2019-01-10T09:24:17Z</time>
      </trkpt>
      <trkpt lat="44.78452" lon="5.06695">
        <ele>614.42</ele>
        <time>2019-01-10T09:24:18Z</time>
      </trkpt>
      <trkpt lat="44.78422" lon="5.0669">
        <ele>613.46</ele>
        <time>2019-01-10T09:24:27Z</time>
      </trkpt>
      <trkpt lat="44.78407" lon="5.06693">
        <ele>612.5</ele>
        <time>2019-01-10T09:24:30Z</time>
      </trkpt>
      <trkpt lat="44.78403" lon="5.06692">
        <ele>612.02</ele>
        <time>2019-01-10T09:24:31Z</time>
      </trkpt>
      <trkpt lat="44.78398" lon="5.06691">
        <ele>612.5</ele>
        <time>2019-01-10T09:24:32Z</time>
      </trkpt>
      <trkpt lat="44.78394" lon="5.0669">
        <ele>612.5</ele>
        <time>2019-01-10T09:24:33Z</time>
      </trkpt>
      <trkpt lat="44.78391" lon="5.06688">
        <ele>612.98</ele>
        <time>2019-01-10T09:24:34Z</time>
      </trkpt>
      <trkpt lat="44.78387" lon="5.06685">
        <ele>612.98</ele>
        <time>2019-01-10T09:24:35Z</time>
      </trkpt>
      <trkpt lat="44.78384" lon="5.06683">
        <ele>612.98</ele>
        <time>2019-01-10T09:24:36Z</time>
      </trkpt>
      <trkpt lat="44.78356" lon="5.06666">
        <ele>611.54</ele>
        <time>2019-01-10T09:24:43Z</time>
      </trkpt>
      <trkpt lat="44.78351" lon="5.06664">
        <ele>611.06</ele>
        <time>2019-01-10T09:24:44Z</time>
      </trkpt>
      <trkpt lat="44.78322" lon="5.0665">
        <ele>611.06</ele>
        <time>2019-01-10T09:24:51Z</time>
      </trkpt>
      <trkpt lat="44.78308" lon="5.06646">
        <ele>610.57</ele>
        <time>2019-01-10T09:24:54Z</time>
      </trkpt>
      <trkpt lat="44.78294" lon="5.06646">
        <ele>609.61</ele>
        <time>2019-01-10T09:24:57Z</time>
      </trkpt>
      <trkpt lat="44.78289" lon="5.06646">
        <ele>609.61</ele>
        <time>2019-01-10T09:24:58Z</time>
      </trkpt>
      <trkpt lat="44.78284" lon="5.06646">
        <ele>609.61</ele>
        <time>2019-01-10T09:24:59Z</time>
      </trkpt>
      <trkpt lat="44.7828" lon="5.06646">
        <ele>609.61</ele>
        <time>2019-01-10T09:25:00Z</time>
      </trkpt>
      <trkpt lat="44.78275" lon="5.06645">
        <ele>609.13</ele>
        <time>2019-01-10T09:25:01Z</time>
      </trkpt>
      <trkpt lat="44.78271" lon="5.06645">
        <ele>609.13</ele>
        <time>2019-01-10T09:25:02Z</time>
      </trkpt>
      <trkpt lat="44.78266" lon="5.06645">
        <ele>609.13</ele>
        <time>2019-01-10T09:25:03Z</time>
      </trkpt>
      <trkpt lat="44.78261" lon="5.06645">
        <ele>609.13</ele>
        <time>2019-01-10T09:25:04Z</time>
      </trkpt>
      <trkpt lat="44.78217" lon="5.06645">
        <ele>610.09</ele>
        <time>2019-01-10T09:25:15Z</time>
      </trkpt>
      <trkpt lat="44.78201" lon="5.06641">
        <ele>610.57</ele>
        <time>2019-01-10T09:25:19Z</time>
      </trkpt>
      <trkpt lat="44.78197" lon="5.06642">
        <ele>610.57</ele>
        <time>2019-01-10T09:25:20Z</time>
      </trkpt>
      <trkpt lat="44.78193" lon="5.06641">
        <ele>610.57</ele>
        <time>2019-01-10T09:25:21Z</time>
      </trkpt>
      <trkpt lat="44.78189" lon="5.0664">
        <ele>610.57</ele>
        <time>2019-01-10T09:25:22Z</time>
      </trkpt>
      <trkpt lat="44.78185" lon="5.06638">
        <ele>610.57</ele>
        <time>2019-01-10T09:25:23Z</time>
      </trkpt>
      <trkpt lat="44.78182" lon="5.06636">
        <ele>610.57</ele>
        <time>2019-01-10T09:25:24Z</time>
      </trkpt>
      <trkpt lat="44.78178" lon="5.06632">
        <ele>610.57</ele>
        <time>2019-01-10T09:25:25Z</time>
      </trkpt>
      <trkpt lat="44.78175" lon="5.0663">
        <ele>610.57</ele>
        <time>2019-01-10T09:25:26Z</time>
      </trkpt>
      <trkpt lat="44.78171" lon="5.06629">
        <ele>610.57</ele>
        <time>2019-01-10T09:25:27Z</time>
      </trkpt>
      <trkpt lat="44.78168" lon="5.06627">
        <ele>610.57</ele>
        <time>2019-01-10T09:25:28Z</time>
      </trkpt>
      <trkpt lat="44.78165" lon="5.06624">
        <ele>610.57</ele>
        <time>2019-01-10T09:25:29Z</time>
      </trkpt>
      <trkpt lat="44.78162" lon="5.06621">
        <ele>610.57</ele>
        <time>2019-01-10T09:25:30Z</time>
      </trkpt>
      <trkpt lat="44.78159" lon="5.06617">
        <ele>610.09</ele>
        <time>2019-01-10T09:25:31Z</time>
      </trkpt>
      <trkpt lat="44.78155" lon="5.06614">
        <ele>610.09</ele>
        <time>2019-01-10T09:25:32Z</time>
      </trkpt>
      <trkpt lat="44.78152" lon="5.06611">
        <ele>610.09</ele>
        <time>2019-01-10T09:25:33Z</time>
      </trkpt>
      <trkpt lat="44.78124" lon="5.06595">
        <ele>608.17</ele>
        <time>2019-01-10T09:25:41Z</time>
      </trkpt>
      <trkpt lat="44.78119" lon="5.06595">
        <ele>607.69</ele>
        <time>2019-01-10T09:25:42Z</time>
      </trkpt>
      <trkpt lat="44.78114" lon="5.06595">
        <ele>607.69</ele>
        <time>2019-01-10T09:25:43Z</time>
      </trkpt>
      <trkpt lat="44.781" lon="5.06597">
        <ele>607.21</ele>
        <time>2019-01-10T09:25:46Z</time>
      </trkpt>
      <trkpt lat="44.78083" lon="5.06598">
        <ele>609.61</ele>
        <time>2019-01-10T09:25:51Z</time>
      </trkpt>
      <trkpt lat="44.78081" lon="5.06598">
        <ele>609.61</ele>
        <time>2019-01-10T09:25:53Z</time>
      </trkpt>
      <trkpt lat="44.78079" lon="5.066">
        <ele>609.61</ele>
        <time>2019-01-10T09:25:54Z</time>
      </trkpt>
      <trkpt lat="44.78075" lon="5.06601">
        <ele>610.09</ele>
        <time>2019-01-10T09:25:57Z</time>
      </trkpt>
      <trkpt lat="44.78072" lon="5.06599">
        <ele>610.57</ele>
        <time>2019-01-10T09:25:58Z</time>
      </trkpt>
      <trkpt lat="44.78069" lon="5.06597">
        <ele>610.57</ele>
        <time>2019-01-10T09:25:59Z</time>
      </trkpt>
      <trkpt lat="44.78037" lon="5.06569">
        <ele>610.09</ele>
        <time>2019-01-10T09:26:10Z</time>
      </trkpt>
      <trkpt lat="44.78006" lon="5.06547">
        <ele>609.61</ele>
        <time>2019-01-10T09:26:19Z</time>
      </trkpt>
      <trkpt lat="44.77996" lon="5.06539">
        <ele>611.54</ele>
        <time>2019-01-10T09:26:22Z</time>
      </trkpt>
      <trkpt lat="44.77971" lon="5.06512">
        <ele>612.5</ele>
        <time>2019-01-10T09:26:33Z</time>
      </trkpt>
      <trkpt lat="44.77968" lon="5.06511">
        <ele>612.98</ele>
        <time>2019-01-10T09:26:35Z</time>
      </trkpt>
      <trkpt lat="44.77967" lon="5.0651">
        <ele>612.98</ele>
        <time>2019-01-10T09:26:36Z</time>
      </trkpt>
      <trkpt lat="44.77957" lon="5.065">
        <ele>616.34</ele>
        <time>2019-01-10T09:26:44Z</time>
      </trkpt>
      <trkpt lat="44.77956" lon="5.06499">
        <ele>616.34</ele>
        <time>2019-01-10T09:26:45Z</time>
      </trkpt>
      <trkpt lat="44.77955" lon="5.06498">
        <ele>615.86</ele>
        <time>2019-01-10T09:26:46Z</time>
      </trkpt>
      <trkpt lat="44.77954" lon="5.06497">
        <ele>615.86</ele>
        <time>2019-01-10T09:26:47Z</time>
      </trkpt>
      <trkpt lat="44.77953" lon="5.06497">
        <ele>615.38</ele>
        <time>2019-01-10T09:26:48Z</time>
      </trkpt>
      <trkpt lat="44.77942" lon="5.06487">
        <ele>618.75</ele>
        <time>2019-01-10T09:26:58Z</time>
      </trkpt>
      <trkpt lat="44.77939" lon="5.06485">
        <ele>620.19</ele>
        <time>2019-01-10T09:27:01Z</time>
      </trkpt>
      <trkpt lat="44.77933" lon="5.06482">
        <ele>622.11</ele>
        <time>2019-01-10T09:27:05Z</time>
      </trkpt>
      <trkpt lat="44.7793" lon="5.06481">
        <ele>622.11</ele>
        <time>2019-01-10T09:27:06Z</time>
      </trkpt>
      <trkpt lat="44.77929" lon="5.0648">
        <ele>622.11</ele>
        <time>2019-01-10T09:27:07Z</time>
      </trkpt>
      <trkpt lat="44.77927" lon="5.0648">
        <ele>622.11</ele>
        <time>2019-01-10T09:27:08Z</time>
      </trkpt>
      <trkpt lat="44.77925" lon="5.0648">
        <ele>622.11</ele>
        <time>2019-01-10T09:27:09Z</time>
      </trkpt>
      <trkpt lat="44.77923" lon="5.0648">
        <ele>622.11</ele>
        <time>2019-01-10T09:27:10Z</time>
      </trkpt>
      <trkpt lat="44.77922" lon="5.06479">
        <ele>622.11</ele>
        <time>2019-01-10T09:27:11Z</time>
      </trkpt>
      <trkpt lat="44.7792" lon="5.06479">
        <ele>623.07</ele>
        <time>2019-01-10T09:27:12Z</time>
      </trkpt>
      <trkpt lat="44.77919" lon="5.06479">
        <ele>623.07</ele>
        <time>2019-01-10T09:27:13Z</time>
      </trkpt>
      <trkpt lat="44.77918" lon="5.06479">
        <ele>623.55</ele>
        <time>2019-01-10T09:27:14Z</time>
      </trkpt>
      <trkpt lat="44.77916" lon="5.06479">
        <ele>623.55</ele>
        <time>2019-01-10T09:27:15Z</time>
      </trkpt>
      <trkpt lat="44.77915" lon="5.06479">
        <ele>623.55</ele>
        <time>2019-01-10T09:27:16Z</time>
      </trkpt>
      <trkpt lat="44.77913" lon="5.0648">
        <ele>623.55</ele>
        <time>2019-01-10T09:27:17Z</time>
      </trkpt>
      <trkpt lat="44.77911" lon="5.0648">
        <ele>623.55</ele>
        <time>2019-01-10T09:27:18Z</time>
      </trkpt>
      <trkpt lat="44.77902" lon="5.06483">
        <ele>622.11</ele>
        <time>2019-01-10T09:27:21Z</time>
      </trkpt>
      <trkpt lat="44.77893" lon="5.06485">
        <ele>619.23</ele>
        <time>2019-01-10T09:27:23Z</time>
      </trkpt>
      <trkpt lat="44.77888" lon="5.06487">
        <ele>618.75</ele>
        <time>2019-01-10T09:27:24Z</time>
      </trkpt>
      <trkpt lat="44.77883" lon="5.06487">
        <ele>617.78</ele>
        <time>2019-01-10T09:27:25Z</time>
      </trkpt>
      <trkpt lat="44.77872" lon="5.06488">
        <ele>616.82</ele>
        <time>2019-01-10T09:27:27Z</time>
      </trkpt>
      <trkpt lat="44.77867" lon="5.06487">
        <ele>616.82</ele>
        <time>2019-01-10T09:27:28Z</time>
      </trkpt>
      <trkpt lat="44.77862" lon="5.06485">
        <ele>616.34</ele>
        <time>2019-01-10T09:27:29Z</time>
      </trkpt>
      <trkpt lat="44.77857" lon="5.06482">
        <ele>615.86</ele>
        <time>2019-01-10T09:27:30Z</time>
      </trkpt>
      <trkpt lat="44.77852" lon="5.06478">
        <ele>615.86</ele>
        <time>2019-01-10T09:27:31Z</time>
      </trkpt>
      <trkpt lat="44.77837" lon="5.06465">
        <ele>613.94</ele>
        <time>2019-01-10T09:27:34Z</time>
      </trkpt>
      <trkpt lat="44.77831" lon="5.06462">
        <ele>613.46</ele>
        <time>2019-01-10T09:27:35Z</time>
      </trkpt>
      <trkpt lat="44.77825" lon="5.06459">
        <ele>612.5</ele>
        <time>2019-01-10T09:27:36Z</time>
      </trkpt>
      <trkpt lat="44.7782" lon="5.06456">
        <ele>612.02</ele>
        <time>2019-01-10T09:27:37Z</time>
      </trkpt>
      <trkpt lat="44.77814" lon="5.06454">
        <ele>611.54</ele>
        <time>2019-01-10T09:27:38Z</time>
      </trkpt>
      <trkpt lat="44.77808" lon="5.06451">
        <ele>611.54</ele>
        <time>2019-01-10T09:27:39Z</time>
      </trkpt>
      <trkpt lat="44.77802" lon="5.06447">
        <ele>611.54</ele>
        <time>2019-01-10T09:27:40Z</time>
      </trkpt>
      <trkpt lat="44.77785" lon="5.06437">
        <ele>610.09</ele>
        <time>2019-01-10T09:27:43Z</time>
      </trkpt>
      <trkpt lat="44.77779" lon="5.06436">
        <ele>610.57</ele>
        <time>2019-01-10T09:27:44Z</time>
      </trkpt>
      <trkpt lat="44.77773" lon="5.06436">
        <ele>610.57</ele>
        <time>2019-01-10T09:27:45Z</time>
      </trkpt>
      <trkpt lat="44.77752" lon="5.06439">
        <ele>608.17</ele>
        <time>2019-01-10T09:27:49Z</time>
      </trkpt>
      <trkpt lat="44.77742" lon="5.06438">
        <ele>608.17</ele>
        <time>2019-01-10T09:27:51Z</time>
      </trkpt>
      <trkpt lat="44.77738" lon="5.06437">
        <ele>608.65</ele>
        <time>2019-01-10T09:27:52Z</time>
      </trkpt>
      <trkpt lat="44.77734" lon="5.06436">
        <ele>608.65</ele>
        <time>2019-01-10T09:27:53Z</time>
      </trkpt>
      <trkpt lat="44.7773" lon="5.06433">
        <ele>609.13</ele>
        <time>2019-01-10T09:27:54Z</time>
      </trkpt>
      <trkpt lat="44.77727" lon="5.0643">
        <ele>609.13</ele>
        <time>2019-01-10T09:27:55Z</time>
      </trkpt>
      <trkpt lat="44.77723" lon="5.06427">
        <ele>608.65</ele>
        <time>2019-01-10T09:27:56Z</time>
      </trkpt>
      <trkpt lat="44.77708" lon="5.06412">
        <ele>608.17</ele>
        <time>2019-01-10T09:28:00Z</time>
      </trkpt>
      <trkpt lat="44.77703" lon="5.06409">
        <ele>607.69</ele>
        <time>2019-01-10T09:28:01Z</time>
      </trkpt>
      <trkpt lat="44.77692" lon="5.06405">
        <ele>608.17</ele>
        <time>2019-01-10T09:28:03Z</time>
      </trkpt>
      <trkpt lat="44.77681" lon="5.06402">
        <ele>607.69</ele>
        <time>2019-01-10T09:28:05Z</time>
      </trkpt>
      <trkpt lat="44.7767" lon="5.06402">
        <ele>606.73</ele>
        <time>2019-01-10T09:28:07Z</time>
      </trkpt>
      <trkpt lat="44.77664" lon="5.06404">
        <ele>606.73</ele>
        <time>2019-01-10T09:28:08Z</time>
      </trkpt>
      <trkpt lat="44.77621" lon="5.06409">
        <ele>604.33</ele>
        <time>2019-01-10T09:28:16Z</time>
      </trkpt>
      <trkpt lat="44.77616" lon="5.06409">
        <ele>603.85</ele>
        <time>2019-01-10T09:28:17Z</time>
      </trkpt>
      <trkpt lat="44.77604" lon="5.06408">
        <ele>602.88</ele>
        <time>2019-01-10T09:28:19Z</time>
      </trkpt>
      <trkpt lat="44.77593" lon="5.06408">
        <ele>602.4</ele>
        <time>2019-01-10T09:28:21Z</time>
      </trkpt>
      <trkpt lat="44.77588" lon="5.06407">
        <ele>602.4</ele>
        <time>2019-01-10T09:28:22Z</time>
      </trkpt>
      <trkpt lat="44.77582" lon="5.06408">
        <ele>602.4</ele>
        <time>2019-01-10T09:28:23Z</time>
      </trkpt>
      <trkpt lat="44.77577" lon="5.06407">
        <ele>602.4</ele>
        <time>2019-01-10T09:28:24Z</time>
      </trkpt>
      <trkpt lat="44.77572" lon="5.06407">
        <ele>601.92</ele>
        <time>2019-01-10T09:28:25Z</time>
      </trkpt>
      <trkpt lat="44.77568" lon="5.06407">
        <ele>601.92</ele>
        <time>2019-01-10T09:28:26Z</time>
      </trkpt>
      <trkpt lat="44.77526" lon="5.06396">
        <ele>603.85</ele>
        <time>2019-01-10T09:28:37Z</time>
      </trkpt>
      <trkpt lat="44.77505" lon="5.0639">
        <ele>606.73</ele>
        <time>2019-01-10T09:28:44Z</time>
      </trkpt>
      <trkpt lat="44.775" lon="5.06383">
        <ele>606.73</ele>
        <time>2019-01-10T09:28:48Z</time>
      </trkpt>
      <trkpt lat="44.775" lon="5.06381">
        <ele>606.73</ele>
        <time>2019-01-10T09:28:49Z</time>
      </trkpt>
      <trkpt lat="44.775" lon="5.06379">
        <ele>606.73</ele>
        <time>2019-01-10T09:28:50Z</time>
      </trkpt>
      <trkpt lat="44.775" lon="5.06374">
        <ele>606.73</ele>
        <time>2019-01-10T09:28:53Z</time>
      </trkpt>
      <trkpt lat="44.77499" lon="5.06373">
        <ele>607.21</ele>
        <time>2019-01-10T09:28:54Z</time>
      </trkpt>
      <trkpt lat="44.77497" lon="5.06373">
        <ele>607.21</ele>
        <time>2019-01-10T09:28:56Z</time>
      </trkpt>
      <trkpt lat="44.77495" lon="5.06374">
        <ele>607.21</ele>
        <time>2019-01-10T09:28:57Z</time>
      </trkpt>
      <trkpt lat="44.77494" lon="5.06375">
        <ele>607.21</ele>
        <time>2019-01-10T09:28:58Z</time>
      </trkpt>
      <trkpt lat="44.77492" lon="5.06375">
        <ele>607.21</ele>
        <time>2019-01-10T09:28:59Z</time>
      </trkpt>
      <trkpt lat="44.77491" lon="5.06375">
        <ele>606.73</ele>
        <time>2019-01-10T09:29:08Z</time>
      </trkpt>
      <trkpt lat="44.77491" lon="5.06375">
        <ele>607.21</ele>
        <time>2019-01-10T09:29:40Z</time>
      </trkpt>
      <trkpt lat="44.77491" lon="5.06375">
        <ele>606.73</ele>
        <time>2019-01-10T09:30:06Z</time>
      </trkpt>
      <trkpt lat="44.77492" lon="5.06376">
        <ele>606.73</ele>
        <time>2019-01-10T09:30:30Z</time>
      </trkpt>
      <trkpt lat="44.77492" lon="5.06377">
        <ele>606.73</ele>
        <time>2019-01-10T09:30:32Z</time>
      </trkpt>
      <trkpt lat="44.77495" lon="5.06377">
        <ele>606.25</ele>
        <time>2019-01-10T09:30:34Z</time>
      </trkpt>
      <trkpt lat="44.77496" lon="5.06375">
        <ele>606.73</ele>
        <time>2019-01-10T09:30:35Z</time>
      </trkpt>
      <trkpt lat="44.77497" lon="5.06373">
        <ele>606.73</ele>
        <time>2019-01-10T09:30:36Z</time>
      </trkpt>
      <trkpt lat="44.77498" lon="5.06366">
        <ele>607.21</ele>
        <time>2019-01-10T09:30:40Z</time>
      </trkpt>
      <trkpt lat="44.77498" lon="5.06363">
        <ele>607.21</ele>
        <time>2019-01-10T09:30:41Z</time>
      </trkpt>
      <trkpt lat="44.77485" lon="5.06324">
        <ele>605.29</ele>
        <time>2019-01-10T09:30:54Z</time>
      </trkpt>
      <trkpt lat="44.77485" lon="5.06318">
        <ele>605.29</ele>
        <time>2019-01-10T09:30:55Z</time>
      </trkpt>
      <trkpt lat="44.77485" lon="5.06291">
        <ele>603.85</ele>
        <time>2019-01-10T09:31:00Z</time>
      </trkpt>
      <trkpt lat="44.77486" lon="5.0628">
        <ele>602.88</ele>
        <time>2019-01-10T09:31:02Z</time>
      </trkpt>
      <trkpt lat="44.77487" lon="5.06274">
        <ele>601.92</ele>
        <time>2019-01-10T09:31:03Z</time>
      </trkpt>
      <trkpt lat="44.77488" lon="5.06268">
        <ele>601.44</ele>
        <time>2019-01-10T09:31:04Z</time>
      </trkpt>
      <trkpt lat="44.77489" lon="5.06263">
        <ele>600.96</ele>
        <time>2019-01-10T09:31:05Z</time>
      </trkpt>
      <trkpt lat="44.77489" lon="5.06259">
        <ele>600.96</ele>
        <time>2019-01-10T09:31:06Z</time>
      </trkpt>
      <trkpt lat="44.7749" lon="5.06254">
        <ele>600.48</ele>
        <time>2019-01-10T09:31:07Z</time>
      </trkpt>
      <trkpt lat="44.77493" lon="5.06237">
        <ele>596.64</ele>
        <time>2019-01-10T09:31:11Z</time>
      </trkpt>
      <trkpt lat="44.77495" lon="5.06231">
        <ele>595.19</ele>
        <time>2019-01-10T09:31:13Z</time>
      </trkpt>
      <trkpt lat="44.77496" lon="5.06228">
        <ele>594.23</ele>
        <time>2019-01-10T09:31:14Z</time>
      </trkpt>
      <trkpt lat="44.77497" lon="5.06225">
        <ele>593.75</ele>
        <time>2019-01-10T09:31:15Z</time>
      </trkpt>
      <trkpt lat="44.77502" lon="5.06212">
        <ele>590.39</ele>
        <time>2019-01-10T09:31:20Z</time>
      </trkpt>
      <trkpt lat="44.77503" lon="5.06209">
        <ele>589.43</ele>
        <time>2019-01-10T09:31:21Z</time>
      </trkpt>
      <trkpt lat="44.77503" lon="5.06206">
        <ele>588.95</ele>
        <time>2019-01-10T09:31:22Z</time>
      </trkpt>
      <trkpt lat="44.77505" lon="5.06204">
        <ele>588.46</ele>
        <time>2019-01-10T09:31:23Z</time>
      </trkpt>
      <trkpt lat="44.77506" lon="5.06202">
        <ele>587.98</ele>
        <time>2019-01-10T09:31:24Z</time>
      </trkpt>
      <trkpt lat="44.77506" lon="5.06199">
        <ele>587.02</ele>
        <time>2019-01-10T09:31:26Z</time>
      </trkpt>
      <trkpt lat="44.77507" lon="5.06197">
        <ele>586.54</ele>
        <time>2019-01-10T09:31:32Z</time>
      </trkpt>
      <trkpt lat="44.77509" lon="5.06195">
        <ele>586.06</ele>
        <time>2019-01-10T09:31:33Z</time>
      </trkpt>
      <trkpt lat="44.7751" lon="5.06193">
        <ele>584.62</ele>
        <time>2019-01-10T09:31:34Z</time>
      </trkpt>
      <trkpt lat="44.77511" lon="5.06191">
        <ele>584.62</ele>
        <time>2019-01-10T09:31:35Z</time>
      </trkpt>
      <trkpt lat="44.77512" lon="5.06188">
        <ele>584.14</ele>
        <time>2019-01-10T09:31:36Z</time>
      </trkpt>
      <trkpt lat="44.77512" lon="5.06185">
        <ele>583.18</ele>
        <time>2019-01-10T09:31:37Z</time>
      </trkpt>
      <trkpt lat="44.77513" lon="5.06182">
        <ele>582.7</ele>
        <time>2019-01-10T09:31:38Z</time>
      </trkpt>
      <trkpt lat="44.77514" lon="5.06181">
        <ele>582.7</ele>
        <time>2019-01-10T09:31:39Z</time>
      </trkpt>
      <trkpt lat="44.77515" lon="5.06177">
        <ele>581.73</ele>
        <time>2019-01-10T09:31:40Z</time>
      </trkpt>
      <trkpt lat="44.77515" lon="5.06174">
        <ele>580.77</ele>
        <time>2019-01-10T09:31:41Z</time>
      </trkpt>
      <trkpt lat="44.77516" lon="5.06171">
        <ele>579.81</ele>
        <time>2019-01-10T09:31:42Z</time>
      </trkpt>
      <trkpt lat="44.77517" lon="5.06153">
        <ele>576.45</ele>
        <time>2019-01-10T09:31:47Z</time>
      </trkpt>
      <trkpt lat="44.77518" lon="5.06149">
        <ele>575.97</ele>
        <time>2019-01-10T09:31:48Z</time>
      </trkpt>
      <trkpt lat="44.77519" lon="5.06146">
        <ele>575.01</ele>
        <time>2019-01-10T09:31:49Z</time>
      </trkpt>
      <trkpt lat="44.77519" lon="5.06143">
        <ele>574.53</ele>
        <time>2019-01-10T09:31:50Z</time>
      </trkpt>
      <trkpt lat="44.7752" lon="5.0614">
        <ele>574.04</ele>
        <time>2019-01-10T09:31:51Z</time>
      </trkpt>
      <trkpt lat="44.77522" lon="5.0613">
        <ele>572.12</ele>
        <time>2019-01-10T09:31:54Z</time>
      </trkpt>
      <trkpt lat="44.77522" lon="5.06127">
        <ele>571.16</ele>
        <time>2019-01-10T09:31:55Z</time>
      </trkpt>
      <trkpt lat="44.77523" lon="5.06125">
        <ele>570.68</ele>
        <time>2019-01-10T09:31:56Z</time>
      </trkpt>
      <trkpt lat="44.77525" lon="5.06123">
        <ele>570.2</ele>
        <time>2019-01-10T09:31:57Z</time>
      </trkpt>
      <trkpt lat="44.77525" lon="5.0612">
        <ele>570.2</ele>
        <time>2019-01-10T09:31:58Z</time>
      </trkpt>
      <trkpt lat="44.77524" lon="5.06118">
        <ele>569.24</ele>
        <time>2019-01-10T09:31:59Z</time>
      </trkpt>
      <trkpt lat="44.77524" lon="5.06116">
        <ele>568.28</ele>
        <time>2019-01-10T09:32:00Z</time>
      </trkpt>
      <trkpt lat="44.77524" lon="5.06113">
        <ele>567.32</ele>
        <time>2019-01-10T09:32:01Z</time>
      </trkpt>
      <trkpt lat="44.77524" lon="5.06109">
        <ele>566.35</ele>
        <time>2019-01-10T09:32:02Z</time>
      </trkpt>
      <trkpt lat="44.77525" lon="5.06105">
        <ele>565.39</ele>
        <time>2019-01-10T09:32:03Z</time>
      </trkpt>
      <trkpt lat="44.77525" lon="5.06102">
        <ele>564.91</ele>
        <time>2019-01-10T09:32:04Z</time>
      </trkpt>
      <trkpt lat="44.77525" lon="5.06098">
        <ele>564.43</ele>
        <time>2019-01-10T09:32:05Z</time>
      </trkpt>
      <trkpt lat="44.77525" lon="5.06093">
        <ele>563.47</ele>
        <time>2019-01-10T09:32:06Z</time>
      </trkpt>
      <trkpt lat="44.77526" lon="5.06088">
        <ele>562.99</ele>
        <time>2019-01-10T09:32:07Z</time>
      </trkpt>
      <trkpt lat="44.77527" lon="5.06083">
        <ele>562.51</ele>
        <time>2019-01-10T09:32:08Z</time>
      </trkpt>
      <trkpt lat="44.77527" lon="5.06078">
        <ele>562.03</ele>
        <time>2019-01-10T09:32:09Z</time>
      </trkpt>
      <trkpt lat="44.77527" lon="5.06075">
        <ele>561.55</ele>
        <time>2019-01-10T09:32:10Z</time>
      </trkpt>
      <trkpt lat="44.77526" lon="5.06062">
        <ele>559.62</ele>
        <time>2019-01-10T09:32:14Z</time>
      </trkpt>
      <trkpt lat="44.77525" lon="5.06059">
        <ele>559.14</ele>
        <time>2019-01-10T09:32:15Z</time>
      </trkpt>
      <trkpt lat="44.77525" lon="5.06056">
        <ele>558.66</ele>
        <time>2019-01-10T09:32:16Z</time>
      </trkpt>
      <trkpt lat="44.77524" lon="5.06053">
        <ele>558.18</ele>
        <time>2019-01-10T09:32:17Z</time>
      </trkpt>
      <trkpt lat="44.77524" lon="5.0605">
        <ele>557.7</ele>
        <time>2019-01-10T09:32:18Z</time>
      </trkpt>
      <trkpt lat="44.77523" lon="5.06047">
        <ele>557.22</ele>
        <time>2019-01-10T09:32:19Z</time>
      </trkpt>
      <trkpt lat="44.77522" lon="5.06043">
        <ele>557.22</ele>
        <time>2019-01-10T09:32:20Z</time>
      </trkpt>
      <trkpt lat="44.77519" lon="5.06034">
        <ele>555.78</ele>
        <time>2019-01-10T09:32:23Z</time>
      </trkpt>
      <trkpt lat="44.77515" lon="5.06017">
        <ele>552.41</ele>
        <time>2019-01-10T09:32:29Z</time>
      </trkpt>
      <trkpt lat="44.77513" lon="5.06011">
        <ele>551.93</ele>
        <time>2019-01-10T09:32:31Z</time>
      </trkpt>
      <trkpt lat="44.77512" lon="5.06009">
        <ele>551.93</ele>
        <time>2019-01-10T09:32:32Z</time>
      </trkpt>
      <trkpt lat="44.77512" lon="5.06006">
        <ele>551.93</ele>
        <time>2019-01-10T09:32:33Z</time>
      </trkpt>
      <trkpt lat="44.77511" lon="5.06003">
        <ele>551.45</ele>
        <time>2019-01-10T09:32:34Z</time>
      </trkpt>
      <trkpt lat="44.7751" lon="5.06002">
        <ele>550.97</ele>
        <time>2019-01-10T09:32:35Z</time>
      </trkpt>
      <trkpt lat="44.77508" lon="5.05999">
        <ele>550.01</ele>
        <time>2019-01-10T09:32:36Z</time>
      </trkpt>
      <trkpt lat="44.77507" lon="5.05997">
        <ele>549.53</ele>
        <time>2019-01-10T09:32:37Z</time>
      </trkpt>
      <trkpt lat="44.77504" lon="5.0598">
        <ele>548.09</ele>
        <time>2019-01-10T09:32:42Z</time>
      </trkpt>
      <trkpt lat="44.77505" lon="5.05977">
        <ele>547.61</ele>
        <time>2019-01-10T09:32:43Z</time>
      </trkpt>
      <trkpt lat="44.77505" lon="5.05973">
        <ele>547.13</ele>
        <time>2019-01-10T09:32:44Z</time>
      </trkpt>
      <trkpt lat="44.77505" lon="5.05969">
        <ele>546.65</ele>
        <time>2019-01-10T09:32:45Z</time>
      </trkpt>
      <trkpt lat="44.77505" lon="5.05966">
        <ele>546.65</ele>
        <time>2019-01-10T09:32:46Z</time>
      </trkpt>
      <trkpt lat="44.77504" lon="5.05961">
        <ele>545.69</ele>
        <time>2019-01-10T09:32:54Z</time>
      </trkpt>
      <trkpt lat="44.77504" lon="5.0596">
        <ele>545.69</ele>
        <time>2019-01-10T09:32:55Z</time>
      </trkpt>
      <trkpt lat="44.77504" lon="5.05957">
        <ele>545.2</ele>
        <time>2019-01-10T09:32:56Z</time>
      </trkpt>
      <trkpt lat="44.77503" lon="5.05951">
        <ele>545.2</ele>
        <time>2019-01-10T09:33:06Z</time>
      </trkpt>
      <trkpt lat="44.77503" lon="5.05948">
        <ele>545.2</ele>
        <time>2019-01-10T09:33:07Z</time>
      </trkpt>
      <trkpt lat="44.77502" lon="5.05945">
        <ele>545.2</ele>
        <time>2019-01-10T09:33:08Z</time>
      </trkpt>
      <trkpt lat="44.77502" lon="5.05942">
        <ele>544.24</ele>
        <time>2019-01-10T09:33:09Z</time>
      </trkpt>
      <trkpt lat="44.77502" lon="5.05938">
        <ele>544.24</ele>
        <time>2019-01-10T09:33:10Z</time>
      </trkpt>
      <trkpt lat="44.77502" lon="5.05934">
        <ele>544.24</ele>
        <time>2019-01-10T09:33:11Z</time>
      </trkpt>
      <trkpt lat="44.77501" lon="5.0593">
        <ele>543.76</ele>
        <time>2019-01-10T09:33:12Z</time>
      </trkpt>
      <trkpt lat="44.775" lon="5.05927">
        <ele>543.76</ele>
        <time>2019-01-10T09:33:13Z</time>
      </trkpt>
      <trkpt lat="44.77496" lon="5.05919">
        <ele>542.8</ele>
        <time>2019-01-10T09:33:16Z</time>
      </trkpt>
      <trkpt lat="44.77495" lon="5.05917">
        <ele>542.8</ele>
        <time>2019-01-10T09:33:17Z</time>
      </trkpt>
      <trkpt lat="44.77492" lon="5.05914">
        <ele>541.84</ele>
        <time>2019-01-10T09:33:18Z</time>
      </trkpt>
      <trkpt lat="44.7749" lon="5.05911">
        <ele>541.36</ele>
        <time>2019-01-10T09:33:19Z</time>
      </trkpt>
      <trkpt lat="44.77487" lon="5.05908">
        <ele>540.4</ele>
        <time>2019-01-10T09:33:20Z</time>
      </trkpt>
      <trkpt lat="44.77485" lon="5.05905">
        <ele>539.92</ele>
        <time>2019-01-10T09:33:21Z</time>
      </trkpt>
      <trkpt lat="44.77482" lon="5.05902">
        <ele>539.92</ele>
        <time>2019-01-10T09:33:22Z</time>
      </trkpt>
      <trkpt lat="44.7747" lon="5.05891">
        <ele>538.96</ele>
        <time>2019-01-10T09:33:26Z</time>
      </trkpt>
      <trkpt lat="44.77468" lon="5.05886">
        <ele>538.96</ele>
        <time>2019-01-10T09:33:27Z</time>
      </trkpt>
      <trkpt lat="44.77465" lon="5.05882">
        <ele>537.99</ele>
        <time>2019-01-10T09:33:28Z</time>
      </trkpt>
      <trkpt lat="44.77462" lon="5.05877">
        <ele>537.51</ele>
        <time>2019-01-10T09:33:29Z</time>
      </trkpt>
      <trkpt lat="44.7746" lon="5.05872">
        <ele>537.03</ele>
        <time>2019-01-10T09:33:30Z</time>
      </trkpt>
      <trkpt lat="44.77458" lon="5.05867">
        <ele>537.03</ele>
        <time>2019-01-10T09:33:31Z</time>
      </trkpt>
      <trkpt lat="44.77456" lon="5.05862">
        <ele>536.55</ele>
        <time>2019-01-10T09:33:32Z</time>
      </trkpt>
      <trkpt lat="44.7745" lon="5.05851">
        <ele>536.07</ele>
        <time>2019-01-10T09:33:34Z</time>
      </trkpt>
      <trkpt lat="44.77447" lon="5.05846">
        <ele>536.07</ele>
        <time>2019-01-10T09:33:35Z</time>
      </trkpt>
      <trkpt lat="44.77444" lon="5.0584">
        <ele>535.59</ele>
        <time>2019-01-10T09:33:36Z</time>
      </trkpt>
      <trkpt lat="44.77441" lon="5.05834">
        <ele>535.11</ele>
        <time>2019-01-10T09:33:37Z</time>
      </trkpt>
      <trkpt lat="44.77438" lon="5.05828">
        <ele>535.11</ele>
        <time>2019-01-10T09:33:38Z</time>
      </trkpt>
      <trkpt lat="44.77418" lon="5.05796">
        <ele>537.03</ele>
        <time>2019-01-10T09:33:46Z</time>
      </trkpt>
      <trkpt lat="44.77415" lon="5.05791">
        <ele>537.51</ele>
        <time>2019-01-10T09:33:47Z</time>
      </trkpt>
      <trkpt lat="44.77413" lon="5.05787">
        <ele>537.51</ele>
        <time>2019-01-10T09:33:48Z</time>
      </trkpt>
      <trkpt lat="44.77411" lon="5.05783">
        <ele>537.51</ele>
        <time>2019-01-10T09:33:49Z</time>
      </trkpt>
      <trkpt lat="44.77409" lon="5.0578">
        <ele>537.03</ele>
        <time>2019-01-10T09:33:50Z</time>
      </trkpt>
      <trkpt lat="44.77407" lon="5.05776">
        <ele>537.99</ele>
        <time>2019-01-10T09:33:51Z</time>
      </trkpt>
      <trkpt lat="44.77405" lon="5.05773">
        <ele>537.99</ele>
        <time>2019-01-10T09:33:52Z</time>
      </trkpt>
      <trkpt lat="44.77402" lon="5.05769">
        <ele>537.99</ele>
        <time>2019-01-10T09:33:53Z</time>
      </trkpt>
      <trkpt lat="44.77386" lon="5.05731">
        <ele>540.4</ele>
        <time>2019-01-10T09:34:03Z</time>
      </trkpt>
      <trkpt lat="44.77382" lon="5.05722">
        <ele>541.84</ele>
        <time>2019-01-10T09:34:06Z</time>
      </trkpt>
      <trkpt lat="44.7738" lon="5.05716">
        <ele>543.28</ele>
        <time>2019-01-10T09:34:10Z</time>
      </trkpt>
      <trkpt lat="44.77371" lon="5.05688">
        <ele>542.8</ele>
        <time>2019-01-10T09:34:20Z</time>
      </trkpt>
      <trkpt lat="44.77358" lon="5.05663">
        <ele>543.28</ele>
        <time>2019-01-10T09:34:27Z</time>
      </trkpt>
      <trkpt lat="44.77357" lon="5.05657">
        <ele>544.24</ele>
        <time>2019-01-10T09:34:29Z</time>
      </trkpt>
      <trkpt lat="44.77354" lon="5.05653">
        <ele>544.72</ele>
        <time>2019-01-10T09:34:31Z</time>
      </trkpt>
      <trkpt lat="44.77351" lon="5.05651">
        <ele>544.72</ele>
        <time>2019-01-10T09:34:32Z</time>
      </trkpt>
      <trkpt lat="44.77348" lon="5.05649">
        <ele>544.72</ele>
        <time>2019-01-10T09:34:33Z</time>
      </trkpt>
      <trkpt lat="44.77345" lon="5.05646">
        <ele>544.72</ele>
        <time>2019-01-10T09:34:34Z</time>
      </trkpt>
      <trkpt lat="44.77342" lon="5.05644">
        <ele>544.72</ele>
        <time>2019-01-10T09:34:35Z</time>
      </trkpt>
      <trkpt lat="44.77339" lon="5.05641">
        <ele>544.72</ele>
        <time>2019-01-10T09:34:36Z</time>
      </trkpt>
      <trkpt lat="44.77336" lon="5.05639">
        <ele>545.2</ele>
        <time>2019-01-10T09:34:37Z</time>
      </trkpt>
      <trkpt lat="44.77307" lon="5.05616">
        <ele>546.65</ele>
        <time>2019-01-10T09:34:48Z</time>
      </trkpt>
      <trkpt lat="44.77281" lon="5.0559">
        <ele>546.17</ele>
        <time>2019-01-10T09:34:58Z</time>
      </trkpt>
      <trkpt lat="44.77247" lon="5.05572">
        <ele>547.13</ele>
        <time>2019-01-10T09:35:09Z</time>
      </trkpt>
      <trkpt lat="44.77222" lon="5.05547">
        <ele>548.57</ele>
        <time>2019-01-10T09:35:18Z</time>
      </trkpt>
      <trkpt lat="44.77195" lon="5.05525">
        <ele>550.01</ele>
        <time>2019-01-10T09:35:29Z</time>
      </trkpt>
      <trkpt lat="44.77168" lon="5.05506">
        <ele>547.13</ele>
        <time>2019-01-10T09:35:37Z</time>
      </trkpt>
      <trkpt lat="44.77157" lon="5.05495">
        <ele>543.76</ele>
        <time>2019-01-10T09:35:40Z</time>
      </trkpt>
      <trkpt lat="44.77155" lon="5.05491">
        <ele>542.8</ele>
        <time>2019-01-10T09:35:41Z</time>
      </trkpt>
      <trkpt lat="44.77153" lon="5.05486">
        <ele>542.8</ele>
        <time>2019-01-10T09:35:42Z</time>
      </trkpt>
      <trkpt lat="44.77151" lon="5.05482">
        <ele>541.36</ele>
        <time>2019-01-10T09:35:43Z</time>
      </trkpt>
      <trkpt lat="44.77149" lon="5.0548">
        <ele>541.36</ele>
        <time>2019-01-10T09:35:44Z</time>
      </trkpt>
      <trkpt lat="44.77145" lon="5.05479">
        <ele>540.88</ele>
        <time>2019-01-10T09:35:45Z</time>
      </trkpt>
      <trkpt lat="44.77142" lon="5.05478">
        <ele>539.92</ele>
        <time>2019-01-10T09:35:46Z</time>
      </trkpt>
      <trkpt lat="44.7714" lon="5.05477">
        <ele>539.44</ele>
        <time>2019-01-10T09:35:47Z</time>
      </trkpt>
      <trkpt lat="44.77136" lon="5.05476">
        <ele>538.48</ele>
        <time>2019-01-10T09:35:48Z</time>
      </trkpt>
      <trkpt lat="44.77132" lon="5.05474">
        <ele>537.51</ele>
        <time>2019-01-10T09:35:49Z</time>
      </trkpt>
      <trkpt lat="44.77127" lon="5.05472">
        <ele>537.03</ele>
        <time>2019-01-10T09:35:50Z</time>
      </trkpt>
      <trkpt lat="44.77123" lon="5.05472">
        <ele>536.07</ele>
        <time>2019-01-10T09:35:51Z</time>
      </trkpt>
      <trkpt lat="44.77119" lon="5.05472">
        <ele>536.07</ele>
        <time>2019-01-10T09:35:52Z</time>
      </trkpt>
      <trkpt lat="44.77115" lon="5.05472">
        <ele>535.59</ele>
        <time>2019-01-10T09:35:53Z</time>
      </trkpt>
      <trkpt lat="44.77111" lon="5.05471">
        <ele>535.11</ele>
        <time>2019-01-10T09:35:54Z</time>
      </trkpt>
      <trkpt lat="44.77106" lon="5.05469">
        <ele>534.15</ele>
        <time>2019-01-10T09:35:55Z</time>
      </trkpt>
      <trkpt lat="44.77102" lon="5.05467">
        <ele>534.15</ele>
        <time>2019-01-10T09:35:56Z</time>
      </trkpt>
      <trkpt lat="44.77097" lon="5.05466">
        <ele>533.67</ele>
        <time>2019-01-10T09:35:57Z</time>
      </trkpt>
      <trkpt lat="44.77093" lon="5.05466">
        <ele>533.19</ele>
        <time>2019-01-10T09:35:58Z</time>
      </trkpt>
      <trkpt lat="44.77088" lon="5.05467">
        <ele>533.19</ele>
        <time>2019-01-10T09:35:59Z</time>
      </trkpt>
      <trkpt lat="44.77084" lon="5.05465">
        <ele>532.23</ele>
        <time>2019-01-10T09:36:00Z</time>
      </trkpt>
      <trkpt lat="44.7708" lon="5.05464">
        <ele>531.75</ele>
        <time>2019-01-10T09:36:01Z</time>
      </trkpt>
      <trkpt lat="44.77075" lon="5.05463">
        <ele>531.75</ele>
        <time>2019-01-10T09:36:02Z</time>
      </trkpt>
      <trkpt lat="44.77069" lon="5.05462">
        <ele>531.27</ele>
        <time>2019-01-10T09:36:03Z</time>
      </trkpt>
      <trkpt lat="44.77064" lon="5.05461">
        <ele>530.79</ele>
        <time>2019-01-10T09:36:04Z</time>
      </trkpt>
      <trkpt lat="44.77059" lon="5.0546">
        <ele>529.82</ele>
        <time>2019-01-10T09:36:05Z</time>
      </trkpt>
      <trkpt lat="44.77049" lon="5.05457">
        <ele>528.86</ele>
        <time>2019-01-10T09:36:07Z</time>
      </trkpt>
      <trkpt lat="44.77045" lon="5.05454">
        <ele>528.86</ele>
        <time>2019-01-10T09:36:08Z</time>
      </trkpt>
      <trkpt lat="44.77037" lon="5.05448">
        <ele>528.86</ele>
        <time>2019-01-10T09:36:10Z</time>
      </trkpt>
      <trkpt lat="44.77023" lon="5.05439">
        <ele>527.9</ele>
        <time>2019-01-10T09:36:14Z</time>
      </trkpt>
      <trkpt lat="44.77019" lon="5.05438">
        <ele>528.38</ele>
        <time>2019-01-10T09:36:15Z</time>
      </trkpt>
      <trkpt lat="44.77017" lon="5.05435">
        <ele>527.9</ele>
        <time>2019-01-10T09:36:16Z</time>
      </trkpt>
      <trkpt lat="44.77014" lon="5.05432">
        <ele>527.42</ele>
        <time>2019-01-10T09:36:17Z</time>
      </trkpt>
      <trkpt lat="44.77011" lon="5.05429">
        <ele>526.94</ele>
        <time>2019-01-10T09:36:18Z</time>
      </trkpt>
      <trkpt lat="44.77008" lon="5.05427">
        <ele>527.42</ele>
        <time>2019-01-10T09:36:19Z</time>
      </trkpt>
      <trkpt lat="44.77005" lon="5.05425">
        <ele>526.94</ele>
        <time>2019-01-10T09:36:20Z</time>
      </trkpt>
      <trkpt lat="44.77001" lon="5.05423">
        <ele>527.42</ele>
        <time>2019-01-10T09:36:21Z</time>
      </trkpt>
      <trkpt lat="44.76998" lon="5.0542">
        <ele>527.42</ele>
        <time>2019-01-10T09:36:22Z</time>
      </trkpt>
      <trkpt lat="44.76994" lon="5.05417">
        <ele>526.94</ele>
        <time>2019-01-10T09:36:23Z</time>
      </trkpt>
      <trkpt lat="44.7699" lon="5.05413">
        <ele>526.46</ele>
        <time>2019-01-10T09:36:24Z</time>
      </trkpt>
      <trkpt lat="44.76987" lon="5.05408">
        <ele>525.98</ele>
        <time>2019-01-10T09:36:25Z</time>
      </trkpt>
      <trkpt lat="44.76973" lon="5.05382">
        <ele>521.65</ele>
        <time>2019-01-10T09:36:29Z</time>
      </trkpt>
      <trkpt lat="44.76966" lon="5.0537">
        <ele>519.73</ele>
        <time>2019-01-10T09:36:31Z</time>
      </trkpt>
      <trkpt lat="44.76964" lon="5.05364">
        <ele>519.25</ele>
        <time>2019-01-10T09:36:32Z</time>
      </trkpt>
      <trkpt lat="44.76962" lon="5.05357">
        <ele>518.29</ele>
        <time>2019-01-10T09:36:33Z</time>
      </trkpt>
      <trkpt lat="44.76961" lon="5.0535">
        <ele>516.85</ele>
        <time>2019-01-10T09:36:34Z</time>
      </trkpt>
      <trkpt lat="44.76961" lon="5.05342">
        <ele>515.88</ele>
        <time>2019-01-10T09:36:35Z</time>
      </trkpt>
      <trkpt lat="44.76962" lon="5.05336">
        <ele>514.44</ele>
        <time>2019-01-10T09:36:36Z</time>
      </trkpt>
      <trkpt lat="44.76961" lon="5.05329">
        <ele>513.96</ele>
        <time>2019-01-10T09:36:37Z</time>
      </trkpt>
      <trkpt lat="44.76959" lon="5.05323">
        <ele>513.48</ele>
        <time>2019-01-10T09:36:38Z</time>
      </trkpt>
      <trkpt lat="44.76956" lon="5.05316">
        <ele>513</ele>
        <time>2019-01-10T09:36:39Z</time>
      </trkpt>
      <trkpt lat="44.76954" lon="5.0531">
        <ele>512.52</ele>
        <time>2019-01-10T09:36:40Z</time>
      </trkpt>
      <trkpt lat="44.76953" lon="5.05303">
        <ele>512.52</ele>
        <time>2019-01-10T09:36:41Z</time>
      </trkpt>
      <trkpt lat="44.76948" lon="5.05285">
        <ele>511.56</ele>
        <time>2019-01-10T09:36:44Z</time>
      </trkpt>
      <trkpt lat="44.76942" lon="5.05267">
        <ele>508.67</ele>
        <time>2019-01-10T09:36:47Z</time>
      </trkpt>
      <trkpt lat="44.7694" lon="5.05259">
        <ele>508.19</ele>
        <time>2019-01-10T09:36:48Z</time>
      </trkpt>
      <trkpt lat="44.76934" lon="5.05244">
        <ele>508.67</ele>
        <time>2019-01-10T09:36:50Z</time>
      </trkpt>
      <trkpt lat="44.7693" lon="5.05238">
        <ele>508.67</ele>
        <time>2019-01-10T09:36:51Z</time>
      </trkpt>
      <trkpt lat="44.76927" lon="5.05235">
        <ele>509.64</ele>
        <time>2019-01-10T09:36:52Z</time>
      </trkpt>
      <trkpt lat="44.76923" lon="5.05234">
        <ele>510.6</ele>
        <time>2019-01-10T09:36:53Z</time>
      </trkpt>
      <trkpt lat="44.76919" lon="5.05233">
        <ele>511.08</ele>
        <time>2019-01-10T09:36:54Z</time>
      </trkpt>
      <trkpt lat="44.76916" lon="5.05231">
        <ele>511.08</ele>
        <time>2019-01-10T09:36:55Z</time>
      </trkpt>
      <trkpt lat="44.76895" lon="5.05224">
        <ele>510.12</ele>
        <time>2019-01-10T09:37:00Z</time>
      </trkpt>
      <trkpt lat="44.76871" lon="5.05211">
        <ele>509.16</ele>
        <time>2019-01-10T09:37:06Z</time>
      </trkpt>
      <trkpt lat="44.76866" lon="5.05209">
        <ele>508.67</ele>
        <time>2019-01-10T09:37:07Z</time>
      </trkpt>
      <trkpt lat="44.76862" lon="5.05206">
        <ele>508.67</ele>
        <time>2019-01-10T09:37:08Z</time>
      </trkpt>
      <trkpt lat="44.76857" lon="5.05204">
        <ele>508.19</ele>
        <time>2019-01-10T09:37:09Z</time>
      </trkpt>
      <trkpt lat="44.76852" lon="5.05201">
        <ele>507.71</ele>
        <time>2019-01-10T09:37:10Z</time>
      </trkpt>
      <trkpt lat="44.76829" lon="5.05193">
        <ele>507.71</ele>
        <time>2019-01-10T09:37:15Z</time>
      </trkpt>
      <trkpt lat="44.76825" lon="5.0519">
        <ele>507.71</ele>
        <time>2019-01-10T09:37:16Z</time>
      </trkpt>
      <trkpt lat="44.76819" lon="5.05182">
        <ele>507.23</ele>
        <time>2019-01-10T09:37:18Z</time>
      </trkpt>
      <trkpt lat="44.76806" lon="5.0517">
        <ele>506.27</ele>
        <time>2019-01-10T09:37:21Z</time>
      </trkpt>
      <trkpt lat="44.76802" lon="5.05167">
        <ele>505.79</ele>
        <time>2019-01-10T09:37:22Z</time>
      </trkpt>
      <trkpt lat="44.76797" lon="5.05164">
        <ele>505.79</ele>
        <time>2019-01-10T09:37:23Z</time>
      </trkpt>
      <trkpt lat="44.76792" lon="5.05162">
        <ele>505.31</ele>
        <time>2019-01-10T09:37:24Z</time>
      </trkpt>
      <trkpt lat="44.76788" lon="5.05158">
        <ele>504.83</ele>
        <time>2019-01-10T09:37:25Z</time>
      </trkpt>
      <trkpt lat="44.76783" lon="5.05154">
        <ele>504.35</ele>
        <time>2019-01-10T09:37:26Z</time>
      </trkpt>
      <trkpt lat="44.76778" lon="5.0515">
        <ele>504.35</ele>
        <time>2019-01-10T09:37:27Z</time>
      </trkpt>
      <trkpt lat="44.76769" lon="5.05142">
        <ele>504.35</ele>
        <time>2019-01-10T09:37:29Z</time>
      </trkpt>
      <trkpt lat="44.76765" lon="5.05138">
        <ele>504.35</ele>
        <time>2019-01-10T09:37:30Z</time>
      </trkpt>
      <trkpt lat="44.76761" lon="5.05134">
        <ele>504.35</ele>
        <time>2019-01-10T09:37:31Z</time>
      </trkpt>
      <trkpt lat="44.76722" lon="5.051">
        <ele>506.27</ele>
        <time>2019-01-10T09:37:42Z</time>
      </trkpt>
      <trkpt lat="44.7671" lon="5.05083">
        <ele>508.67</ele>
        <time>2019-01-10T09:37:49Z</time>
      </trkpt>
      <trkpt lat="44.76703" lon="5.05078">
        <ele>508.67</ele>
        <time>2019-01-10T09:37:59Z</time>
      </trkpt>
      <trkpt lat="44.76701" lon="5.05075">
        <ele>508.19</ele>
        <time>2019-01-10T09:38:00Z</time>
      </trkpt>
      <trkpt lat="44.76696" lon="5.0507">
        <ele>506.75</ele>
        <time>2019-01-10T09:38:02Z</time>
      </trkpt>
      <trkpt lat="44.76691" lon="5.05066">
        <ele>505.79</ele>
        <time>2019-01-10T09:38:03Z</time>
      </trkpt>
      <trkpt lat="44.76687" lon="5.05063">
        <ele>504.83</ele>
        <time>2019-01-10T09:38:04Z</time>
      </trkpt>
      <trkpt lat="44.76682" lon="5.05061">
        <ele>504.35</ele>
        <time>2019-01-10T09:38:05Z</time>
      </trkpt>
      <trkpt lat="44.76677" lon="5.05058">
        <ele>503.87</ele>
        <time>2019-01-10T09:38:06Z</time>
      </trkpt>
      <trkpt lat="44.76667" lon="5.05052">
        <ele>502.43</ele>
        <time>2019-01-10T09:38:08Z</time>
      </trkpt>
      <trkpt lat="44.76657" lon="5.05045">
        <ele>501.95</ele>
        <time>2019-01-10T09:38:10Z</time>
      </trkpt>
      <trkpt lat="44.76652" lon="5.05043">
        <ele>500.98</ele>
        <time>2019-01-10T09:38:11Z</time>
      </trkpt>
      <trkpt lat="44.76647" lon="5.05041">
        <ele>500.02</ele>
        <time>2019-01-10T09:38:12Z</time>
      </trkpt>
      <trkpt lat="44.76642" lon="5.0504">
        <ele>498.58</ele>
        <time>2019-01-10T09:38:13Z</time>
      </trkpt>
      <trkpt lat="44.76636" lon="5.05039">
        <ele>498.1</ele>
        <time>2019-01-10T09:38:14Z</time>
      </trkpt>
      <trkpt lat="44.76619" lon="5.05038">
        <ele>496.66</ele>
        <time>2019-01-10T09:38:17Z</time>
      </trkpt>
      <trkpt lat="44.76614" lon="5.05037">
        <ele>496.18</ele>
        <time>2019-01-10T09:38:18Z</time>
      </trkpt>
      <trkpt lat="44.7661" lon="5.05035">
        <ele>496.18</ele>
        <time>2019-01-10T09:38:19Z</time>
      </trkpt>
      <trkpt lat="44.76604" lon="5.05033">
        <ele>495.7</ele>
        <time>2019-01-10T09:38:20Z</time>
      </trkpt>
      <trkpt lat="44.76599" lon="5.05031">
        <ele>495.7</ele>
        <time>2019-01-10T09:38:21Z</time>
      </trkpt>
      <trkpt lat="44.76593" lon="5.05029">
        <ele>495.7</ele>
        <time>2019-01-10T09:38:22Z</time>
      </trkpt>
      <trkpt lat="44.76587" lon="5.05027">
        <ele>495.22</ele>
        <time>2019-01-10T09:38:23Z</time>
      </trkpt>
      <trkpt lat="44.76582" lon="5.05025">
        <ele>495.22</ele>
        <time>2019-01-10T09:38:24Z</time>
      </trkpt>
      <trkpt lat="44.76577" lon="5.05024">
        <ele>495.22</ele>
        <time>2019-01-10T09:38:25Z</time>
      </trkpt>
      <trkpt lat="44.76572" lon="5.05022">
        <ele>495.22</ele>
        <time>2019-01-10T09:38:26Z</time>
      </trkpt>
      <trkpt lat="44.76567" lon="5.05021">
        <ele>495.22</ele>
        <time>2019-01-10T09:38:27Z</time>
      </trkpt>
      <trkpt lat="44.76556" lon="5.05018">
        <ele>494.74</ele>
        <time>2019-01-10T09:38:29Z</time>
      </trkpt>
      <trkpt lat="44.76551" lon="5.05017">
        <ele>494.74</ele>
        <time>2019-01-10T09:38:30Z</time>
      </trkpt>
      <trkpt lat="44.76546" lon="5.05015">
        <ele>494.26</ele>
        <time>2019-01-10T09:38:31Z</time>
      </trkpt>
      <trkpt lat="44.76532" lon="5.05013">
        <ele>494.26</ele>
        <time>2019-01-10T09:38:34Z</time>
      </trkpt>
      <trkpt lat="44.76526" lon="5.05012">
        <ele>493.77</ele>
        <time>2019-01-10T09:38:35Z</time>
      </trkpt>
      <trkpt lat="44.76516" lon="5.0501">
        <ele>492.81</ele>
        <time>2019-01-10T09:38:37Z</time>
      </trkpt>
      <trkpt lat="44.76501" lon="5.05011">
        <ele>490.41</ele>
        <time>2019-01-10T09:38:40Z</time>
      </trkpt>
      <trkpt lat="44.76496" lon="5.0501">
        <ele>489.45</ele>
        <time>2019-01-10T09:38:41Z</time>
      </trkpt>
      <trkpt lat="44.76491" lon="5.05008">
        <ele>488.97</ele>
        <time>2019-01-10T09:38:42Z</time>
      </trkpt>
      <trkpt lat="44.76482" lon="5.05005">
        <ele>487.53</ele>
        <time>2019-01-10T09:38:44Z</time>
      </trkpt>
      <trkpt lat="44.76477" lon="5.05005">
        <ele>486.56</ele>
        <time>2019-01-10T09:38:45Z</time>
      </trkpt>
      <trkpt lat="44.76471" lon="5.05005">
        <ele>486.08</ele>
        <time>2019-01-10T09:38:46Z</time>
      </trkpt>
      <trkpt lat="44.76467" lon="5.05004">
        <ele>485.6</ele>
        <time>2019-01-10T09:38:47Z</time>
      </trkpt>
      <trkpt lat="44.76462" lon="5.05003">
        <ele>485.6</ele>
        <time>2019-01-10T09:38:48Z</time>
      </trkpt>
      <trkpt lat="44.76457" lon="5.05002">
        <ele>484.16</ele>
        <time>2019-01-10T09:38:49Z</time>
      </trkpt>
      <trkpt lat="44.76452" lon="5.05002">
        <ele>483.2</ele>
        <time>2019-01-10T09:38:50Z</time>
      </trkpt>
      <trkpt lat="44.76447" lon="5.05001">
        <ele>482.72</ele>
        <time>2019-01-10T09:38:51Z</time>
      </trkpt>
      <trkpt lat="44.76441" lon="5.05001">
        <ele>482.24</ele>
        <time>2019-01-10T09:38:52Z</time>
      </trkpt>
      <trkpt lat="44.76436" lon="5.05002">
        <ele>481.28</ele>
        <time>2019-01-10T09:38:53Z</time>
      </trkpt>
      <trkpt lat="44.7643" lon="5.05003">
        <ele>481.28</ele>
        <time>2019-01-10T09:38:54Z</time>
      </trkpt>
      <trkpt lat="44.76424" lon="5.05003">
        <ele>480.32</ele>
        <time>2019-01-10T09:38:55Z</time>
      </trkpt>
      <trkpt lat="44.76415" lon="5.05005">
        <ele>479.84</ele>
        <time>2019-01-10T09:38:57Z</time>
      </trkpt>
      <trkpt lat="44.76406" lon="5.0501">
        <ele>478.87</ele>
        <time>2019-01-10T09:38:59Z</time>
      </trkpt>
      <trkpt lat="44.76395" lon="5.05011">
        <ele>476.95</ele>
        <time>2019-01-10T09:39:01Z</time>
      </trkpt>
      <trkpt lat="44.7639" lon="5.05011">
        <ele>476.47</ele>
        <time>2019-01-10T09:39:02Z</time>
      </trkpt>
      <trkpt lat="44.76358" lon="5.0501">
        <ele>473.11</ele>
        <time>2019-01-10T09:39:10Z</time>
      </trkpt>
      <trkpt lat="44.76353" lon="5.05008">
        <ele>472.14</ele>
        <time>2019-01-10T09:39:11Z</time>
      </trkpt>
      <trkpt lat="44.76349" lon="5.05006">
        <ele>471.18</ele>
        <time>2019-01-10T09:39:12Z</time>
      </trkpt>
      <trkpt lat="44.76345" lon="5.05003">
        <ele>471.18</ele>
        <time>2019-01-10T09:39:13Z</time>
      </trkpt>
      <trkpt lat="44.76341" lon="5.05">
        <ele>470.7</ele>
        <time>2019-01-10T09:39:14Z</time>
      </trkpt>
      <trkpt lat="44.76331" lon="5.04996">
        <ele>469.26</ele>
        <time>2019-01-10T09:39:17Z</time>
      </trkpt>
      <trkpt lat="44.76315" lon="5.04992">
        <ele>465.9</ele>
        <time>2019-01-10T09:39:21Z</time>
      </trkpt>
      <trkpt lat="44.7631" lon="5.04991">
        <ele>465.42</ele>
        <time>2019-01-10T09:39:22Z</time>
      </trkpt>
      <trkpt lat="44.76306" lon="5.04989">
        <ele>464.93</ele>
        <time>2019-01-10T09:39:23Z</time>
      </trkpt>
      <trkpt lat="44.76302" lon="5.04988">
        <ele>464.45</ele>
        <time>2019-01-10T09:39:24Z</time>
      </trkpt>
      <trkpt lat="44.76297" lon="5.04986">
        <ele>463.49</ele>
        <time>2019-01-10T09:39:25Z</time>
      </trkpt>
      <trkpt lat="44.76292" lon="5.04984">
        <ele>462.05</ele>
        <time>2019-01-10T09:39:26Z</time>
      </trkpt>
      <trkpt lat="44.7627" lon="5.04974">
        <ele>459.17</ele>
        <time>2019-01-10T09:39:30Z</time>
      </trkpt>
      <trkpt lat="44.76262" lon="5.04973">
        <ele>458.69</ele>
        <time>2019-01-10T09:39:32Z</time>
      </trkpt>
      <trkpt lat="44.76253" lon="5.04971">
        <ele>457.24</ele>
        <time>2019-01-10T09:39:34Z</time>
      </trkpt>
      <trkpt lat="44.76248" lon="5.04969">
        <ele>456.76</ele>
        <time>2019-01-10T09:39:35Z</time>
      </trkpt>
      <trkpt lat="44.76239" lon="5.04964">
        <ele>455.8</ele>
        <time>2019-01-10T09:39:37Z</time>
      </trkpt>
      <trkpt lat="44.76235" lon="5.04963">
        <ele>455.8</ele>
        <time>2019-01-10T09:39:38Z</time>
      </trkpt>
      <trkpt lat="44.76221" lon="5.04959">
        <ele>455.32</ele>
        <time>2019-01-10T09:39:41Z</time>
      </trkpt>
      <trkpt lat="44.76187" lon="5.04953">
        <ele>456.28</ele>
        <time>2019-01-10T09:39:51Z</time>
      </trkpt>
      <trkpt lat="44.76187" lon="5.04953">
        <ele>456.76</ele>
        <time>2019-01-10T09:40:10Z</time>
      </trkpt>
      <trkpt lat="44.76166" lon="5.0495">
        <ele>457.72</ele>
        <time>2019-01-10T09:40:21Z</time>
      </trkpt>
      <trkpt lat="44.76142" lon="5.04946">
        <ele>458.69</ele>
        <time>2019-01-10T09:40:31Z</time>
      </trkpt>
      <trkpt lat="44.76109" lon="5.04945">
        <ele>458.69</ele>
        <time>2019-01-10T09:40:40Z</time>
      </trkpt>
      <trkpt lat="44.76105" lon="5.04944">
        <ele>458.69</ele>
        <time>2019-01-10T09:40:41Z</time>
      </trkpt>
      <trkpt lat="44.76096" lon="5.0494">
        <ele>458.21</ele>
        <time>2019-01-10T09:40:43Z</time>
      </trkpt>
      <trkpt lat="44.76083" lon="5.04936">
        <ele>458.21</ele>
        <time>2019-01-10T09:40:46Z</time>
      </trkpt>
      <trkpt lat="44.76078" lon="5.04935">
        <ele>458.21</ele>
        <time>2019-01-10T09:40:47Z</time>
      </trkpt>
      <trkpt lat="44.76074" lon="5.04934">
        <ele>458.21</ele>
        <time>2019-01-10T09:40:48Z</time>
      </trkpt>
      <trkpt lat="44.76048" lon="5.04924">
        <ele>458.69</ele>
        <time>2019-01-10T09:40:54Z</time>
      </trkpt>
      <trkpt lat="44.76004" lon="5.04914">
        <ele>461.09</ele>
        <time>2019-01-10T09:41:06Z</time>
      </trkpt>
      <trkpt lat="44.75975" lon="5.04903">
        <ele>463.97</ele>
        <time>2019-01-10T09:41:17Z</time>
      </trkpt>
      <trkpt lat="44.75949" lon="5.0489">
        <ele>466.38</ele>
        <time>2019-01-10T09:41:28Z</time>
      </trkpt>
      <trkpt lat="44.75925" lon="5.04876">
        <ele>469.26</ele>
        <time>2019-01-10T09:41:39Z</time>
      </trkpt>
      <trkpt lat="44.75923" lon="5.04875">
        <ele>469.74</ele>
        <time>2019-01-10T09:41:40Z</time>
      </trkpt>
      <trkpt lat="44.75921" lon="5.04875">
        <ele>469.74</ele>
        <time>2019-01-10T09:41:41Z</time>
      </trkpt>
      <trkpt lat="44.7592" lon="5.04874">
        <ele>470.22</ele>
        <time>2019-01-10T09:41:42Z</time>
      </trkpt>
      <trkpt lat="44.75918" lon="5.04874">
        <ele>470.22</ele>
        <time>2019-01-10T09:41:43Z</time>
      </trkpt>
      <trkpt lat="44.75916" lon="5.04874">
        <ele>470.22</ele>
        <time>2019-01-10T09:41:44Z</time>
      </trkpt>
      <trkpt lat="44.75915" lon="5.04873">
        <ele>470.7</ele>
        <time>2019-01-10T09:41:45Z</time>
      </trkpt>
      <trkpt lat="44.75913" lon="5.04872">
        <ele>471.18</ele>
        <time>2019-01-10T09:41:46Z</time>
      </trkpt>
      <trkpt lat="44.75911" lon="5.04871">
        <ele>471.18</ele>
        <time>2019-01-10T09:41:47Z</time>
      </trkpt>
      <trkpt lat="44.75908" lon="5.04871">
        <ele>471.66</ele>
        <time>2019-01-10T09:41:48Z</time>
      </trkpt>
      <trkpt lat="44.75906" lon="5.0487">
        <ele>472.14</ele>
        <time>2019-01-10T09:41:49Z</time>
      </trkpt>
      <trkpt lat="44.75903" lon="5.04869">
        <ele>472.14</ele>
        <time>2019-01-10T09:41:50Z</time>
      </trkpt>
      <trkpt lat="44.75892" lon="5.04862">
        <ele>473.59</ele>
        <time>2019-01-10T09:41:56Z</time>
      </trkpt>
      <trkpt lat="44.75871" lon="5.04848">
        <ele>472.63</ele>
        <time>2019-01-10T09:42:07Z</time>
      </trkpt>
      <trkpt lat="44.75866" lon="5.04844">
        <ele>471.66</ele>
        <time>2019-01-10T09:42:09Z</time>
      </trkpt>
      <trkpt lat="44.75864" lon="5.0484">
        <ele>471.18</ele>
        <time>2019-01-10T09:42:10Z</time>
      </trkpt>
      <trkpt lat="44.75857" lon="5.04826">
        <ele>468.3</ele>
        <time>2019-01-10T09:42:13Z</time>
      </trkpt>
      <trkpt lat="44.75854" lon="5.04822">
        <ele>467.82</ele>
        <time>2019-01-10T09:42:14Z</time>
      </trkpt>
      <trkpt lat="44.7585" lon="5.04817">
        <ele>467.34</ele>
        <time>2019-01-10T09:42:15Z</time>
      </trkpt>
      <trkpt lat="44.75847" lon="5.04812">
        <ele>466.38</ele>
        <time>2019-01-10T09:42:16Z</time>
      </trkpt>
      <trkpt lat="44.75844" lon="5.04808">
        <ele>465.9</ele>
        <time>2019-01-10T09:42:17Z</time>
      </trkpt>
      <trkpt lat="44.75841" lon="5.04805">
        <ele>464.93</ele>
        <time>2019-01-10T09:42:18Z</time>
      </trkpt>
      <trkpt lat="44.75836" lon="5.04802">
        <ele>463.97</ele>
        <time>2019-01-10T09:42:19Z</time>
      </trkpt>
      <trkpt lat="44.75826" lon="5.04795">
        <ele>461.57</ele>
        <time>2019-01-10T09:42:21Z</time>
      </trkpt>
      <trkpt lat="44.75821" lon="5.04791">
        <ele>460.13</ele>
        <time>2019-01-10T09:42:22Z</time>
      </trkpt>
      <trkpt lat="44.75817" lon="5.04785">
        <ele>459.65</ele>
        <time>2019-01-10T09:42:23Z</time>
      </trkpt>
      <trkpt lat="44.75813" lon="5.04779">
        <ele>459.17</ele>
        <time>2019-01-10T09:42:24Z</time>
      </trkpt>
      <trkpt lat="44.75809" lon="5.04773">
        <ele>457.72</ele>
        <time>2019-01-10T09:42:25Z</time>
      </trkpt>
      <trkpt lat="44.75806" lon="5.04765">
        <ele>456.28</ele>
        <time>2019-01-10T09:42:26Z</time>
      </trkpt>
      <trkpt lat="44.75803" lon="5.04757">
        <ele>454.36</ele>
        <time>2019-01-10T09:42:27Z</time>
      </trkpt>
      <trkpt lat="44.75795" lon="5.04729">
        <ele>451.96</ele>
        <time>2019-01-10T09:42:30Z</time>
      </trkpt>
      <trkpt lat="44.75785" lon="5.04695">
        <ele>450.03</ele>
        <time>2019-01-10T09:42:34Z</time>
      </trkpt>
      <trkpt lat="44.75773" lon="5.04676">
        <ele>449.07</ele>
        <time>2019-01-10T09:42:37Z</time>
      </trkpt>
      <trkpt lat="44.75768" lon="5.04671">
        <ele>448.59</ele>
        <time>2019-01-10T09:42:38Z</time>
      </trkpt>
      <trkpt lat="44.75758" lon="5.04661">
        <ele>447.63</ele>
        <time>2019-01-10T09:42:40Z</time>
      </trkpt>
      <trkpt lat="44.75753" lon="5.04656">
        <ele>447.15</ele>
        <time>2019-01-10T09:42:41Z</time>
      </trkpt>
      <trkpt lat="44.75744" lon="5.04646">
        <ele>447.15</ele>
        <time>2019-01-10T09:42:43Z</time>
      </trkpt>
      <trkpt lat="44.75741" lon="5.0464">
        <ele>447.15</ele>
        <time>2019-01-10T09:42:44Z</time>
      </trkpt>
      <trkpt lat="44.75738" lon="5.04635">
        <ele>446.67</ele>
        <time>2019-01-10T09:42:45Z</time>
      </trkpt>
      <trkpt lat="44.75735" lon="5.04629">
        <ele>446.67</ele>
        <time>2019-01-10T09:42:46Z</time>
      </trkpt>
      <trkpt lat="44.75732" lon="5.04624">
        <ele>446.19</ele>
        <time>2019-01-10T09:42:47Z</time>
      </trkpt>
      <trkpt lat="44.75728" lon="5.04619">
        <ele>445.71</ele>
        <time>2019-01-10T09:42:48Z</time>
      </trkpt>
      <trkpt lat="44.75724" lon="5.04616">
        <ele>445.71</ele>
        <time>2019-01-10T09:42:49Z</time>
      </trkpt>
      <trkpt lat="44.7572" lon="5.04612">
        <ele>445.23</ele>
        <time>2019-01-10T09:42:50Z</time>
      </trkpt>
      <trkpt lat="44.75715" lon="5.04608">
        <ele>445.23</ele>
        <time>2019-01-10T09:42:51Z</time>
      </trkpt>
      <trkpt lat="44.7571" lon="5.04604">
        <ele>444.75</ele>
        <time>2019-01-10T09:42:52Z</time>
      </trkpt>
      <trkpt lat="44.757" lon="5.04598">
        <ele>442.82</ele>
        <time>2019-01-10T09:42:54Z</time>
      </trkpt>
      <trkpt lat="44.75695" lon="5.04597">
        <ele>442.34</ele>
        <time>2019-01-10T09:42:55Z</time>
      </trkpt>
      <trkpt lat="44.7569" lon="5.04596">
        <ele>441.86</ele>
        <time>2019-01-10T09:42:56Z</time>
      </trkpt>
      <trkpt lat="44.75686" lon="5.04593">
        <ele>441.86</ele>
        <time>2019-01-10T09:42:57Z</time>
      </trkpt>
      <trkpt lat="44.75683" lon="5.04588">
        <ele>441.86</ele>
        <time>2019-01-10T09:42:58Z</time>
      </trkpt>
      <trkpt lat="44.75676" lon="5.0458">
        <ele>440.9</ele>
        <time>2019-01-10T09:43:00Z</time>
      </trkpt>
      <trkpt lat="44.75671" lon="5.04576">
        <ele>440.42</ele>
        <time>2019-01-10T09:43:01Z</time>
      </trkpt>
      <trkpt lat="44.75642" lon="5.04566">
        <ele>436.58</ele>
        <time>2019-01-10T09:43:09Z</time>
      </trkpt>
      <trkpt lat="44.75635" lon="5.04564">
        <ele>434.17</ele>
        <time>2019-01-10T09:43:11Z</time>
      </trkpt>
      <trkpt lat="44.75621" lon="5.04559">
        <ele>431.77</ele>
        <time>2019-01-10T09:43:14Z</time>
      </trkpt>
      <trkpt lat="44.75596" lon="5.04554">
        <ele>427.92</ele>
        <time>2019-01-10T09:43:18Z</time>
      </trkpt>
      <trkpt lat="44.7559" lon="5.04552">
        <ele>427.44</ele>
        <time>2019-01-10T09:43:19Z</time>
      </trkpt>
      <trkpt lat="44.75571" lon="5.04548">
        <ele>425.52</ele>
        <time>2019-01-10T09:43:23Z</time>
      </trkpt>
      <trkpt lat="44.75567" lon="5.04548">
        <ele>425.52</ele>
        <time>2019-01-10T09:43:24Z</time>
      </trkpt>
      <trkpt lat="44.75563" lon="5.04548">
        <ele>425.04</ele>
        <time>2019-01-10T09:43:25Z</time>
      </trkpt>
      <trkpt lat="44.75558" lon="5.0455">
        <ele>424.08</ele>
        <time>2019-01-10T09:43:26Z</time>
      </trkpt>
      <trkpt lat="44.75554" lon="5.04553">
        <ele>423.6</ele>
        <time>2019-01-10T09:43:27Z</time>
      </trkpt>
      <trkpt lat="44.7555" lon="5.04557">
        <ele>422.64</ele>
        <time>2019-01-10T09:43:28Z</time>
      </trkpt>
      <trkpt lat="44.75545" lon="5.0456">
        <ele>421.68</ele>
        <time>2019-01-10T09:43:29Z</time>
      </trkpt>
      <trkpt lat="44.75539" lon="5.04562">
        <ele>420.23</ele>
        <time>2019-01-10T09:43:30Z</time>
      </trkpt>
      <trkpt lat="44.75533" lon="5.04563">
        <ele>418.79</ele>
        <time>2019-01-10T09:43:31Z</time>
      </trkpt>
      <trkpt lat="44.75527" lon="5.04563">
        <ele>417.35</ele>
        <time>2019-01-10T09:43:32Z</time>
      </trkpt>
      <trkpt lat="44.7552" lon="5.04563">
        <ele>416.39</ele>
        <time>2019-01-10T09:43:33Z</time>
      </trkpt>
      <trkpt lat="44.75514" lon="5.04565">
        <ele>414.47</ele>
        <time>2019-01-10T09:43:34Z</time>
      </trkpt>
      <trkpt lat="44.75508" lon="5.04568">
        <ele>413.98</ele>
        <time>2019-01-10T09:43:35Z</time>
      </trkpt>
      <trkpt lat="44.75489" lon="5.04579">
        <ele>412.54</ele>
        <time>2019-01-10T09:43:38Z</time>
      </trkpt>
      <trkpt lat="44.75483" lon="5.0458">
        <ele>412.06</ele>
        <time>2019-01-10T09:43:39Z</time>
      </trkpt>
      <trkpt lat="44.7545" lon="5.04588">
        <ele>408.7</ele>
        <time>2019-01-10T09:43:44Z</time>
      </trkpt>
      <trkpt lat="44.7543" lon="5.04594">
        <ele>404.85</ele>
        <time>2019-01-10T09:43:47Z</time>
      </trkpt>
      <trkpt lat="44.75422" lon="5.04595">
        <ele>403.89</ele>
        <time>2019-01-10T09:43:48Z</time>
      </trkpt>
      <trkpt lat="44.75415" lon="5.04596">
        <ele>402.45</ele>
        <time>2019-01-10T09:43:49Z</time>
      </trkpt>
      <trkpt lat="44.75408" lon="5.04599">
        <ele>401.97</ele>
        <time>2019-01-10T09:43:50Z</time>
      </trkpt>
      <trkpt lat="44.75402" lon="5.04602">
        <ele>401.49</ele>
        <time>2019-01-10T09:43:51Z</time>
      </trkpt>
      <trkpt lat="44.75397" lon="5.04607">
        <ele>401.01</ele>
        <time>2019-01-10T09:43:52Z</time>
      </trkpt>
      <trkpt lat="44.75392" lon="5.04613">
        <ele>400.53</ele>
        <time>2019-01-10T09:43:53Z</time>
      </trkpt>
      <trkpt lat="44.75387" lon="5.04617">
        <ele>400.05</ele>
        <time>2019-01-10T09:43:54Z</time>
      </trkpt>
      <trkpt lat="44.75382" lon="5.0462">
        <ele>400.05</ele>
        <time>2019-01-10T09:43:55Z</time>
      </trkpt>
      <trkpt lat="44.75376" lon="5.04622">
        <ele>400.05</ele>
        <time>2019-01-10T09:43:56Z</time>
      </trkpt>
      <trkpt lat="44.75342" lon="5.04627">
        <ele>397.16</ele>
        <time>2019-01-10T09:44:02Z</time>
      </trkpt>
      <trkpt lat="44.75336" lon="5.04629">
        <ele>397.16</ele>
        <time>2019-01-10T09:44:03Z</time>
      </trkpt>
      <trkpt lat="44.75323" lon="5.04631">
        <ele>397.16</ele>
        <time>2019-01-10T09:44:05Z</time>
      </trkpt>
      <trkpt lat="44.75318" lon="5.04632">
        <ele>396.68</ele>
        <time>2019-01-10T09:44:06Z</time>
      </trkpt>
      <trkpt lat="44.75313" lon="5.04636">
        <ele>396.2</ele>
        <time>2019-01-10T09:44:07Z</time>
      </trkpt>
      <trkpt lat="44.75308" lon="5.0464">
        <ele>396.2</ele>
        <time>2019-01-10T09:44:08Z</time>
      </trkpt>
      <trkpt lat="44.75302" lon="5.04644">
        <ele>395.72</ele>
        <time>2019-01-10T09:44:09Z</time>
      </trkpt>
      <trkpt lat="44.75296" lon="5.04648">
        <ele>394.76</ele>
        <time>2019-01-10T09:44:10Z</time>
      </trkpt>
      <trkpt lat="44.75285" lon="5.04656">
        <ele>393.8</ele>
        <time>2019-01-10T09:44:12Z</time>
      </trkpt>
      <trkpt lat="44.75274" lon="5.04661">
        <ele>392.84</ele>
        <time>2019-01-10T09:44:14Z</time>
      </trkpt>
      <trkpt lat="44.75269" lon="5.04665">
        <ele>392.84</ele>
        <time>2019-01-10T09:44:15Z</time>
      </trkpt>
      <trkpt lat="44.75261" lon="5.04676">
        <ele>391.87</ele>
        <time>2019-01-10T09:44:17Z</time>
      </trkpt>
      <trkpt lat="44.75257" lon="5.04681">
        <ele>391.39</ele>
        <time>2019-01-10T09:44:18Z</time>
      </trkpt>
      <trkpt lat="44.75236" lon="5.04699">
        <ele>389.95</ele>
        <time>2019-01-10T09:44:22Z</time>
      </trkpt>
      <trkpt lat="44.75225" lon="5.04705">
        <ele>389.47</ele>
        <time>2019-01-10T09:44:24Z</time>
      </trkpt>
      <trkpt lat="44.75213" lon="5.0471">
        <ele>388.03</ele>
        <time>2019-01-10T09:44:26Z</time>
      </trkpt>
      <trkpt lat="44.75206" lon="5.04711">
        <ele>387.55</ele>
        <time>2019-01-10T09:44:27Z</time>
      </trkpt>
      <trkpt lat="44.75199" lon="5.04711">
        <ele>386.59</ele>
        <time>2019-01-10T09:44:28Z</time>
      </trkpt>
      <trkpt lat="44.75193" lon="5.0471">
        <ele>386.11</ele>
        <time>2019-01-10T09:44:29Z</time>
      </trkpt>
      <trkpt lat="44.75186" lon="5.04708">
        <ele>385.63</ele>
        <time>2019-01-10T09:44:30Z</time>
      </trkpt>
      <trkpt lat="44.7518" lon="5.04706">
        <ele>385.15</ele>
        <time>2019-01-10T09:44:31Z</time>
      </trkpt>
      <trkpt lat="44.75154" lon="5.04698">
        <ele>383.22</ele>
        <time>2019-01-10T09:44:35Z</time>
      </trkpt>
      <trkpt lat="44.75148" lon="5.04696">
        <ele>382.26</ele>
        <time>2019-01-10T09:44:36Z</time>
      </trkpt>
      <trkpt lat="44.75142" lon="5.04696">
        <ele>382.26</ele>
        <time>2019-01-10T09:44:37Z</time>
      </trkpt>
      <trkpt lat="44.75135" lon="5.04697">
        <ele>382.26</ele>
        <time>2019-01-10T09:44:38Z</time>
      </trkpt>
      <trkpt lat="44.75129" lon="5.04698">
        <ele>381.78</ele>
        <time>2019-01-10T09:44:39Z</time>
      </trkpt>
      <trkpt lat="44.75087" lon="5.04709">
        <ele>380.82</ele>
        <time>2019-01-10T09:44:46Z</time>
      </trkpt>
      <trkpt lat="44.75081" lon="5.04712">
        <ele>380.34</ele>
        <time>2019-01-10T09:44:47Z</time>
      </trkpt>
      <trkpt lat="44.75076" lon="5.04715">
        <ele>380.34</ele>
        <time>2019-01-10T09:44:48Z</time>
      </trkpt>
      <trkpt lat="44.75065" lon="5.04722">
        <ele>380.34</ele>
        <time>2019-01-10T09:44:50Z</time>
      </trkpt>
      <trkpt lat="44.75019" lon="5.04748">
        <ele>379.86</ele>
        <time>2019-01-10T09:44:59Z</time>
      </trkpt>
      <trkpt lat="44.74998" lon="5.04757">
        <ele>383.22</ele>
        <time>2019-01-10T09:45:04Z</time>
      </trkpt>
      <trkpt lat="44.74986" lon="5.04759">
        <ele>386.11</ele>
        <time>2019-01-10T09:45:15Z</time>
      </trkpt>
      <trkpt lat="44.74985" lon="5.04759">
        <ele>386.11</ele>
        <time>2019-01-10T09:45:16Z</time>
      </trkpt>
      <trkpt lat="44.74975" lon="5.04765">
        <ele>386.59</ele>
        <time>2019-01-10T09:45:31Z</time>
      </trkpt>
      <trkpt lat="44.74948" lon="5.04786">
        <ele>383.7</ele>
        <time>2019-01-10T09:45:40Z</time>
      </trkpt>
      <trkpt lat="44.74943" lon="5.0479">
        <ele>383.7</ele>
        <time>2019-01-10T09:45:41Z</time>
      </trkpt>
      <trkpt lat="44.74933" lon="5.04797">
        <ele>382.26</ele>
        <time>2019-01-10T09:45:43Z</time>
      </trkpt>
      <trkpt lat="44.74928" lon="5.04799">
        <ele>382.26</ele>
        <time>2019-01-10T09:45:44Z</time>
      </trkpt>
      <trkpt lat="44.74907" lon="5.04805">
        <ele>382.26</ele>
        <time>2019-01-10T09:45:48Z</time>
      </trkpt>
      <trkpt lat="44.74897" lon="5.04806">
        <ele>381.78</ele>
        <time>2019-01-10T09:45:50Z</time>
      </trkpt>
      <trkpt lat="44.74866" lon="5.04805">
        <ele>383.22</ele>
        <time>2019-01-10T09:45:57Z</time>
      </trkpt>
      <trkpt lat="44.74861" lon="5.04806">
        <ele>383.22</ele>
        <time>2019-01-10T09:45:58Z</time>
      </trkpt>
      <trkpt lat="44.74856" lon="5.04807">
        <ele>383.22</ele>
        <time>2019-01-10T09:45:59Z</time>
      </trkpt>
      <trkpt lat="44.74841" lon="5.04809">
        <ele>383.22</ele>
        <time>2019-01-10T09:46:02Z</time>
      </trkpt>
      <trkpt lat="44.74796" lon="5.04811">
        <ele>380.34</ele>
        <time>2019-01-10T09:46:10Z</time>
      </trkpt>
      <trkpt lat="44.74791" lon="5.04811">
        <ele>380.34</ele>
        <time>2019-01-10T09:46:11Z</time>
      </trkpt>
      <trkpt lat="44.74785" lon="5.04811">
        <ele>380.34</ele>
        <time>2019-01-10T09:46:12Z</time>
      </trkpt>
      <trkpt lat="44.7478" lon="5.04812">
        <ele>379.86</ele>
        <time>2019-01-10T09:46:13Z</time>
      </trkpt>
      <trkpt lat="44.74775" lon="5.04811">
        <ele>379.86</ele>
        <time>2019-01-10T09:46:14Z</time>
      </trkpt>
      <trkpt lat="44.7477" lon="5.0481">
        <ele>379.86</ele>
        <time>2019-01-10T09:46:15Z</time>
      </trkpt>
      <trkpt lat="44.74764" lon="5.0481">
        <ele>379.86</ele>
        <time>2019-01-10T09:46:16Z</time>
      </trkpt>
      <trkpt lat="44.74759" lon="5.0481">
        <ele>379.38</ele>
        <time>2019-01-10T09:46:17Z</time>
      </trkpt>
      <trkpt lat="44.74749" lon="5.04809">
        <ele>378.9</ele>
        <time>2019-01-10T09:46:19Z</time>
      </trkpt>
      <trkpt lat="44.74743" lon="5.04809">
        <ele>378.9</ele>
        <time>2019-01-10T09:46:20Z</time>
      </trkpt>
      <trkpt lat="44.74738" lon="5.04809">
        <ele>378.9</ele>
        <time>2019-01-10T09:46:21Z</time>
      </trkpt>
      <trkpt lat="44.74726" lon="5.04809">
        <ele>377.94</ele>
        <time>2019-01-10T09:46:23Z</time>
      </trkpt>
      <trkpt lat="44.74721" lon="5.0481">
        <ele>377.94</ele>
        <time>2019-01-10T09:46:24Z</time>
      </trkpt>
      <trkpt lat="44.74715" lon="5.04811">
        <ele>377.45</ele>
        <time>2019-01-10T09:46:25Z</time>
      </trkpt>
      <trkpt lat="44.74702" lon="5.04811">
        <ele>376.49</ele>
        <time>2019-01-10T09:46:27Z</time>
      </trkpt>
      <trkpt lat="44.74695" lon="5.04809">
        <ele>376.01</ele>
        <time>2019-01-10T09:46:28Z</time>
      </trkpt>
      <trkpt lat="44.74688" lon="5.04808">
        <ele>375.53</ele>
        <time>2019-01-10T09:46:29Z</time>
      </trkpt>
      <trkpt lat="44.74674" lon="5.04807">
        <ele>374.09</ele>
        <time>2019-01-10T09:46:31Z</time>
      </trkpt>
      <trkpt lat="44.7466" lon="5.04804">
        <ele>373.13</ele>
        <time>2019-01-10T09:46:33Z</time>
      </trkpt>
      <trkpt lat="44.74652" lon="5.04802">
        <ele>372.65</ele>
        <time>2019-01-10T09:46:34Z</time>
      </trkpt>
      <trkpt lat="44.74644" lon="5.048">
        <ele>372.17</ele>
        <time>2019-01-10T09:46:35Z</time>
      </trkpt>
      <trkpt lat="44.74619" lon="5.04799">
        <ele>369.76</ele>
        <time>2019-01-10T09:46:38Z</time>
      </trkpt>
      <trkpt lat="44.74603" lon="5.04799">
        <ele>368.32</ele>
        <time>2019-01-10T09:46:40Z</time>
      </trkpt>
      <trkpt lat="44.74594" lon="5.04798">
        <ele>367.84</ele>
        <time>2019-01-10T09:46:41Z</time>
      </trkpt>
      <trkpt lat="44.74587" lon="5.04796">
        <ele>367.84</ele>
        <time>2019-01-10T09:46:42Z</time>
      </trkpt>
      <trkpt lat="44.74572" lon="5.04791">
        <ele>365.92</ele>
        <time>2019-01-10T09:46:44Z</time>
      </trkpt>
      <trkpt lat="44.74564" lon="5.0479">
        <ele>365.92</ele>
        <time>2019-01-10T09:46:45Z</time>
      </trkpt>
      <trkpt lat="44.74522" lon="5.04793">
        <ele>364</ele>
        <time>2019-01-10T09:46:51Z</time>
      </trkpt>
      <trkpt lat="44.74515" lon="5.04792">
        <ele>363.52</ele>
        <time>2019-01-10T09:46:52Z</time>
      </trkpt>
      <trkpt lat="44.74508" lon="5.04791">
        <ele>363.04</ele>
        <time>2019-01-10T09:46:53Z</time>
      </trkpt>
      <trkpt lat="44.74488" lon="5.04789">
        <ele>363.52</ele>
        <time>2019-01-10T09:46:56Z</time>
      </trkpt>
      <trkpt lat="44.74476" lon="5.04787">
        <ele>364.48</ele>
        <time>2019-01-10T09:46:58Z</time>
      </trkpt>
      <trkpt lat="44.74464" lon="5.04785">
        <ele>365.44</ele>
        <time>2019-01-10T09:47:00Z</time>
      </trkpt>
      <trkpt lat="44.74439" lon="5.04784">
        <ele>367.36</ele>
        <time>2019-01-10T09:47:05Z</time>
      </trkpt>
      <trkpt lat="44.7443" lon="5.04783">
        <ele>368.32</ele>
        <time>2019-01-10T09:47:07Z</time>
      </trkpt>
      <trkpt lat="44.74425" lon="5.04783">
        <ele>368.8</ele>
        <time>2019-01-10T09:47:08Z</time>
      </trkpt>
      <trkpt lat="44.7442" lon="5.04782">
        <ele>368.32</ele>
        <time>2019-01-10T09:47:09Z</time>
      </trkpt>
      <trkpt lat="44.74405" lon="5.04776">
        <ele>368.8</ele>
        <time>2019-01-10T09:47:12Z</time>
      </trkpt>
      <trkpt lat="44.74392" lon="5.04773">
        <ele>369.28</ele>
        <time>2019-01-10T09:47:15Z</time>
      </trkpt>
      <trkpt lat="44.74375" lon="5.04769">
        <ele>370.24</ele>
        <time>2019-01-10T09:47:19Z</time>
      </trkpt>
      <trkpt lat="44.74371" lon="5.04767">
        <ele>370.24</ele>
        <time>2019-01-10T09:47:20Z</time>
      </trkpt>
      <trkpt lat="44.74367" lon="5.04764">
        <ele>370.24</ele>
        <time>2019-01-10T09:47:21Z</time>
      </trkpt>
      <trkpt lat="44.74363" lon="5.04763">
        <ele>370.24</ele>
        <time>2019-01-10T09:47:22Z</time>
      </trkpt>
      <trkpt lat="44.74359" lon="5.04761">
        <ele>370.24</ele>
        <time>2019-01-10T09:47:23Z</time>
      </trkpt>
      <trkpt lat="44.74354" lon="5.04761">
        <ele>370.24</ele>
        <time>2019-01-10T09:47:24Z</time>
      </trkpt>
      <trkpt lat="44.74349" lon="5.04762">
        <ele>369.76</ele>
        <time>2019-01-10T09:47:25Z</time>
      </trkpt>
      <trkpt lat="44.74344" lon="5.04761">
        <ele>369.28</ele>
        <time>2019-01-10T09:47:26Z</time>
      </trkpt>
      <trkpt lat="44.74339" lon="5.0476">
        <ele>368.8</ele>
        <time>2019-01-10T09:47:27Z</time>
      </trkpt>
      <trkpt lat="44.74334" lon="5.0476">
        <ele>368.8</ele>
        <time>2019-01-10T09:47:28Z</time>
      </trkpt>
      <trkpt lat="44.74328" lon="5.04761">
        <ele>368.32</ele>
        <time>2019-01-10T09:47:29Z</time>
      </trkpt>
      <trkpt lat="44.74323" lon="5.04759">
        <ele>367.84</ele>
        <time>2019-01-10T09:47:30Z</time>
      </trkpt>
      <trkpt lat="44.74317" lon="5.04756">
        <ele>367.36</ele>
        <time>2019-01-10T09:47:31Z</time>
      </trkpt>
      <trkpt lat="44.74312" lon="5.04754">
        <ele>366.88</ele>
        <time>2019-01-10T09:47:32Z</time>
      </trkpt>
      <trkpt lat="44.74306" lon="5.04753">
        <ele>366.4</ele>
        <time>2019-01-10T09:47:33Z</time>
      </trkpt>
      <trkpt lat="44.743" lon="5.04751">
        <ele>365.92</ele>
        <time>2019-01-10T09:47:34Z</time>
      </trkpt>
      <trkpt lat="44.74295" lon="5.04748">
        <ele>365.44</ele>
        <time>2019-01-10T09:47:35Z</time>
      </trkpt>
      <trkpt lat="44.7429" lon="5.04744">
        <ele>365.44</ele>
        <time>2019-01-10T09:47:36Z</time>
      </trkpt>
      <trkpt lat="44.74286" lon="5.0474">
        <ele>364.48</ele>
        <time>2019-01-10T09:47:37Z</time>
      </trkpt>
      <trkpt lat="44.74281" lon="5.04736">
        <ele>364</ele>
        <time>2019-01-10T09:47:38Z</time>
      </trkpt>
      <trkpt lat="44.74275" lon="5.04731">
        <ele>363.52</ele>
        <time>2019-01-10T09:47:39Z</time>
      </trkpt>
      <trkpt lat="44.74264" lon="5.04724">
        <ele>362.55</ele>
        <time>2019-01-10T09:47:41Z</time>
      </trkpt>
      <trkpt lat="44.74259" lon="5.04722">
        <ele>361.59</ele>
        <time>2019-01-10T09:47:42Z</time>
      </trkpt>
      <trkpt lat="44.74255" lon="5.04721">
        <ele>360.15</ele>
        <time>2019-01-10T09:47:43Z</time>
      </trkpt>
      <trkpt lat="44.74251" lon="5.04721">
        <ele>359.67</ele>
        <time>2019-01-10T09:47:45Z</time>
      </trkpt>
      <trkpt lat="44.7424" lon="5.04714">
        <ele>357.75</ele>
        <time>2019-01-10T09:47:52Z</time>
      </trkpt>
      <trkpt lat="44.74237" lon="5.04704">
        <ele>357.27</ele>
        <time>2019-01-10T09:47:56Z</time>
      </trkpt>
      <trkpt lat="44.74227" lon="5.04691">
        <ele>355.34</ele>
        <time>2019-01-10T09:48:00Z</time>
      </trkpt>
      <trkpt lat="44.74215" lon="5.04679">
        <ele>350.06</ele>
        <time>2019-01-10T09:48:04Z</time>
      </trkpt>
      <trkpt lat="44.74211" lon="5.04675">
        <ele>349.1</ele>
        <time>2019-01-10T09:48:06Z</time>
      </trkpt>
      <trkpt lat="44.7421" lon="5.04674">
        <ele>348.13</ele>
        <time>2019-01-10T09:48:07Z</time>
      </trkpt>
      <trkpt lat="44.74211" lon="5.04667">
        <ele>344.77</ele>
        <time>2019-01-10T09:48:11Z</time>
      </trkpt>
      <trkpt lat="44.74212" lon="5.04663">
        <ele>343.33</ele>
        <time>2019-01-10T09:48:13Z</time>
      </trkpt>
      <trkpt lat="44.74207" lon="5.04654">
        <ele>339</ele>
        <time>2019-01-10T09:48:17Z</time>
      </trkpt>
      <trkpt lat="44.74205" lon="5.04648">
        <ele>337.56</ele>
        <time>2019-01-10T09:48:18Z</time>
      </trkpt>
      <trkpt lat="44.74204" lon="5.04639">
        <ele>335.16</ele>
        <time>2019-01-10T09:48:20Z</time>
      </trkpt>
      <trkpt lat="44.74197" lon="5.04625">
        <ele>331.31</ele>
        <time>2019-01-10T09:48:24Z</time>
      </trkpt>
      <trkpt lat="44.74195" lon="5.04621">
        <ele>330.83</ele>
        <time>2019-01-10T09:48:25Z</time>
      </trkpt>
      <trkpt lat="44.74191" lon="5.04598">
        <ele>326.5</ele>
        <time>2019-01-10T09:48:30Z</time>
      </trkpt>
      <trkpt lat="44.7419" lon="5.04588">
        <ele>324.58</ele>
        <time>2019-01-10T09:48:32Z</time>
      </trkpt>
      <trkpt lat="44.74194" lon="5.04577">
        <ele>322.18</ele>
        <time>2019-01-10T09:48:35Z</time>
      </trkpt>
      <trkpt lat="44.74195" lon="5.04576">
        <ele>323.62</ele>
        <time>2019-01-10T09:48:46Z</time>
      </trkpt>
      <trkpt lat="44.74196" lon="5.04574">
        <ele>322.66</ele>
        <time>2019-01-10T09:49:01Z</time>
      </trkpt>
      <trkpt lat="44.74201" lon="5.04556">
        <ele>318.81</ele>
        <time>2019-01-10T09:49:06Z</time>
      </trkpt>
      <trkpt lat="44.74201" lon="5.04551">
        <ele>317.37</ele>
        <time>2019-01-10T09:49:07Z</time>
      </trkpt>
      <trkpt lat="44.74198" lon="5.04543">
        <ele>314.97</ele>
        <time>2019-01-10T09:49:09Z</time>
      </trkpt>
      <trkpt lat="44.74195" lon="5.04542">
        <ele>314.49</ele>
        <time>2019-01-10T09:49:10Z</time>
      </trkpt>
      <trkpt lat="44.74192" lon="5.04542">
        <ele>314.01</ele>
        <time>2019-01-10T09:49:11Z</time>
      </trkpt>
      <trkpt lat="44.74188" lon="5.04543">
        <ele>313.53</ele>
        <time>2019-01-10T09:49:12Z</time>
      </trkpt>
      <trkpt lat="44.74185" lon="5.04544">
        <ele>313.53</ele>
        <time>2019-01-10T09:49:13Z</time>
      </trkpt>
      <trkpt lat="44.74179" lon="5.04544">
        <ele>313.53</ele>
        <time>2019-01-10T09:49:15Z</time>
      </trkpt>
      <trkpt lat="44.74171" lon="5.04538">
        <ele>313.53</ele>
        <time>2019-01-10T09:49:19Z</time>
      </trkpt>
      <trkpt lat="44.7417" lon="5.04536">
        <ele>313.05</ele>
        <time>2019-01-10T09:49:20Z</time>
      </trkpt>
      <trkpt lat="44.74172" lon="5.04531">
        <ele>311.6</ele>
        <time>2019-01-10T09:49:24Z</time>
      </trkpt>
      <trkpt lat="44.74174" lon="5.04531">
        <ele>311.12</ele>
        <time>2019-01-10T09:49:25Z</time>
      </trkpt>
      <trkpt lat="44.74176" lon="5.04531">
        <ele>310.64</ele>
        <time>2019-01-10T09:49:26Z</time>
      </trkpt>
      <trkpt lat="44.74179" lon="5.0453">
        <ele>309.68</ele>
        <time>2019-01-10T09:49:27Z</time>
      </trkpt>
      <trkpt lat="44.74182" lon="5.04529">
        <ele>309.68</ele>
        <time>2019-01-10T09:49:28Z</time>
      </trkpt>
      <trkpt lat="44.74193" lon="5.04523">
        <ele>307.76</ele>
        <time>2019-01-10T09:49:31Z</time>
      </trkpt>
      <trkpt lat="44.74196" lon="5.04519">
        <ele>306.8</ele>
        <time>2019-01-10T09:49:32Z</time>
      </trkpt>
      <trkpt lat="44.74199" lon="5.04515">
        <ele>306.32</ele>
        <time>2019-01-10T09:49:33Z</time>
      </trkpt>
      <trkpt lat="44.74209" lon="5.04507">
        <ele>304.39</ele>
        <time>2019-01-10T09:49:36Z</time>
      </trkpt>
      <trkpt lat="44.74213" lon="5.04505">
        <ele>303.43</ele>
        <time>2019-01-10T09:49:37Z</time>
      </trkpt>
      <trkpt lat="44.74217" lon="5.04504">
        <ele>302.47</ele>
        <time>2019-01-10T09:49:38Z</time>
      </trkpt>
      <trkpt lat="44.7422" lon="5.04503">
        <ele>302.47</ele>
        <time>2019-01-10T09:49:39Z</time>
      </trkpt>
      <trkpt lat="44.74222" lon="5.04501">
        <ele>301.99</ele>
        <time>2019-01-10T09:49:40Z</time>
      </trkpt>
      <trkpt lat="44.74225" lon="5.04498">
        <ele>301.51</ele>
        <time>2019-01-10T09:49:41Z</time>
      </trkpt>
      <trkpt lat="44.74227" lon="5.04495">
        <ele>300.07</ele>
        <time>2019-01-10T09:49:42Z</time>
      </trkpt>
      <trkpt lat="44.74227" lon="5.04491">
        <ele>299.59</ele>
        <time>2019-01-10T09:49:43Z</time>
      </trkpt>
      <trkpt lat="44.74226" lon="5.04489">
        <ele>299.59</ele>
        <time>2019-01-10T09:49:44Z</time>
      </trkpt>
      <trkpt lat="44.74226" lon="5.04487">
        <ele>299.11</ele>
        <time>2019-01-10T09:49:45Z</time>
      </trkpt>
      <trkpt lat="44.74222" lon="5.04478">
        <ele>296.7</ele>
        <time>2019-01-10T09:49:49Z</time>
      </trkpt>
      <trkpt lat="44.74222" lon="5.04475">
        <ele>296.22</ele>
        <time>2019-01-10T09:49:50Z</time>
      </trkpt>
      <trkpt lat="44.74222" lon="5.04471">
        <ele>295.74</ele>
        <time>2019-01-10T09:49:51Z</time>
      </trkpt>
      <trkpt lat="44.74222" lon="5.04467">
        <ele>295.26</ele>
        <time>2019-01-10T09:49:52Z</time>
      </trkpt>
      <trkpt lat="44.74221" lon="5.04463">
        <ele>294.78</ele>
        <time>2019-01-10T09:49:53Z</time>
      </trkpt>
      <trkpt lat="44.74221" lon="5.04458">
        <ele>293.82</ele>
        <time>2019-01-10T09:49:54Z</time>
      </trkpt>
      <trkpt lat="44.74222" lon="5.04454">
        <ele>292.86</ele>
        <time>2019-01-10T09:49:55Z</time>
      </trkpt>
      <trkpt lat="44.74224" lon="5.04451">
        <ele>291.9</ele>
        <time>2019-01-10T09:49:56Z</time>
      </trkpt>
      <trkpt lat="44.74227" lon="5.0445">
        <ele>290.94</ele>
        <time>2019-01-10T09:49:57Z</time>
      </trkpt>
      <trkpt lat="44.74229" lon="5.04451">
        <ele>291.42</ele>
        <time>2019-01-10T09:49:58Z</time>
      </trkpt>
      <trkpt lat="44.74232" lon="5.04452">
        <ele>290.94</ele>
        <time>2019-01-10T09:49:59Z</time>
      </trkpt>
      <trkpt lat="44.74235" lon="5.04454">
        <ele>290.46</ele>
        <time>2019-01-10T09:50:00Z</time>
      </trkpt>
      <trkpt lat="44.74237" lon="5.04454">
        <ele>289.97</ele>
        <time>2019-01-10T09:50:01Z</time>
      </trkpt>
      <trkpt lat="44.74239" lon="5.04454">
        <ele>289.97</ele>
        <time>2019-01-10T09:50:02Z</time>
      </trkpt>
      <trkpt lat="44.74242" lon="5.04453">
        <ele>289.01</ele>
        <time>2019-01-10T09:50:03Z</time>
      </trkpt>
      <trkpt lat="44.74245" lon="5.04451">
        <ele>288.53</ele>
        <time>2019-01-10T09:50:04Z</time>
      </trkpt>
      <trkpt lat="44.74248" lon="5.0445">
        <ele>288.05</ele>
        <time>2019-01-10T09:50:05Z</time>
      </trkpt>
      <trkpt lat="44.74252" lon="5.04448">
        <ele>287.57</ele>
        <time>2019-01-10T09:50:06Z</time>
      </trkpt>
      <trkpt lat="44.74255" lon="5.04447">
        <ele>287.57</ele>
        <time>2019-01-10T09:50:07Z</time>
      </trkpt>
      <trkpt lat="44.74264" lon="5.04444">
        <ele>286.13</ele>
        <time>2019-01-10T09:50:10Z</time>
      </trkpt>
      <trkpt lat="44.74265" lon="5.04442">
        <ele>285.65</ele>
        <time>2019-01-10T09:50:11Z</time>
      </trkpt>
      <trkpt lat="44.74264" lon="5.0444">
        <ele>285.65</ele>
        <time>2019-01-10T09:50:12Z</time>
      </trkpt>
      <trkpt lat="44.74262" lon="5.04437">
        <ele>285.65</ele>
        <time>2019-01-10T09:50:13Z</time>
      </trkpt>
      <trkpt lat="44.74259" lon="5.04436">
        <ele>284.21</ele>
        <time>2019-01-10T09:50:14Z</time>
      </trkpt>
      <trkpt lat="44.74256" lon="5.04433">
        <ele>283.73</ele>
        <time>2019-01-10T09:50:15Z</time>
      </trkpt>
      <trkpt lat="44.74252" lon="5.04431">
        <ele>283.73</ele>
        <time>2019-01-10T09:50:16Z</time>
      </trkpt>
      <trkpt lat="44.74249" lon="5.0443">
        <ele>283.25</ele>
        <time>2019-01-10T09:50:17Z</time>
      </trkpt>
      <trkpt lat="44.74236" lon="5.04416">
        <ele>280.36</ele>
        <time>2019-01-10T09:50:23Z</time>
      </trkpt>
      <trkpt lat="44.74236" lon="5.04414">
        <ele>279.88</ele>
        <time>2019-01-10T09:50:24Z</time>
      </trkpt>
      <trkpt lat="44.74236" lon="5.04411">
        <ele>279.4</ele>
        <time>2019-01-10T09:50:25Z</time>
      </trkpt>
      <trkpt lat="44.74235" lon="5.04407">
        <ele>278.92</ele>
        <time>2019-01-10T09:50:26Z</time>
      </trkpt>
      <trkpt lat="44.74235" lon="5.04403">
        <ele>277.48</ele>
        <time>2019-01-10T09:50:27Z</time>
      </trkpt>
      <trkpt lat="44.74234" lon="5.04399">
        <ele>277</ele>
        <time>2019-01-10T09:50:28Z</time>
      </trkpt>
      <trkpt lat="44.74231" lon="5.04396">
        <ele>276.52</ele>
        <time>2019-01-10T09:50:29Z</time>
      </trkpt>
      <trkpt lat="44.74228" lon="5.04394">
        <ele>275.56</ele>
        <time>2019-01-10T09:50:30Z</time>
      </trkpt>
      <trkpt lat="44.74226" lon="5.04392">
        <ele>275.07</ele>
        <time>2019-01-10T09:50:31Z</time>
      </trkpt>
      <trkpt lat="44.74223" lon="5.04391">
        <ele>274.59</ele>
        <time>2019-01-10T09:50:32Z</time>
      </trkpt>
      <trkpt lat="44.7422" lon="5.04389">
        <ele>274.11</ele>
        <time>2019-01-10T09:50:33Z</time>
      </trkpt>
      <trkpt lat="44.74218" lon="5.04388">
        <ele>273.63</ele>
        <time>2019-01-10T09:50:34Z</time>
      </trkpt>
      <trkpt lat="44.74211" lon="5.04383">
        <ele>272.67</ele>
        <time>2019-01-10T09:50:37Z</time>
      </trkpt>
      <trkpt lat="44.74209" lon="5.0438">
        <ele>272.19</ele>
        <time>2019-01-10T09:50:38Z</time>
      </trkpt>
      <trkpt lat="44.74207" lon="5.04378">
        <ele>272.19</ele>
        <time>2019-01-10T09:50:39Z</time>
      </trkpt>
      <trkpt lat="44.74191" lon="5.04371">
        <ele>268.83</ele>
        <time>2019-01-10T09:50:43Z</time>
      </trkpt>
      <trkpt lat="44.74157" lon="5.04367">
        <ele>266.9</ele>
        <time>2019-01-10T09:50:52Z</time>
      </trkpt>
      <trkpt lat="44.74154" lon="5.04366">
        <ele>265.94</ele>
        <time>2019-01-10T09:50:53Z</time>
      </trkpt>
      <trkpt lat="44.74151" lon="5.04366">
        <ele>265.46</ele>
        <time>2019-01-10T09:50:54Z</time>
      </trkpt>
      <trkpt lat="44.74149" lon="5.04365">
        <ele>264.98</ele>
        <time>2019-01-10T09:50:55Z</time>
      </trkpt>
      <trkpt lat="44.74148" lon="5.04363">
        <ele>264.5</ele>
        <time>2019-01-10T09:50:56Z</time>
      </trkpt>
      <trkpt lat="44.74146" lon="5.04362">
        <ele>264.02</ele>
        <time>2019-01-10T09:50:57Z</time>
      </trkpt>
      <trkpt lat="44.74144" lon="5.04362">
        <ele>263.54</ele>
        <time>2019-01-10T09:50:58Z</time>
      </trkpt>
      <trkpt lat="44.74141" lon="5.04361">
        <ele>263.54</ele>
        <time>2019-01-10T09:50:59Z</time>
      </trkpt>
      <trkpt lat="44.74138" lon="5.04358">
        <ele>263.06</ele>
        <time>2019-01-10T09:51:00Z</time>
      </trkpt>
      <trkpt lat="44.74135" lon="5.04356">
        <ele>262.1</ele>
        <time>2019-01-10T09:51:01Z</time>
      </trkpt>
      <trkpt lat="44.7413" lon="5.04354">
        <ele>261.62</ele>
        <time>2019-01-10T09:51:02Z</time>
      </trkpt>
      <trkpt lat="44.74126" lon="5.04353">
        <ele>260.65</ele>
        <time>2019-01-10T09:51:03Z</time>
      </trkpt>
      <trkpt lat="44.74122" lon="5.04352">
        <ele>260.17</ele>
        <time>2019-01-10T09:51:04Z</time>
      </trkpt>
      <trkpt lat="44.74117" lon="5.04351">
        <ele>259.69</ele>
        <time>2019-01-10T09:51:05Z</time>
      </trkpt>
      <trkpt lat="44.74113" lon="5.04351">
        <ele>259.21</ele>
        <time>2019-01-10T09:51:06Z</time>
      </trkpt>
      <trkpt lat="44.7411" lon="5.0435">
        <ele>258.73</ele>
        <time>2019-01-10T09:51:07Z</time>
      </trkpt>
      <trkpt lat="44.74107" lon="5.04349">
        <ele>258.25</ele>
        <time>2019-01-10T09:51:08Z</time>
      </trkpt>
      <trkpt lat="44.74104" lon="5.04349">
        <ele>258.25</ele>
        <time>2019-01-10T09:51:09Z</time>
      </trkpt>
      <trkpt lat="44.74102" lon="5.04348">
        <ele>257.77</ele>
        <time>2019-01-10T09:51:10Z</time>
      </trkpt>
      <trkpt lat="44.74088" lon="5.04347">
        <ele>256.33</ele>
        <time>2019-01-10T09:51:16Z</time>
      </trkpt>
      <trkpt lat="44.74084" lon="5.04347">
        <ele>255.85</ele>
        <time>2019-01-10T09:51:17Z</time>
      </trkpt>
      <trkpt lat="44.74079" lon="5.04348">
        <ele>255.37</ele>
        <time>2019-01-10T09:51:18Z</time>
      </trkpt>
      <trkpt lat="44.74074" lon="5.04348">
        <ele>254.89</ele>
        <time>2019-01-10T09:51:19Z</time>
      </trkpt>
      <trkpt lat="44.7407" lon="5.04347">
        <ele>254.41</ele>
        <time>2019-01-10T09:51:20Z</time>
      </trkpt>
      <trkpt lat="44.74051" lon="5.04339">
        <ele>251.52</ele>
        <time>2019-01-10T09:51:25Z</time>
      </trkpt>
      <trkpt lat="44.74049" lon="5.04336">
        <ele>250.56</ele>
        <time>2019-01-10T09:51:26Z</time>
      </trkpt>
      <trkpt lat="44.74049" lon="5.04333">
        <ele>250.56</ele>
        <time>2019-01-10T09:51:27Z</time>
      </trkpt>
      <trkpt lat="44.74049" lon="5.0433">
        <ele>249.12</ele>
        <time>2019-01-10T09:51:28Z</time>
      </trkpt>
      <trkpt lat="44.7405" lon="5.04327">
        <ele>248.64</ele>
        <time>2019-01-10T09:51:29Z</time>
      </trkpt>
      <trkpt lat="44.74051" lon="5.04325">
        <ele>248.16</ele>
        <time>2019-01-10T09:51:30Z</time>
      </trkpt>
      <trkpt lat="44.74053" lon="5.04323">
        <ele>247.68</ele>
        <time>2019-01-10T09:51:31Z</time>
      </trkpt>
      <trkpt lat="44.74055" lon="5.04321">
        <ele>247.2</ele>
        <time>2019-01-10T09:51:32Z</time>
      </trkpt>
      <trkpt lat="44.74057" lon="5.04318">
        <ele>246.72</ele>
        <time>2019-01-10T09:51:33Z</time>
      </trkpt>
      <trkpt lat="44.74059" lon="5.04316">
        <ele>246.23</ele>
        <time>2019-01-10T09:51:34Z</time>
      </trkpt>
      <trkpt lat="44.74062" lon="5.04314">
        <ele>245.27</ele>
        <time>2019-01-10T09:51:35Z</time>
      </trkpt>
      <trkpt lat="44.74064" lon="5.04312">
        <ele>245.27</ele>
        <time>2019-01-10T09:51:36Z</time>
      </trkpt>
      <trkpt lat="44.74065" lon="5.0431">
        <ele>244.79</ele>
        <time>2019-01-10T09:51:37Z</time>
      </trkpt>
      <trkpt lat="44.74067" lon="5.04308">
        <ele>243.83</ele>
        <time>2019-01-10T09:51:38Z</time>
      </trkpt>
      <trkpt lat="44.7408" lon="5.04297">
        <ele>241.91</ele>
        <time>2019-01-10T09:51:43Z</time>
      </trkpt>
      <trkpt lat="44.74081" lon="5.04294">
        <ele>241.43</ele>
        <time>2019-01-10T09:51:44Z</time>
      </trkpt>
      <trkpt lat="44.74083" lon="5.04292">
        <ele>240.95</ele>
        <time>2019-01-10T09:51:45Z</time>
      </trkpt>
      <trkpt lat="44.74084" lon="5.04291">
        <ele>240.47</ele>
        <time>2019-01-10T09:51:46Z</time>
      </trkpt>
      <trkpt lat="44.74086" lon="5.0429">
        <ele>239.99</ele>
        <time>2019-01-10T09:51:47Z</time>
      </trkpt>
      <trkpt lat="44.74088" lon="5.04288">
        <ele>239.51</ele>
        <time>2019-01-10T09:51:48Z</time>
      </trkpt>
      <trkpt lat="44.7409" lon="5.04285">
        <ele>238.54</ele>
        <time>2019-01-10T09:51:49Z</time>
      </trkpt>
      <trkpt lat="44.74092" lon="5.04283">
        <ele>238.06</ele>
        <time>2019-01-10T09:51:50Z</time>
      </trkpt>
      <trkpt lat="44.74092" lon="5.04279">
        <ele>237.58</ele>
        <time>2019-01-10T09:51:51Z</time>
      </trkpt>
      <trkpt lat="44.74091" lon="5.04275">
        <ele>237.58</ele>
        <time>2019-01-10T09:51:52Z</time>
      </trkpt>
      <trkpt lat="44.74089" lon="5.04271">
        <ele>237.58</ele>
        <time>2019-01-10T09:51:53Z</time>
      </trkpt>
      <trkpt lat="44.74088" lon="5.04269">
        <ele>236.14</ele>
        <time>2019-01-10T09:51:54Z</time>
      </trkpt>
      <trkpt lat="44.74078" lon="5.04257">
        <ele>235.18</ele>
        <time>2019-01-10T09:52:03Z</time>
      </trkpt>
      <trkpt lat="44.74075" lon="5.04256">
        <ele>236.14</ele>
        <time>2019-01-10T09:52:15Z</time>
      </trkpt>
      <trkpt lat="44.74068" lon="5.04253">
        <ele>235.66</ele>
        <time>2019-01-10T09:52:30Z</time>
      </trkpt>
      <trkpt lat="44.74067" lon="5.04253">
        <ele>236.62</ele>
        <time>2019-01-10T09:52:42Z</time>
      </trkpt>
      <trkpt lat="44.7406" lon="5.04253">
        <ele>237.1</ele>
        <time>2019-01-10T09:52:53Z</time>
      </trkpt>
      <trkpt lat="44.7404" lon="5.04243">
        <ele>239.02</ele>
        <time>2019-01-10T09:53:04Z</time>
      </trkpt>
      <trkpt lat="44.74036" lon="5.04244">
        <ele>239.51</ele>
        <time>2019-01-10T09:53:06Z</time>
      </trkpt>
      <trkpt lat="44.74035" lon="5.04244">
        <ele>239.99</ele>
        <time>2019-01-10T09:53:07Z</time>
      </trkpt>
      <trkpt lat="44.74033" lon="5.04244">
        <ele>240.47</ele>
        <time>2019-01-10T09:53:08Z</time>
      </trkpt>
      <trkpt lat="44.7403" lon="5.04244">
        <ele>240.47</ele>
        <time>2019-01-10T09:53:09Z</time>
      </trkpt>
      <trkpt lat="44.74028" lon="5.04244">
        <ele>240.95</ele>
        <time>2019-01-10T09:53:10Z</time>
      </trkpt>
      <trkpt lat="44.74026" lon="5.04244">
        <ele>240.95</ele>
        <time>2019-01-10T09:53:11Z</time>
      </trkpt>
      <trkpt lat="44.74019" lon="5.04247">
        <ele>241.43</ele>
        <time>2019-01-10T09:53:14Z</time>
      </trkpt>
      <trkpt lat="44.74017" lon="5.04246">
        <ele>241.43</ele>
        <time>2019-01-10T09:53:15Z</time>
      </trkpt>
      <trkpt lat="44.74015" lon="5.04246">
        <ele>241.43</ele>
        <time>2019-01-10T09:53:16Z</time>
      </trkpt>
      <trkpt lat="44.74013" lon="5.04245">
        <ele>241.91</ele>
        <time>2019-01-10T09:53:17Z</time>
      </trkpt>
      <trkpt lat="44.74012" lon="5.04246">
        <ele>242.39</ele>
        <time>2019-01-10T09:53:18Z</time>
      </trkpt>
      <trkpt lat="44.74006" lon="5.04244">
        <ele>243.35</ele>
        <time>2019-01-10T09:53:21Z</time>
      </trkpt>
      <trkpt lat="44.73989" lon="5.04224">
        <ele>245.27</ele>
        <time>2019-01-10T09:53:32Z</time>
      </trkpt>
      <trkpt lat="44.73969" lon="5.04232">
        <ele>244.31</ele>
        <time>2019-01-10T09:53:38Z</time>
      </trkpt>
      <trkpt lat="44.73965" lon="5.04232">
        <ele>244.31</ele>
        <time>2019-01-10T09:53:39Z</time>
      </trkpt>
      <trkpt lat="44.73947" lon="5.04232">
        <ele>243.83</ele>
        <time>2019-01-10T09:53:43Z</time>
      </trkpt>
      <trkpt lat="44.73892" lon="5.04217">
        <ele>244.79</ele>
        <time>2019-01-10T09:53:57Z</time>
      </trkpt>
      <trkpt lat="44.7387" lon="5.04213">
        <ele>244.79</ele>
        <time>2019-01-10T09:54:02Z</time>
      </trkpt>
      <trkpt lat="44.73862" lon="5.04211">
        <ele>244.31</ele>
        <time>2019-01-10T09:54:04Z</time>
      </trkpt>
      <trkpt lat="44.73857" lon="5.0421">
        <ele>244.31</ele>
        <time>2019-01-10T09:54:05Z</time>
      </trkpt>
      <trkpt lat="44.73853" lon="5.0421">
        <ele>244.31</ele>
        <time>2019-01-10T09:54:06Z</time>
      </trkpt>
      <trkpt lat="44.73843" lon="5.04211">
        <ele>243.83</ele>
        <time>2019-01-10T09:54:08Z</time>
      </trkpt>
      <trkpt lat="44.73818" lon="5.04209">
        <ele>242.87</ele>
        <time>2019-01-10T09:54:13Z</time>
      </trkpt>
      <trkpt lat="44.73781" lon="5.04196">
        <ele>240.95</ele>
        <time>2019-01-10T09:54:20Z</time>
      </trkpt>
      <trkpt lat="44.73775" lon="5.04192">
        <ele>239.99</ele>
        <time>2019-01-10T09:54:21Z</time>
      </trkpt>
      <trkpt lat="44.73763" lon="5.04187">
        <ele>238.06</ele>
        <time>2019-01-10T09:54:23Z</time>
      </trkpt>
      <trkpt lat="44.73756" lon="5.04186">
        <ele>237.58</ele>
        <time>2019-01-10T09:54:24Z</time>
      </trkpt>
      <trkpt lat="44.73749" lon="5.04185">
        <ele>237.1</ele>
        <time>2019-01-10T09:54:25Z</time>
      </trkpt>
      <trkpt lat="44.73736" lon="5.04184">
        <ele>236.14</ele>
        <time>2019-01-10T09:54:27Z</time>
      </trkpt>
      <trkpt lat="44.7373" lon="5.04181">
        <ele>235.18</ele>
        <time>2019-01-10T09:54:28Z</time>
      </trkpt>
      <trkpt lat="44.73724" lon="5.04177">
        <ele>234.7</ele>
        <time>2019-01-10T09:54:29Z</time>
      </trkpt>
      <trkpt lat="44.73717" lon="5.04174">
        <ele>233.74</ele>
        <time>2019-01-10T09:54:30Z</time>
      </trkpt>
      <trkpt lat="44.73711" lon="5.04171">
        <ele>233.26</ele>
        <time>2019-01-10T09:54:31Z</time>
      </trkpt>
      <trkpt lat="44.73679" lon="5.04158">
        <ele>230.37</ele>
        <time>2019-01-10T09:54:36Z</time>
      </trkpt>
      <trkpt lat="44.73652" lon="5.04142">
        <ele>227.01</ele>
        <time>2019-01-10T09:54:40Z</time>
      </trkpt>
      <trkpt lat="44.73628" lon="5.04126">
        <ele>223.64</ele>
        <time>2019-01-10T09:54:43Z</time>
      </trkpt>
      <trkpt lat="44.73603" lon="5.04112">
        <ele>221.24</ele>
        <time>2019-01-10T09:54:46Z</time>
      </trkpt>
      <trkpt lat="44.73566" lon="5.04081">
        <ele>224.61</ele>
        <time>2019-01-10T09:54:52Z</time>
      </trkpt>
      <trkpt lat="44.73551" lon="5.0407">
        <ele>226.53</ele>
        <time>2019-01-10T09:54:56Z</time>
      </trkpt>
      <trkpt lat="44.73547" lon="5.04068">
        <ele>226.53</ele>
        <time>2019-01-10T09:54:57Z</time>
      </trkpt>
      <trkpt lat="44.73501" lon="5.04051">
        <ele>229.41</ele>
        <time>2019-01-10T09:55:09Z</time>
      </trkpt>
      <trkpt lat="44.73497" lon="5.04049">
        <ele>229.41</ele>
        <time>2019-01-10T09:55:10Z</time>
      </trkpt>
      <trkpt lat="44.73494" lon="5.04046">
        <ele>229.41</ele>
        <time>2019-01-10T09:55:11Z</time>
      </trkpt>
      <trkpt lat="44.73486" lon="5.0404">
        <ele>230.37</ele>
        <time>2019-01-10T09:55:13Z</time>
      </trkpt>
      <trkpt lat="44.73483" lon="5.04037">
        <ele>230.37</ele>
        <time>2019-01-10T09:55:14Z</time>
      </trkpt>
      <trkpt lat="44.73479" lon="5.04034">
        <ele>230.37</ele>
        <time>2019-01-10T09:55:15Z</time>
      </trkpt>
      <trkpt lat="44.73475" lon="5.04031">
        <ele>230.85</ele>
        <time>2019-01-10T09:55:16Z</time>
      </trkpt>
      <trkpt lat="44.73471" lon="5.04029">
        <ele>230.37</ele>
        <time>2019-01-10T09:55:17Z</time>
      </trkpt>
      <trkpt lat="44.73432" lon="5.04015">
        <ele>231.33</ele>
        <time>2019-01-10T09:55:27Z</time>
      </trkpt>
      <trkpt lat="44.73415" lon="5.04012">
        <ele>230.85</ele>
        <time>2019-01-10T09:55:31Z</time>
      </trkpt>
      <trkpt lat="44.73411" lon="5.04011">
        <ele>230.37</ele>
        <time>2019-01-10T09:55:32Z</time>
      </trkpt>
      <trkpt lat="44.73396" lon="5.04009">
        <ele>230.37</ele>
        <time>2019-01-10T09:55:35Z</time>
      </trkpt>
      <trkpt lat="44.73372" lon="5.04005">
        <ele>229.41</ele>
        <time>2019-01-10T09:55:40Z</time>
      </trkpt>
      <trkpt lat="44.73367" lon="5.04005">
        <ele>229.41</ele>
        <time>2019-01-10T09:55:41Z</time>
      </trkpt>
      <trkpt lat="44.73362" lon="5.04004">
        <ele>229.41</ele>
        <time>2019-01-10T09:55:42Z</time>
      </trkpt>
      <trkpt lat="44.73356" lon="5.04003">
        <ele>229.41</ele>
        <time>2019-01-10T09:55:43Z</time>
      </trkpt>
      <trkpt lat="44.73351" lon="5.04002">
        <ele>228.93</ele>
        <time>2019-01-10T09:55:44Z</time>
      </trkpt>
      <trkpt lat="44.73346" lon="5.04001">
        <ele>229.41</ele>
        <time>2019-01-10T09:55:45Z</time>
      </trkpt>
      <trkpt lat="44.73341" lon="5.04">
        <ele>228.93</ele>
        <time>2019-01-10T09:55:46Z</time>
      </trkpt>
      <trkpt lat="44.73336" lon="5.04">
        <ele>228.93</ele>
        <time>2019-01-10T09:55:47Z</time>
      </trkpt>
      <trkpt lat="44.73331" lon="5.04">
        <ele>229.41</ele>
        <time>2019-01-10T09:55:48Z</time>
      </trkpt>
      <trkpt lat="44.73321" lon="5.03999">
        <ele>229.41</ele>
        <time>2019-01-10T09:55:50Z</time>
      </trkpt>
      <trkpt lat="44.73316" lon="5.03999">
        <ele>229.41</ele>
        <time>2019-01-10T09:55:51Z</time>
      </trkpt>
      <trkpt lat="44.73245" lon="5.03989">
        <ele>230.37</ele>
        <time>2019-01-10T09:56:06Z</time>
      </trkpt>
      <trkpt lat="44.73237" lon="5.03985">
        <ele>229.89</ele>
        <time>2019-01-10T09:56:08Z</time>
      </trkpt>
      <trkpt lat="44.73232" lon="5.03984">
        <ele>230.37</ele>
        <time>2019-01-10T09:56:09Z</time>
      </trkpt>
      <trkpt lat="44.73228" lon="5.03982">
        <ele>230.37</ele>
        <time>2019-01-10T09:56:10Z</time>
      </trkpt>
      <trkpt lat="44.73223" lon="5.03982">
        <ele>230.37</ele>
        <time>2019-01-10T09:56:11Z</time>
      </trkpt>
      <trkpt lat="44.73218" lon="5.03982">
        <ele>230.85</ele>
        <time>2019-01-10T09:56:12Z</time>
      </trkpt>
      <trkpt lat="44.73214" lon="5.03981">
        <ele>230.37</ele>
        <time>2019-01-10T09:56:13Z</time>
      </trkpt>
      <trkpt lat="44.73208" lon="5.03981">
        <ele>230.37</ele>
        <time>2019-01-10T09:56:14Z</time>
      </trkpt>
      <trkpt lat="44.73198" lon="5.03981">
        <ele>228.45</ele>
        <time>2019-01-10T09:56:16Z</time>
      </trkpt>
      <trkpt lat="44.73172" lon="5.0398">
        <ele>227.49</ele>
        <time>2019-01-10T09:56:20Z</time>
      </trkpt>
      <trkpt lat="44.73107" lon="5.03966">
        <ele>227.01</ele>
        <time>2019-01-10T09:56:31Z</time>
      </trkpt>
      <trkpt lat="44.73095" lon="5.03957">
        <ele>227.49</ele>
        <time>2019-01-10T09:56:34Z</time>
      </trkpt>
      <trkpt lat="44.73092" lon="5.03952">
        <ele>227.49</ele>
        <time>2019-01-10T09:56:35Z</time>
      </trkpt>
      <trkpt lat="44.73089" lon="5.03948">
        <ele>227.97</ele>
        <time>2019-01-10T09:56:36Z</time>
      </trkpt>
      <trkpt lat="44.73086" lon="5.03943">
        <ele>227.49</ele>
        <time>2019-01-10T09:56:37Z</time>
      </trkpt>
      <trkpt lat="44.73084" lon="5.03938">
        <ele>227.97</ele>
        <time>2019-01-10T09:56:38Z</time>
      </trkpt>
      <trkpt lat="44.73076" lon="5.03885">
        <ele>229.89</ele>
        <time>2019-01-10T09:56:49Z</time>
      </trkpt>
      <trkpt lat="44.7307" lon="5.03811">
        <ele>231.81</ele>
        <time>2019-01-10T09:57:04Z</time>
      </trkpt>
      <trkpt lat="44.73067" lon="5.03789">
        <ele>229.89</ele>
        <time>2019-01-10T09:57:08Z</time>
      </trkpt>
      <trkpt lat="44.73067" lon="5.03783">
        <ele>229.41</ele>
        <time>2019-01-10T09:57:09Z</time>
      </trkpt>
      <trkpt lat="44.73066" lon="5.03777">
        <ele>228.45</ele>
        <time>2019-01-10T09:57:10Z</time>
      </trkpt>
      <trkpt lat="44.73067" lon="5.03771">
        <ele>228.45</ele>
        <time>2019-01-10T09:57:11Z</time>
      </trkpt>
      <trkpt lat="44.73076" lon="5.03734">
        <ele>228.45</ele>
        <time>2019-01-10T09:57:22Z</time>
      </trkpt>
      <trkpt lat="44.73077" lon="5.03729">
        <ele>228.45</ele>
        <time>2019-01-10T09:57:35Z</time>
      </trkpt>
      <trkpt lat="44.73078" lon="5.03729">
        <ele>228.45</ele>
        <time>2019-01-10T09:57:41Z</time>
      </trkpt>
      <trkpt lat="44.73078" lon="5.03732">
        <ele>228.45</ele>
        <time>2019-01-10T09:57:42Z</time>
      </trkpt>
      <trkpt lat="44.73079" lon="5.03733">
        <ele>228.45</ele>
        <time>2019-01-10T09:57:43Z</time>
      </trkpt>
      <trkpt lat="44.73081" lon="5.03734">
        <ele>228.45</ele>
        <time>2019-01-10T09:57:44Z</time>
      </trkpt>
      <trkpt lat="44.73082" lon="5.03733">
        <ele>228.45</ele>
        <time>2019-01-10T09:57:45Z</time>
      </trkpt>
      <trkpt lat="44.73083" lon="5.03731">
        <ele>228.45</ele>
        <time>2019-01-10T09:57:46Z</time>
      </trkpt>
      <trkpt lat="44.73084" lon="5.0373">
        <ele>227.97</ele>
        <time>2019-01-10T09:57:47Z</time>
      </trkpt>
      <trkpt lat="44.73085" lon="5.03728">
        <ele>228.45</ele>
        <time>2019-01-10T09:57:48Z</time>
      </trkpt>
      <trkpt lat="44.73086" lon="5.03726">
        <ele>228.45</ele>
        <time>2019-01-10T09:57:49Z</time>
      </trkpt>
      <trkpt lat="44.73087" lon="5.03725">
        <ele>228.45</ele>
        <time>2019-01-10T09:57:50Z</time>
      </trkpt>
      <trkpt lat="44.73089" lon="5.03723">
        <ele>228.93</ele>
        <time>2019-01-10T09:57:51Z</time>
      </trkpt>
      <trkpt lat="44.73113" lon="5.03707">
        <ele>229.89</ele>
        <time>2019-01-10T09:58:03Z</time>
      </trkpt>
      <trkpt lat="44.7314" lon="5.03695">
        <ele>231.33</ele>
        <time>2019-01-10T09:58:14Z</time>
      </trkpt>
      <trkpt lat="44.73186" lon="5.03691">
        <ele>232.78</ele>
        <time>2019-01-10T09:58:29Z</time>
      </trkpt>
      <trkpt lat="44.73239" lon="5.03688">
        <ele>233.26</ele>
        <time>2019-01-10T09:58:46Z</time>
      </trkpt>
      <trkpt lat="44.73277" lon="5.03693">
        <ele>233.74</ele>
        <time>2019-01-10T09:58:58Z</time>
      </trkpt>
      <trkpt lat="44.73303" lon="5.03698">
        <ele>233.74</ele>
        <time>2019-01-10T09:59:06Z</time>
      </trkpt>
      <trkpt lat="44.73336" lon="5.03696">
        <ele>236.14</ele>
        <time>2019-01-10T09:59:17Z</time>
      </trkpt>
      <trkpt lat="44.73339" lon="5.03692">
        <ele>236.14</ele>
        <time>2019-01-10T09:59:18Z</time>
      </trkpt>
      <trkpt lat="44.7334" lon="5.03689">
        <ele>236.62</ele>
        <time>2019-01-10T09:59:19Z</time>
      </trkpt>
      <trkpt lat="44.73342" lon="5.03685">
        <ele>238.06</ele>
        <time>2019-01-10T09:59:20Z</time>
      </trkpt>
      <trkpt lat="44.73344" lon="5.03682">
        <ele>238.06</ele>
        <time>2019-01-10T09:59:21Z</time>
      </trkpt>
      <trkpt lat="44.73345" lon="5.03678">
        <ele>238.54</ele>
        <time>2019-01-10T09:59:22Z</time>
      </trkpt>
      <trkpt lat="44.73346" lon="5.03674">
        <ele>239.02</ele>
        <time>2019-01-10T09:59:23Z</time>
      </trkpt>
      <trkpt lat="44.73347" lon="5.03669">
        <ele>239.02</ele>
        <time>2019-01-10T09:59:24Z</time>
      </trkpt>
      <trkpt lat="44.73365" lon="5.03589">
        <ele>239.51</ele>
        <time>2019-01-10T09:59:40Z</time>
      </trkpt>
      <trkpt lat="44.73366" lon="5.03578">
        <ele>238.54</ele>
        <time>2019-01-10T09:59:42Z</time>
      </trkpt>
      <trkpt lat="44.73366" lon="5.03573">
        <ele>238.54</ele>
        <time>2019-01-10T09:59:43Z</time>
      </trkpt>
      <trkpt lat="44.73361" lon="5.03532">
        <ele>239.51</ele>
        <time>2019-01-10T09:59:50Z</time>
      </trkpt>
      <trkpt lat="44.73348" lon="5.03443">
        <ele>241.43</ele>
        <time>2019-01-10T10:00:06Z</time>
      </trkpt>
      <trkpt lat="44.73339" lon="5.03356">
        <ele>241.43</ele>
        <time>2019-01-10T10:00:21Z</time>
      </trkpt>
      <trkpt lat="44.73322" lon="5.03276">
        <ele>242.39</ele>
        <time>2019-01-10T10:00:35Z</time>
      </trkpt>
      <trkpt lat="44.73303" lon="5.0321">
        <ele>243.83</ele>
        <time>2019-01-10T10:00:47Z</time>
      </trkpt>
      <trkpt lat="44.73308" lon="5.03154">
        <ele>247.2</ele>
        <time>2019-01-10T10:00:58Z</time>
      </trkpt>
      <trkpt lat="44.73307" lon="5.03144">
        <ele>247.68</ele>
        <time>2019-01-10T10:01:00Z</time>
      </trkpt>
      <trkpt lat="44.73306" lon="5.03126">
        <ele>247.68</ele>
        <time>2019-01-10T10:01:03Z</time>
      </trkpt>
      <trkpt lat="44.73305" lon="5.03121">
        <ele>247.2</ele>
        <time>2019-01-10T10:01:04Z</time>
      </trkpt>
      <trkpt lat="44.73303" lon="5.03115">
        <ele>247.68</ele>
        <time>2019-01-10T10:01:05Z</time>
      </trkpt>
      <trkpt lat="44.7329" lon="5.03041">
        <ele>250.08</ele>
        <time>2019-01-10T10:01:20Z</time>
      </trkpt>
      <trkpt lat="44.73282" lon="5.02972">
        <ele>251.52</ele>
        <time>2019-01-10T10:01:35Z</time>
      </trkpt>
      <trkpt lat="44.73274" lon="5.02917">
        <ele>253.44</ele>
        <time>2019-01-10T10:01:48Z</time>
      </trkpt>
      <trkpt lat="44.73259" lon="5.02892">
        <ele>253.93</ele>
        <time>2019-01-10T10:02:00Z</time>
      </trkpt>
      <trkpt lat="44.7325" lon="5.02882">
        <ele>252</ele>
        <time>2019-01-10T10:02:04Z</time>
      </trkpt>
      <trkpt lat="44.73246" lon="5.02883">
        <ele>251.04</ele>
        <time>2019-01-10T10:02:05Z</time>
      </trkpt>
      <trkpt lat="44.73241" lon="5.02886">
        <ele>249.6</ele>
        <time>2019-01-10T10:02:06Z</time>
      </trkpt>
      <trkpt lat="44.73227" lon="5.02895">
        <ele>246.72</ele>
        <time>2019-01-10T10:02:09Z</time>
      </trkpt>
      <trkpt lat="44.73222" lon="5.02897">
        <ele>246.23</ele>
        <time>2019-01-10T10:02:10Z</time>
      </trkpt>
      <trkpt lat="44.73194" lon="5.02916">
        <ele>242.87</ele>
        <time>2019-01-10T10:02:18Z</time>
      </trkpt>
      <trkpt lat="44.73182" lon="5.02921">
        <ele>239.99</ele>
        <time>2019-01-10T10:02:21Z</time>
      </trkpt>
      <trkpt lat="44.73173" lon="5.02925">
        <ele>237.1</ele>
        <time>2019-01-10T10:02:23Z</time>
      </trkpt>
      <trkpt lat="44.7316" lon="5.02928">
        <ele>233.74</ele>
        <time>2019-01-10T10:02:27Z</time>
      </trkpt>
      <trkpt lat="44.73158" lon="5.02926">
        <ele>233.74</ele>
        <time>2019-01-10T10:02:37Z</time>
      </trkpt>
      <trkpt lat="44.73157" lon="5.02923">
        <ele>233.74</ele>
        <time>2019-01-10T10:02:38Z</time>
      </trkpt>
      <trkpt lat="44.73156" lon="5.0292">
        <ele>233.26</ele>
        <time>2019-01-10T10:02:39Z</time>
      </trkpt>
      <trkpt lat="44.73155" lon="5.02917">
        <ele>232.3</ele>
        <time>2019-01-10T10:02:40Z</time>
      </trkpt>
      <trkpt lat="44.73155" lon="5.02914">
        <ele>232.3</ele>
        <time>2019-01-10T10:02:41Z</time>
      </trkpt>
      <trkpt lat="44.73151" lon="5.02902">
        <ele>231.33</ele>
        <time>2019-01-10T10:02:48Z</time>
      </trkpt>
      <trkpt lat="44.7315" lon="5.02899">
        <ele>231.33</ele>
        <time>2019-01-10T10:02:49Z</time>
      </trkpt>
      <trkpt lat="44.73149" lon="5.02896">
        <ele>231.81</ele>
        <time>2019-01-10T10:02:50Z</time>
      </trkpt>
      <trkpt lat="44.73149" lon="5.02894">
        <ele>231.81</ele>
        <time>2019-01-10T10:02:51Z</time>
      </trkpt>
      <trkpt lat="44.73149" lon="5.02891">
        <ele>232.3</ele>
        <time>2019-01-10T10:02:52Z</time>
      </trkpt>
      <trkpt lat="44.7315" lon="5.02889">
        <ele>232.78</ele>
        <time>2019-01-10T10:02:53Z</time>
      </trkpt>
      <trkpt lat="44.7315" lon="5.02887">
        <ele>232.78</ele>
        <time>2019-01-10T10:02:54Z</time>
      </trkpt>
      <trkpt lat="44.7315" lon="5.02884">
        <ele>233.26</ele>
        <time>2019-01-10T10:02:55Z</time>
      </trkpt>
      <trkpt lat="44.73149" lon="5.02883">
        <ele>233.26</ele>
        <time>2019-01-10T10:02:56Z</time>
      </trkpt>
      <trkpt lat="44.73149" lon="5.02881">
        <ele>233.26</ele>
        <time>2019-01-10T10:02:57Z</time>
      </trkpt>
      <trkpt lat="44.73148" lon="5.02879">
        <ele>233.74</ele>
        <time>2019-01-10T10:02:58Z</time>
      </trkpt>
      <trkpt lat="44.73147" lon="5.02877">
        <ele>233.74</ele>
        <time>2019-01-10T10:02:59Z</time>
      </trkpt>
      <trkpt lat="44.73147" lon="5.02874">
        <ele>234.22</ele>
        <time>2019-01-10T10:03:00Z</time>
      </trkpt>
      <trkpt lat="44.7315" lon="5.02862">
        <ele>235.18</ele>
        <time>2019-01-10T10:03:05Z</time>
      </trkpt>
      <trkpt lat="44.73152" lon="5.0284">
        <ele>236.62</ele>
        <time>2019-01-10T10:03:14Z</time>
      </trkpt>
      <trkpt lat="44.73157" lon="5.02809">
        <ele>239.51</ele>
        <time>2019-01-10T10:03:28Z</time>
      </trkpt>
      <trkpt lat="44.73161" lon="5.02783">
        <ele>242.39</ele>
        <time>2019-01-10T10:03:40Z</time>
      </trkpt>
      <trkpt lat="44.73162" lon="5.02775">
        <ele>242.87</ele>
        <time>2019-01-10T10:03:44Z</time>
      </trkpt>
      <trkpt lat="44.73163" lon="5.02755">
        <ele>245.27</ele>
        <time>2019-01-10T10:03:54Z</time>
      </trkpt>
      <trkpt lat="44.73163" lon="5.02753">
        <ele>245.75</ele>
        <time>2019-01-10T10:03:55Z</time>
      </trkpt>
      <trkpt lat="44.73163" lon="5.02751">
        <ele>245.75</ele>
        <time>2019-01-10T10:03:56Z</time>
      </trkpt>
      <trkpt lat="44.73162" lon="5.02731">
        <ele>248.64</ele>
        <time>2019-01-10T10:04:07Z</time>
      </trkpt>
      <trkpt lat="44.7316" lon="5.02704">
        <ele>252</ele>
        <time>2019-01-10T10:04:21Z</time>
      </trkpt>
      <trkpt lat="44.73159" lon="5.02693">
        <ele>253.93</ele>
        <time>2019-01-10T10:04:27Z</time>
      </trkpt>
      <trkpt lat="44.73159" lon="5.02691">
        <ele>253.93</ele>
        <time>2019-01-10T10:04:28Z</time>
      </trkpt>
      <trkpt lat="44.73159" lon="5.02684">
        <ele>254.89</ele>
        <time>2019-01-10T10:04:32Z</time>
      </trkpt>
      <trkpt lat="44.7316" lon="5.02682">
        <ele>255.37</ele>
        <time>2019-01-10T10:04:33Z</time>
      </trkpt>
      <trkpt lat="44.7316" lon="5.0268">
        <ele>255.85</ele>
        <time>2019-01-10T10:04:34Z</time>
      </trkpt>
      <trkpt lat="44.7316" lon="5.02678">
        <ele>256.33</ele>
        <time>2019-01-10T10:04:35Z</time>
      </trkpt>
      <trkpt lat="44.7316" lon="5.02676">
        <ele>256.33</ele>
        <time>2019-01-10T10:04:36Z</time>
      </trkpt>
      <trkpt lat="44.73159" lon="5.02671">
        <ele>257.29</ele>
        <time>2019-01-10T10:04:39Z</time>
      </trkpt>
      <trkpt lat="44.73162" lon="5.02664">
        <ele>258.25</ele>
        <time>2019-01-10T10:04:43Z</time>
      </trkpt>
      <trkpt lat="44.73162" lon="5.02662">
        <ele>258.73</ele>
        <time>2019-01-10T10:04:44Z</time>
      </trkpt>
      <trkpt lat="44.73162" lon="5.0266">
        <ele>258.73</ele>
        <time>2019-01-10T10:04:45Z</time>
      </trkpt>
      <trkpt lat="44.73162" lon="5.02658">
        <ele>259.21</ele>
        <time>2019-01-10T10:04:46Z</time>
      </trkpt>
      <trkpt lat="44.73161" lon="5.02656">
        <ele>259.21</ele>
        <time>2019-01-10T10:04:47Z</time>
      </trkpt>
      <trkpt lat="44.73158" lon="5.02654">
        <ele>259.69</ele>
        <time>2019-01-10T10:04:50Z</time>
      </trkpt>
      <trkpt lat="44.73157" lon="5.02656">
        <ele>259.69</ele>
        <time>2019-01-10T10:04:51Z</time>
      </trkpt>
      <trkpt lat="44.73157" lon="5.02658">
        <ele>259.69</ele>
        <time>2019-01-10T10:04:52Z</time>
      </trkpt>
      <trkpt lat="44.73159" lon="5.0266">
        <ele>259.21</ele>
        <time>2019-01-10T10:04:53Z</time>
      </trkpt>
      <trkpt lat="44.73162" lon="5.0266">
        <ele>259.21</ele>
        <time>2019-01-10T10:04:54Z</time>
      </trkpt>
      <trkpt lat="44.73163" lon="5.02659">
        <ele>259.21</ele>
        <time>2019-01-10T10:04:55Z</time>
      </trkpt>
      <trkpt lat="44.73165" lon="5.02658">
        <ele>259.69</ele>
        <time>2019-01-10T10:04:56Z</time>
      </trkpt>
      <trkpt lat="44.73167" lon="5.02658">
        <ele>259.69</ele>
        <time>2019-01-10T10:04:57Z</time>
      </trkpt>
      <trkpt lat="44.73185" lon="5.02654">
        <ele>262.58</ele>
        <time>2019-01-10T10:05:10Z</time>
      </trkpt>
      <trkpt lat="44.73186" lon="5.02656">
        <ele>263.06</ele>
        <time>2019-01-10T10:05:11Z</time>
      </trkpt>
      <trkpt lat="44.73187" lon="5.02658">
        <ele>263.06</ele>
        <time>2019-01-10T10:05:12Z</time>
      </trkpt>
      <trkpt lat="44.73188" lon="5.0266">
        <ele>263.06</ele>
        <time>2019-01-10T10:05:13Z</time>
      </trkpt>
      <trkpt lat="44.73189" lon="5.02661">
        <ele>263.54</ele>
        <time>2019-01-10T10:05:14Z</time>
      </trkpt>
      <trkpt lat="44.7319" lon="5.02663">
        <ele>263.54</ele>
        <time>2019-01-10T10:05:15Z</time>
      </trkpt>
      <trkpt lat="44.73191" lon="5.02664">
        <ele>264.02</ele>
        <time>2019-01-10T10:05:16Z</time>
      </trkpt>
      <trkpt lat="44.73206" lon="5.02683">
        <ele>266.9</ele>
        <time>2019-01-10T10:05:30Z</time>
      </trkpt>
      <trkpt lat="44.73217" lon="5.02685">
        <ele>269.31</ele>
        <time>2019-01-10T10:05:38Z</time>
      </trkpt>
      <trkpt lat="44.73218" lon="5.02684">
        <ele>269.31</ele>
        <time>2019-01-10T10:05:39Z</time>
      </trkpt>
      <trkpt lat="44.7322" lon="5.02684">
        <ele>269.79</ele>
        <time>2019-01-10T10:05:40Z</time>
      </trkpt>
      <trkpt lat="44.73221" lon="5.02683">
        <ele>269.79</ele>
        <time>2019-01-10T10:05:41Z</time>
      </trkpt>
      <trkpt lat="44.73222" lon="5.02682">
        <ele>269.79</ele>
        <time>2019-01-10T10:05:42Z</time>
      </trkpt>
      <trkpt lat="44.73223" lon="5.02681">
        <ele>270.27</ele>
        <time>2019-01-10T10:05:43Z</time>
      </trkpt>
      <trkpt lat="44.73225" lon="5.0268">
        <ele>270.27</ele>
        <time>2019-01-10T10:05:44Z</time>
      </trkpt>
      <trkpt lat="44.73226" lon="5.02679">
        <ele>270.75</ele>
        <time>2019-01-10T10:05:45Z</time>
      </trkpt>
      <trkpt lat="44.73227" lon="5.02677">
        <ele>271.23</ele>
        <time>2019-01-10T10:05:46Z</time>
      </trkpt>
      <trkpt lat="44.73228" lon="5.02676">
        <ele>271.23</ele>
        <time>2019-01-10T10:05:47Z</time>
      </trkpt>
      <trkpt lat="44.73228" lon="5.02674">
        <ele>271.71</ele>
        <time>2019-01-10T10:05:48Z</time>
      </trkpt>
      <trkpt lat="44.73229" lon="5.02672">
        <ele>271.71</ele>
        <time>2019-01-10T10:05:49Z</time>
      </trkpt>
      <trkpt lat="44.73222" lon="5.02644">
        <ele>274.59</ele>
        <time>2019-01-10T10:06:03Z</time>
      </trkpt>
      <trkpt lat="44.73219" lon="5.02639">
        <ele>275.56</ele>
        <time>2019-01-10T10:06:06Z</time>
      </trkpt>
      <trkpt lat="44.73218" lon="5.02637">
        <ele>275.56</ele>
        <time>2019-01-10T10:06:07Z</time>
      </trkpt>
      <trkpt lat="44.73217" lon="5.02635">
        <ele>276.04</ele>
        <time>2019-01-10T10:06:08Z</time>
      </trkpt>
      <trkpt lat="44.73216" lon="5.02634">
        <ele>276.04</ele>
        <time>2019-01-10T10:06:09Z</time>
      </trkpt>
      <trkpt lat="44.73215" lon="5.02632">
        <ele>276.04</ele>
        <time>2019-01-10T10:06:10Z</time>
      </trkpt>
      <trkpt lat="44.73214" lon="5.0263">
        <ele>276.52</ele>
        <time>2019-01-10T10:06:11Z</time>
      </trkpt>
      <trkpt lat="44.73213" lon="5.02629">
        <ele>276.52</ele>
        <time>2019-01-10T10:06:12Z</time>
      </trkpt>
      <trkpt lat="44.73211" lon="5.02627">
        <ele>276.52</ele>
        <time>2019-01-10T10:06:13Z</time>
      </trkpt>
      <trkpt lat="44.7321" lon="5.02625">
        <ele>276.52</ele>
        <time>2019-01-10T10:06:14Z</time>
      </trkpt>
      <trkpt lat="44.73192" lon="5.02603">
        <ele>278.44</ele>
        <time>2019-01-10T10:06:28Z</time>
      </trkpt>
      <trkpt lat="44.73172" lon="5.02573">
        <ele>278.92</ele>
        <time>2019-01-10T10:06:43Z</time>
      </trkpt>
      <trkpt lat="44.73149" lon="5.02535">
        <ele>277.96</ele>
        <time>2019-01-10T10:06:56Z</time>
      </trkpt>
      <trkpt lat="44.73134" lon="5.02504">
        <ele>277</ele>
        <time>2019-01-10T10:07:06Z</time>
      </trkpt>
      <trkpt lat="44.73134" lon="5.025">
        <ele>276.52</ele>
        <time>2019-01-10T10:07:07Z</time>
      </trkpt>
      <trkpt lat="44.73136" lon="5.02498">
        <ele>276.52</ele>
        <time>2019-01-10T10:07:08Z</time>
      </trkpt>
      <trkpt lat="44.73137" lon="5.02498">
        <ele>277</ele>
        <time>2019-01-10T10:07:09Z</time>
      </trkpt>
      <trkpt lat="44.73139" lon="5.02498">
        <ele>277.48</ele>
        <time>2019-01-10T10:07:10Z</time>
      </trkpt>
      <trkpt lat="44.7314" lon="5.02499">
        <ele>277.96</ele>
        <time>2019-01-10T10:07:11Z</time>
      </trkpt>
      <trkpt lat="44.73141" lon="5.025">
        <ele>277.96</ele>
        <time>2019-01-10T10:07:12Z</time>
      </trkpt>
      <trkpt lat="44.73142" lon="5.025">
        <ele>277.96</ele>
        <time>2019-01-10T10:07:13Z</time>
      </trkpt>
      <trkpt lat="44.73142" lon="5.02502">
        <ele>277.96</ele>
        <time>2019-01-10T10:07:14Z</time>
      </trkpt>
      <trkpt lat="44.73146" lon="5.02506">
        <ele>279.4</ele>
        <time>2019-01-10T10:07:18Z</time>
      </trkpt>
      <trkpt lat="44.7315" lon="5.02508">
        <ele>280.36</ele>
        <time>2019-01-10T10:07:21Z</time>
      </trkpt>
      <trkpt lat="44.73152" lon="5.02513">
        <ele>281.32</ele>
        <time>2019-01-10T10:07:31Z</time>
      </trkpt>
      <trkpt lat="44.73153" lon="5.02514">
        <ele>281.32</ele>
        <time>2019-01-10T10:07:32Z</time>
      </trkpt>
      <trkpt lat="44.73154" lon="5.02514">
        <ele>281.32</ele>
        <time>2019-01-10T10:07:33Z</time>
      </trkpt>
      <trkpt lat="44.73155" lon="5.02516">
        <ele>281.8</ele>
        <time>2019-01-10T10:07:34Z</time>
      </trkpt>
      <trkpt lat="44.73155" lon="5.02517">
        <ele>281.8</ele>
        <time>2019-01-10T10:07:35Z</time>
      </trkpt>
      <trkpt lat="44.73156" lon="5.02518">
        <ele>281.8</ele>
        <time>2019-01-10T10:07:36Z</time>
      </trkpt>
      <trkpt lat="44.7316" lon="5.02522">
        <ele>283.25</ele>
        <time>2019-01-10T10:07:41Z</time>
      </trkpt>
      <trkpt lat="44.73161" lon="5.02523">
        <ele>283.73</ele>
        <time>2019-01-10T10:07:42Z</time>
      </trkpt>
      <trkpt lat="44.73161" lon="5.02525">
        <ele>284.21</ele>
        <time>2019-01-10T10:07:43Z</time>
      </trkpt>
      <trkpt lat="44.73163" lon="5.02528">
        <ele>285.17</ele>
        <time>2019-01-10T10:07:46Z</time>
      </trkpt>
      <trkpt lat="44.7317" lon="5.02538">
        <ele>288.05</ele>
        <time>2019-01-10T10:07:56Z</time>
      </trkpt>
      <trkpt lat="44.73173" lon="5.0254">
        <ele>288.53</ele>
        <time>2019-01-10T10:07:58Z</time>
      </trkpt>
      <trkpt lat="44.73174" lon="5.02541">
        <ele>289.01</ele>
        <time>2019-01-10T10:07:59Z</time>
      </trkpt>
      <trkpt lat="44.73175" lon="5.02542">
        <ele>289.01</ele>
        <time>2019-01-10T10:08:00Z</time>
      </trkpt>
      <trkpt lat="44.73176" lon="5.02543">
        <ele>289.49</ele>
        <time>2019-01-10T10:08:01Z</time>
      </trkpt>
      <trkpt lat="44.73177" lon="5.02544">
        <ele>289.49</ele>
        <time>2019-01-10T10:08:02Z</time>
      </trkpt>
      <trkpt lat="44.73178" lon="5.02545">
        <ele>289.49</ele>
        <time>2019-01-10T10:08:03Z</time>
      </trkpt>
      <trkpt lat="44.73182" lon="5.0255">
        <ele>289.97</ele>
        <time>2019-01-10T10:08:08Z</time>
      </trkpt>
      <trkpt lat="44.73183" lon="5.02551">
        <ele>289.97</ele>
        <time>2019-01-10T10:08:09Z</time>
      </trkpt>
      <trkpt lat="44.73184" lon="5.02551">
        <ele>290.46</ele>
        <time>2019-01-10T10:08:10Z</time>
      </trkpt>
      <trkpt lat="44.73185" lon="5.02552">
        <ele>290.94</ele>
        <time>2019-01-10T10:08:11Z</time>
      </trkpt>
      <trkpt lat="44.73187" lon="5.02554">
        <ele>291.9</ele>
        <time>2019-01-10T10:08:13Z</time>
      </trkpt>
      <trkpt lat="44.73191" lon="5.02556">
        <ele>293.34</ele>
        <time>2019-01-10T10:08:17Z</time>
      </trkpt>
      <trkpt lat="44.73192" lon="5.02557">
        <ele>293.34</ele>
        <time>2019-01-10T10:08:18Z</time>
      </trkpt>
      <trkpt lat="44.73196" lon="5.02561">
        <ele>293.34</ele>
        <time>2019-01-10T10:08:23Z</time>
      </trkpt>
      <trkpt lat="44.73198" lon="5.02561">
        <ele>293.82</ele>
        <time>2019-01-10T10:08:24Z</time>
      </trkpt>
      <trkpt lat="44.7321" lon="5.02563">
        <ele>296.22</ele>
        <time>2019-01-10T10:08:35Z</time>
      </trkpt>
      <trkpt lat="44.73212" lon="5.02564">
        <ele>296.7</ele>
        <time>2019-01-10T10:08:37Z</time>
      </trkpt>
      <trkpt lat="44.73213" lon="5.02565">
        <ele>296.7</ele>
        <time>2019-01-10T10:08:38Z</time>
      </trkpt>
      <trkpt lat="44.7322" lon="5.02571">
        <ele>297.18</ele>
        <time>2019-01-10T10:08:50Z</time>
      </trkpt>
      <trkpt lat="44.73223" lon="5.02572">
        <ele>298.63</ele>
        <time>2019-01-10T10:08:59Z</time>
      </trkpt>
      <trkpt lat="44.73225" lon="5.02573">
        <ele>298.63</ele>
        <time>2019-01-10T10:09:00Z</time>
      </trkpt>
      <trkpt lat="44.73226" lon="5.02574">
        <ele>298.63</ele>
        <time>2019-01-10T10:09:01Z</time>
      </trkpt>
      <trkpt lat="44.73227" lon="5.02575">
        <ele>299.11</ele>
        <time>2019-01-10T10:09:02Z</time>
      </trkpt>
      <trkpt lat="44.73229" lon="5.02576">
        <ele>299.11</ele>
        <time>2019-01-10T10:09:03Z</time>
      </trkpt>
      <trkpt lat="44.7323" lon="5.02577">
        <ele>299.59</ele>
        <time>2019-01-10T10:09:04Z</time>
      </trkpt>
      <trkpt lat="44.73238" lon="5.02585">
        <ele>300.55</ele>
        <time>2019-01-10T10:09:11Z</time>
      </trkpt>
      <trkpt lat="44.7324" lon="5.02585">
        <ele>300.55</ele>
        <time>2019-01-10T10:09:12Z</time>
      </trkpt>
      <trkpt lat="44.73241" lon="5.02586">
        <ele>301.03</ele>
        <time>2019-01-10T10:09:13Z</time>
      </trkpt>
      <trkpt lat="44.73242" lon="5.02586">
        <ele>301.03</ele>
        <time>2019-01-10T10:09:14Z</time>
      </trkpt>
      <trkpt lat="44.73243" lon="5.02587">
        <ele>301.03</ele>
        <time>2019-01-10T10:09:15Z</time>
      </trkpt>
      <trkpt lat="44.73245" lon="5.02588">
        <ele>301.03</ele>
        <time>2019-01-10T10:09:16Z</time>
      </trkpt>
      <trkpt lat="44.73246" lon="5.02589">
        <ele>301.03</ele>
        <time>2019-01-10T10:09:17Z</time>
      </trkpt>
      <trkpt lat="44.73248" lon="5.02589">
        <ele>301.51</ele>
        <time>2019-01-10T10:09:18Z</time>
      </trkpt>
      <trkpt lat="44.73249" lon="5.02589">
        <ele>301.99</ele>
        <time>2019-01-10T10:09:19Z</time>
      </trkpt>
      <trkpt lat="44.73251" lon="5.02589">
        <ele>302.47</ele>
        <time>2019-01-10T10:09:20Z</time>
      </trkpt>
      <trkpt lat="44.73252" lon="5.02589">
        <ele>301.99</ele>
        <time>2019-01-10T10:09:21Z</time>
      </trkpt>
      <trkpt lat="44.73254" lon="5.02589">
        <ele>301.99</ele>
        <time>2019-01-10T10:09:22Z</time>
      </trkpt>
      <trkpt lat="44.73255" lon="5.02589">
        <ele>301.99</ele>
        <time>2019-01-10T10:09:23Z</time>
      </trkpt>
      <trkpt lat="44.73256" lon="5.02589">
        <ele>302.47</ele>
        <time>2019-01-10T10:09:24Z</time>
      </trkpt>
      <trkpt lat="44.73258" lon="5.02588">
        <ele>302.95</ele>
        <time>2019-01-10T10:09:25Z</time>
      </trkpt>
      <trkpt lat="44.73264" lon="5.02585">
        <ele>305.84</ele>
        <time>2019-01-10T10:09:34Z</time>
      </trkpt>
      <trkpt lat="44.73268" lon="5.02584">
        <ele>306.32</ele>
        <time>2019-01-10T10:09:38Z</time>
      </trkpt>
      <trkpt lat="44.73276" lon="5.02577">
        <ele>308.72</ele>
        <time>2019-01-10T10:09:45Z</time>
      </trkpt>
      <trkpt lat="44.73282" lon="5.02571">
        <ele>310.64</ele>
        <time>2019-01-10T10:09:55Z</time>
      </trkpt>
      <trkpt lat="44.73283" lon="5.02567">
        <ele>310.64</ele>
        <time>2019-01-10T10:10:04Z</time>
      </trkpt>
      <trkpt lat="44.73283" lon="5.02564">
        <ele>310.16</ele>
        <time>2019-01-10T10:10:05Z</time>
      </trkpt>
      <trkpt lat="44.73284" lon="5.02562">
        <ele>310.16</ele>
        <time>2019-01-10T10:10:06Z</time>
      </trkpt>
      <trkpt lat="44.73285" lon="5.02559">
        <ele>310.16</ele>
        <time>2019-01-10T10:10:07Z</time>
      </trkpt>
      <trkpt lat="44.73295" lon="5.0256">
        <ele>308.72</ele>
        <time>2019-01-10T10:10:11Z</time>
      </trkpt>
      <trkpt lat="44.73326" lon="5.02578">
        <ele>308.72</ele>
        <time>2019-01-10T10:10:24Z</time>
      </trkpt>
      <trkpt lat="44.73335" lon="5.02584">
        <ele>309.68</ele>
        <time>2019-01-10T10:10:28Z</time>
      </trkpt>
      <trkpt lat="44.73342" lon="5.02589">
        <ele>311.12</ele>
        <time>2019-01-10T10:10:31Z</time>
      </trkpt>
      <trkpt lat="44.73363" lon="5.02606">
        <ele>313.53</ele>
        <time>2019-01-10T10:10:44Z</time>
      </trkpt>
      <trkpt lat="44.73379" lon="5.0262">
        <ele>316.41</ele>
        <time>2019-01-10T10:10:57Z</time>
      </trkpt>
      <trkpt lat="44.73398" lon="5.02641">
        <ele>319.3</ele>
        <time>2019-01-10T10:11:14Z</time>
      </trkpt>
      <trkpt lat="44.73409" lon="5.02655">
        <ele>322.66</ele>
        <time>2019-01-10T10:11:26Z</time>
      </trkpt>
      <trkpt lat="44.73414" lon="5.02661">
        <ele>324.58</ele>
        <time>2019-01-10T10:11:31Z</time>
      </trkpt>
      <trkpt lat="44.73428" lon="5.02674">
        <ele>327.95</ele>
        <time>2019-01-10T10:11:44Z</time>
      </trkpt>
      <trkpt lat="44.73429" lon="5.02674">
        <ele>327.95</ele>
        <time>2019-01-10T10:11:45Z</time>
      </trkpt>
      <trkpt lat="44.73443" lon="5.02689">
        <ele>331.31</ele>
        <time>2019-01-10T10:11:58Z</time>
      </trkpt>
      <trkpt lat="44.73444" lon="5.0269">
        <ele>331.79</ele>
        <time>2019-01-10T10:11:59Z</time>
      </trkpt>
      <trkpt lat="44.73453" lon="5.02707">
        <ele>334.68</ele>
        <time>2019-01-10T10:12:11Z</time>
      </trkpt>
      <trkpt lat="44.73455" lon="5.02709">
        <ele>335.16</ele>
        <time>2019-01-10T10:12:13Z</time>
      </trkpt>
      <trkpt lat="44.73459" lon="5.02712">
        <ele>336.6</ele>
        <time>2019-01-10T10:12:16Z</time>
      </trkpt>
      <trkpt lat="44.73475" lon="5.02713">
        <ele>336.12</ele>
        <time>2019-01-10T10:12:27Z</time>
      </trkpt>
      <trkpt lat="44.73481" lon="5.02725">
        <ele>339.48</ele>
        <time>2019-01-10T10:12:36Z</time>
      </trkpt>
      <trkpt lat="44.73479" lon="5.02735">
        <ele>340.44</ele>
        <time>2019-01-10T10:12:50Z</time>
      </trkpt>
      <trkpt lat="44.73474" lon="5.02737">
        <ele>341.89</ele>
        <time>2019-01-10T10:12:59Z</time>
      </trkpt>
      <trkpt lat="44.7347" lon="5.02737">
        <ele>343.33</ele>
        <time>2019-01-10T10:13:11Z</time>
      </trkpt>
      <trkpt lat="44.73469" lon="5.0274">
        <ele>345.25</ele>
        <time>2019-01-10T10:13:26Z</time>
      </trkpt>
      <trkpt lat="44.73468" lon="5.02741">
        <ele>346.69</ele>
        <time>2019-01-10T10:13:30Z</time>
      </trkpt>
      <trkpt lat="44.73468" lon="5.02742">
        <ele>346.69</ele>
        <time>2019-01-10T10:13:34Z</time>
      </trkpt>
      <trkpt lat="44.7347" lon="5.02746">
        <ele>347.65</ele>
        <time>2019-01-10T10:13:38Z</time>
      </trkpt>
      <trkpt lat="44.73474" lon="5.02751">
        <ele>349.1</ele>
        <time>2019-01-10T10:13:43Z</time>
      </trkpt>
      <trkpt lat="44.73474" lon="5.02751">
        <ele>348.62</ele>
        <time>2019-01-10T10:13:44Z</time>
      </trkpt>
      <trkpt lat="44.73486" lon="5.02761">
        <ele>351.98</ele>
        <time>2019-01-10T10:13:56Z</time>
      </trkpt>
      <trkpt lat="44.73494" lon="5.02769">
        <ele>350.54</ele>
        <time>2019-01-10T10:14:10Z</time>
      </trkpt>
      <trkpt lat="44.73499" lon="5.02773">
        <ele>351.5</ele>
        <time>2019-01-10T10:14:14Z</time>
      </trkpt>
      <trkpt lat="44.73501" lon="5.02776">
        <ele>350.54</ele>
        <time>2019-01-10T10:14:16Z</time>
      </trkpt>
      <trkpt lat="44.73523" lon="5.02796">
        <ele>350.54</ele>
        <time>2019-01-10T10:14:28Z</time>
      </trkpt>
      <trkpt lat="44.73545" lon="5.02814">
        <ele>349.58</ele>
        <time>2019-01-10T10:14:37Z</time>
      </trkpt>
      <trkpt lat="44.73564" lon="5.0283">
        <ele>352.94</ele>
        <time>2019-01-10T10:14:47Z</time>
      </trkpt>
      <trkpt lat="44.73571" lon="5.02836">
        <ele>353.42</ele>
        <time>2019-01-10T10:14:51Z</time>
      </trkpt>
      <trkpt lat="44.73581" lon="5.02844">
        <ele>354.38</ele>
        <time>2019-01-10T10:15:00Z</time>
      </trkpt>
      <trkpt lat="44.73593" lon="5.02847">
        <ele>357.27</ele>
        <time>2019-01-10T10:15:10Z</time>
      </trkpt>
      <trkpt lat="44.73594" lon="5.02847">
        <ele>357.27</ele>
        <time>2019-01-10T10:15:11Z</time>
      </trkpt>
      <trkpt lat="44.73597" lon="5.0285">
        <ele>358.23</ele>
        <time>2019-01-10T10:15:14Z</time>
      </trkpt>
      <trkpt lat="44.73611" lon="5.02854">
        <ele>359.67</ele>
        <time>2019-01-10T10:15:26Z</time>
      </trkpt>
      <trkpt lat="44.73617" lon="5.02858">
        <ele>360.63</ele>
        <time>2019-01-10T10:15:32Z</time>
      </trkpt>
      <trkpt lat="44.73633" lon="5.02859">
        <ele>363.04</ele>
        <time>2019-01-10T10:15:47Z</time>
      </trkpt>
      <trkpt lat="44.73641" lon="5.02861">
        <ele>362.07</ele>
        <time>2019-01-10T10:15:55Z</time>
      </trkpt>
      <trkpt lat="44.73649" lon="5.02862">
        <ele>364.48</ele>
        <time>2019-01-10T10:16:00Z</time>
      </trkpt>
      <trkpt lat="44.73652" lon="5.02866">
        <ele>365.44</ele>
        <time>2019-01-10T10:16:02Z</time>
      </trkpt>
      <trkpt lat="44.73663" lon="5.02899">
        <ele>364</ele>
        <time>2019-01-10T10:16:12Z</time>
      </trkpt>
      <trkpt lat="44.73668" lon="5.02909">
        <ele>363.04</ele>
        <time>2019-01-10T10:16:23Z</time>
      </trkpt>
      <trkpt lat="44.73668" lon="5.02909">
        <ele>366.4</ele>
        <time>2019-01-10T10:16:24Z</time>
      </trkpt>
      <trkpt lat="44.73669" lon="5.02912">
        <ele>364.48</ele>
        <time>2019-01-10T10:16:40Z</time>
      </trkpt>
      <trkpt lat="44.73672" lon="5.02916">
        <ele>364</ele>
        <time>2019-01-10T10:16:42Z</time>
      </trkpt>
      <trkpt lat="44.73677" lon="5.0292">
        <ele>365.44</ele>
        <time>2019-01-10T10:16:52Z</time>
      </trkpt>
      <trkpt lat="44.73677" lon="5.02921">
        <ele>365.92</ele>
        <time>2019-01-10T10:16:53Z</time>
      </trkpt>
      <trkpt lat="44.73689" lon="5.02931">
        <ele>366.88</ele>
        <time>2019-01-10T10:17:04Z</time>
      </trkpt>
      <trkpt lat="44.73695" lon="5.02929">
        <ele>368.32</ele>
        <time>2019-01-10T10:17:09Z</time>
      </trkpt>
      <trkpt lat="44.737" lon="5.0293">
        <ele>368.32</ele>
        <time>2019-01-10T10:17:14Z</time>
      </trkpt>
      <trkpt lat="44.73705" lon="5.02933">
        <ele>369.76</ele>
        <time>2019-01-10T10:17:19Z</time>
      </trkpt>
      <trkpt lat="44.73707" lon="5.02934">
        <ele>370.24</ele>
        <time>2019-01-10T10:17:21Z</time>
      </trkpt>
      <trkpt lat="44.73719" lon="5.0294">
        <ele>372.17</ele>
        <time>2019-01-10T10:17:33Z</time>
      </trkpt>
      <trkpt lat="44.73728" lon="5.02942">
        <ele>375.53</ele>
        <time>2019-01-10T10:17:41Z</time>
      </trkpt>
      <trkpt lat="44.73733" lon="5.02942">
        <ele>377.45</ele>
        <time>2019-01-10T10:17:45Z</time>
      </trkpt>
      <trkpt lat="44.73737" lon="5.02946">
        <ele>376.97</ele>
        <time>2019-01-10T10:17:49Z</time>
      </trkpt>
      <trkpt lat="44.73749" lon="5.02945">
        <ele>379.86</ele>
        <time>2019-01-10T10:18:02Z</time>
      </trkpt>
      <trkpt lat="44.73759" lon="5.02944">
        <ele>382.74</ele>
        <time>2019-01-10T10:18:15Z</time>
      </trkpt>
      <trkpt lat="44.7376" lon="5.02944">
        <ele>383.7</ele>
        <time>2019-01-10T10:18:17Z</time>
      </trkpt>
      <trkpt lat="44.73765" lon="5.02945">
        <ele>384.18</ele>
        <time>2019-01-10T10:18:27Z</time>
      </trkpt>
      <trkpt lat="44.73774" lon="5.02951">
        <ele>386.59</ele>
        <time>2019-01-10T10:18:40Z</time>
      </trkpt>
      <trkpt lat="44.73774" lon="5.02952">
        <ele>386.11</ele>
        <time>2019-01-10T10:18:47Z</time>
      </trkpt>
      <trkpt lat="44.73776" lon="5.02952">
        <ele>386.11</ele>
        <time>2019-01-10T10:18:55Z</time>
      </trkpt>
      <trkpt lat="44.73781" lon="5.02956">
        <ele>387.07</ele>
        <time>2019-01-10T10:19:00Z</time>
      </trkpt>
      <trkpt lat="44.73783" lon="5.02957">
        <ele>387.07</ele>
        <time>2019-01-10T10:19:01Z</time>
      </trkpt>
      <trkpt lat="44.73787" lon="5.02957">
        <ele>388.51</ele>
        <time>2019-01-10T10:19:04Z</time>
      </trkpt>
      <trkpt lat="44.73791" lon="5.02958">
        <ele>388.99</ele>
        <time>2019-01-10T10:19:07Z</time>
      </trkpt>
      <trkpt lat="44.73804" lon="5.02963">
        <ele>391.39</ele>
        <time>2019-01-10T10:19:17Z</time>
      </trkpt>
      <trkpt lat="44.73809" lon="5.0296">
        <ele>392.36</ele>
        <time>2019-01-10T10:19:21Z</time>
      </trkpt>
      <trkpt lat="44.73819" lon="5.02961">
        <ele>394.76</ele>
        <time>2019-01-10T10:19:35Z</time>
      </trkpt>
      <trkpt lat="44.7382" lon="5.02962">
        <ele>393.8</ele>
        <time>2019-01-10T10:19:42Z</time>
      </trkpt>
      <trkpt lat="44.73836" lon="5.02968">
        <ele>393.8</ele>
        <time>2019-01-10T10:19:53Z</time>
      </trkpt>
      <trkpt lat="44.7385" lon="5.02981">
        <ele>394.76</ele>
        <time>2019-01-10T10:20:03Z</time>
      </trkpt>
      <trkpt lat="44.73852" lon="5.02982">
        <ele>394.76</ele>
        <time>2019-01-10T10:20:04Z</time>
      </trkpt>
      <trkpt lat="44.73878" lon="5.02993">
        <ele>396.2</ele>
        <time>2019-01-10T10:20:18Z</time>
      </trkpt>
      <trkpt lat="44.73885" lon="5.02995">
        <ele>398.12</ele>
        <time>2019-01-10T10:20:21Z</time>
      </trkpt>
      <trkpt lat="44.73893" lon="5.03004">
        <ele>400.05</ele>
        <time>2019-01-10T10:20:27Z</time>
      </trkpt>
      <trkpt lat="44.73896" lon="5.03005">
        <ele>399.57</ele>
        <time>2019-01-10T10:20:29Z</time>
      </trkpt>
      <trkpt lat="44.739" lon="5.03006">
        <ele>398.6</ele>
        <time>2019-01-10T10:20:31Z</time>
      </trkpt>
      <trkpt lat="44.73904" lon="5.03009">
        <ele>399.08</ele>
        <time>2019-01-10T10:20:33Z</time>
      </trkpt>
      <trkpt lat="44.73906" lon="5.03014">
        <ele>400.53</ele>
        <time>2019-01-10T10:20:36Z</time>
      </trkpt>
      <trkpt lat="44.73921" lon="5.03019">
        <ele>399.08</ele>
        <time>2019-01-10T10:20:45Z</time>
      </trkpt>
      <trkpt lat="44.73937" lon="5.03021">
        <ele>399.57</ele>
        <time>2019-01-10T10:20:55Z</time>
      </trkpt>
      <trkpt lat="44.73944" lon="5.03021">
        <ele>399.57</ele>
        <time>2019-01-10T10:21:04Z</time>
      </trkpt>
      <trkpt lat="44.73945" lon="5.03021">
        <ele>399.57</ele>
        <time>2019-01-10T10:21:07Z</time>
      </trkpt>
      <trkpt lat="44.7395" lon="5.03023">
        <ele>398.6</ele>
        <time>2019-01-10T10:21:12Z</time>
      </trkpt>
      <trkpt lat="44.73956" lon="5.03028">
        <ele>399.08</ele>
        <time>2019-01-10T10:21:21Z</time>
      </trkpt>
      <trkpt lat="44.7396" lon="5.0303">
        <ele>398.12</ele>
        <time>2019-01-10T10:21:23Z</time>
      </trkpt>
      <trkpt lat="44.73963" lon="5.03033">
        <ele>398.6</ele>
        <time>2019-01-10T10:21:26Z</time>
      </trkpt>
      <trkpt lat="44.73973" lon="5.03035">
        <ele>398.12</ele>
        <time>2019-01-10T10:21:36Z</time>
      </trkpt>
      <trkpt lat="44.73981" lon="5.03036">
        <ele>396.68</ele>
        <time>2019-01-10T10:21:48Z</time>
      </trkpt>
      <trkpt lat="44.73982" lon="5.03036">
        <ele>396.68</ele>
        <time>2019-01-10T10:21:50Z</time>
      </trkpt>
      <trkpt lat="44.73988" lon="5.03037">
        <ele>395.72</ele>
        <time>2019-01-10T10:21:56Z</time>
      </trkpt>
      <trkpt lat="44.73995" lon="5.03039">
        <ele>394.76</ele>
        <time>2019-01-10T10:22:00Z</time>
      </trkpt>
      <trkpt lat="44.74026" lon="5.03046">
        <ele>393.8</ele>
        <time>2019-01-10T10:22:11Z</time>
      </trkpt>
      <trkpt lat="44.74057" lon="5.03056">
        <ele>392.84</ele>
        <time>2019-01-10T10:22:21Z</time>
      </trkpt>
      <trkpt lat="44.74087" lon="5.03063">
        <ele>392.36</ele>
        <time>2019-01-10T10:22:30Z</time>
      </trkpt>
      <trkpt lat="44.741" lon="5.03063">
        <ele>395.72</ele>
        <time>2019-01-10T10:22:34Z</time>
      </trkpt>
      <trkpt lat="44.74104" lon="5.03062">
        <ele>392.36</ele>
        <time>2019-01-10T10:22:35Z</time>
      </trkpt>
      <trkpt lat="44.74113" lon="5.03062">
        <ele>392.36</ele>
        <time>2019-01-10T10:22:43Z</time>
      </trkpt>
      <trkpt lat="44.74122" lon="5.03063">
        <ele>391.87</ele>
        <time>2019-01-10T10:22:54Z</time>
      </trkpt>
      <trkpt lat="44.74154" lon="5.03069">
        <ele>391.87</ele>
        <time>2019-01-10T10:23:05Z</time>
      </trkpt>
      <trkpt lat="44.74174" lon="5.03075">
        <ele>392.36</ele>
        <time>2019-01-10T10:23:11Z</time>
      </trkpt>
      <trkpt lat="44.74193" lon="5.03081">
        <ele>392.36</ele>
        <time>2019-01-10T10:23:17Z</time>
      </trkpt>
      <trkpt lat="44.74204" lon="5.03084">
        <ele>394.28</ele>
        <time>2019-01-10T10:23:21Z</time>
      </trkpt>
      <trkpt lat="44.74228" lon="5.03087">
        <ele>393.8</ele>
        <time>2019-01-10T10:23:31Z</time>
      </trkpt>
      <trkpt lat="44.74251" lon="5.03095">
        <ele>394.28</ele>
        <time>2019-01-10T10:23:39Z</time>
      </trkpt>
      <trkpt lat="44.74285" lon="5.03113">
        <ele>395.72</ele>
        <time>2019-01-10T10:23:51Z</time>
      </trkpt>
      <trkpt lat="44.74309" lon="5.03116">
        <ele>395.24</ele>
        <time>2019-01-10T10:23:58Z</time>
      </trkpt>
      <trkpt lat="44.74326" lon="5.03122">
        <ele>395.72</ele>
        <time>2019-01-10T10:24:03Z</time>
      </trkpt>
      <trkpt lat="44.74343" lon="5.03134">
        <ele>396.68</ele>
        <time>2019-01-10T10:24:11Z</time>
      </trkpt>
      <trkpt lat="44.74358" lon="5.03141">
        <ele>395.72</ele>
        <time>2019-01-10T10:24:17Z</time>
      </trkpt>
      <trkpt lat="44.74388" lon="5.03154">
        <ele>394.76</ele>
        <time>2019-01-10T10:24:26Z</time>
      </trkpt>
      <trkpt lat="44.74411" lon="5.03161">
        <ele>396.68</ele>
        <time>2019-01-10T10:24:35Z</time>
      </trkpt>
      <trkpt lat="44.74422" lon="5.03162">
        <ele>396.68</ele>
        <time>2019-01-10T10:24:46Z</time>
      </trkpt>
      <trkpt lat="44.74439" lon="5.03166">
        <ele>397.16</ele>
        <time>2019-01-10T10:24:55Z</time>
      </trkpt>
      <trkpt lat="44.74441" lon="5.03167">
        <ele>396.68</ele>
        <time>2019-01-10T10:24:56Z</time>
      </trkpt>
      <trkpt lat="44.74451" lon="5.03172">
        <ele>397.64</ele>
        <time>2019-01-10T10:25:00Z</time>
      </trkpt>
      <trkpt lat="44.74489" lon="5.03193">
        <ele>398.12</ele>
        <time>2019-01-10T10:25:12Z</time>
      </trkpt>
      <trkpt lat="44.74511" lon="5.03204">
        <ele>400.05</ele>
        <time>2019-01-10T10:25:20Z</time>
      </trkpt>
      <trkpt lat="44.74515" lon="5.03205">
        <ele>400.53</ele>
        <time>2019-01-10T10:25:22Z</time>
      </trkpt>
      <trkpt lat="44.74539" lon="5.0321">
        <ele>399.57</ele>
        <time>2019-01-10T10:25:30Z</time>
      </trkpt>
      <trkpt lat="44.74571" lon="5.03246">
        <ele>399.08</ele>
        <time>2019-01-10T10:25:42Z</time>
      </trkpt>
      <trkpt lat="44.74575" lon="5.03249">
        <ele>398.12</ele>
        <time>2019-01-10T10:25:43Z</time>
      </trkpt>
      <trkpt lat="44.74583" lon="5.03254">
        <ele>396.68</ele>
        <time>2019-01-10T10:25:45Z</time>
      </trkpt>
      <trkpt lat="44.74588" lon="5.03256">
        <ele>395.72</ele>
        <time>2019-01-10T10:25:46Z</time>
      </trkpt>
      <trkpt lat="44.74591" lon="5.03257">
        <ele>395.72</ele>
        <time>2019-01-10T10:25:47Z</time>
      </trkpt>
      <trkpt lat="44.74609" lon="5.0326">
        <ele>391.87</ele>
        <time>2019-01-10T10:25:52Z</time>
      </trkpt>
      <trkpt lat="44.74613" lon="5.0326">
        <ele>391.39</ele>
        <time>2019-01-10T10:25:53Z</time>
      </trkpt>
      <trkpt lat="44.74618" lon="5.03261">
        <ele>389.47</ele>
        <time>2019-01-10T10:25:54Z</time>
      </trkpt>
      <trkpt lat="44.74623" lon="5.03262">
        <ele>387.55</ele>
        <time>2019-01-10T10:25:55Z</time>
      </trkpt>
      <trkpt lat="44.74628" lon="5.03264">
        <ele>386.11</ele>
        <time>2019-01-10T10:25:56Z</time>
      </trkpt>
      <trkpt lat="44.74633" lon="5.03266">
        <ele>386.11</ele>
        <time>2019-01-10T10:25:57Z</time>
      </trkpt>
      <trkpt lat="44.74637" lon="5.03267">
        <ele>384.66</ele>
        <time>2019-01-10T10:25:58Z</time>
      </trkpt>
      <trkpt lat="44.74642" lon="5.03267">
        <ele>383.7</ele>
        <time>2019-01-10T10:25:59Z</time>
      </trkpt>
      <trkpt lat="44.74645" lon="5.03266">
        <ele>383.22</ele>
        <time>2019-01-10T10:26:00Z</time>
      </trkpt>
      <trkpt lat="44.74648" lon="5.03266">
        <ele>382.26</ele>
        <time>2019-01-10T10:26:01Z</time>
      </trkpt>
      <trkpt lat="44.74652" lon="5.03264">
        <ele>380.82</ele>
        <time>2019-01-10T10:26:02Z</time>
      </trkpt>
      <trkpt lat="44.74655" lon="5.03263">
        <ele>380.34</ele>
        <time>2019-01-10T10:26:03Z</time>
      </trkpt>
      <trkpt lat="44.74659" lon="5.03262">
        <ele>379.86</ele>
        <time>2019-01-10T10:26:04Z</time>
      </trkpt>
      <trkpt lat="44.74662" lon="5.03261">
        <ele>378.42</ele>
        <time>2019-01-10T10:26:05Z</time>
      </trkpt>
      <trkpt lat="44.74665" lon="5.03262">
        <ele>377.94</ele>
        <time>2019-01-10T10:26:06Z</time>
      </trkpt>
      <trkpt lat="44.74669" lon="5.03263">
        <ele>376.97</ele>
        <time>2019-01-10T10:26:07Z</time>
      </trkpt>
      <trkpt lat="44.74672" lon="5.03264">
        <ele>375.53</ele>
        <time>2019-01-10T10:26:08Z</time>
      </trkpt>
      <trkpt lat="44.74676" lon="5.03266">
        <ele>375.05</ele>
        <time>2019-01-10T10:26:09Z</time>
      </trkpt>
      <trkpt lat="44.74681" lon="5.03268">
        <ele>375.05</ele>
        <time>2019-01-10T10:26:10Z</time>
      </trkpt>
      <trkpt lat="44.74686" lon="5.0327">
        <ele>373.61</ele>
        <time>2019-01-10T10:26:11Z</time>
      </trkpt>
      <trkpt lat="44.74699" lon="5.03275">
        <ele>370.24</ele>
        <time>2019-01-10T10:26:14Z</time>
      </trkpt>
      <trkpt lat="44.74704" lon="5.03277">
        <ele>368.8</ele>
        <time>2019-01-10T10:26:16Z</time>
      </trkpt>
      <trkpt lat="44.74707" lon="5.03278">
        <ele>368.32</ele>
        <time>2019-01-10T10:26:17Z</time>
      </trkpt>
      <trkpt lat="44.7471" lon="5.03278">
        <ele>367.36</ele>
        <time>2019-01-10T10:26:18Z</time>
      </trkpt>
      <trkpt lat="44.74712" lon="5.03278">
        <ele>366.4</ele>
        <time>2019-01-10T10:26:19Z</time>
      </trkpt>
      <trkpt lat="44.74713" lon="5.03279">
        <ele>364.96</ele>
        <time>2019-01-10T10:26:20Z</time>
      </trkpt>
      <trkpt lat="44.74715" lon="5.0328">
        <ele>364.48</ele>
        <time>2019-01-10T10:26:21Z</time>
      </trkpt>
      <trkpt lat="44.74717" lon="5.0328">
        <ele>363.52</ele>
        <time>2019-01-10T10:26:22Z</time>
      </trkpt>
      <trkpt lat="44.7472" lon="5.0328">
        <ele>362.07</ele>
        <time>2019-01-10T10:26:23Z</time>
      </trkpt>
      <trkpt lat="44.74721" lon="5.03281">
        <ele>361.59</ele>
        <time>2019-01-10T10:26:24Z</time>
      </trkpt>
      <trkpt lat="44.74723" lon="5.03282">
        <ele>361.11</ele>
        <time>2019-01-10T10:26:25Z</time>
      </trkpt>
      <trkpt lat="44.74726" lon="5.03281">
        <ele>359.67</ele>
        <time>2019-01-10T10:26:26Z</time>
      </trkpt>
      <trkpt lat="44.74728" lon="5.03282">
        <ele>358.71</ele>
        <time>2019-01-10T10:26:27Z</time>
      </trkpt>
      <trkpt lat="44.7473" lon="5.03283">
        <ele>358.23</ele>
        <time>2019-01-10T10:26:28Z</time>
      </trkpt>
      <trkpt lat="44.74733" lon="5.03285">
        <ele>357.27</ele>
        <time>2019-01-10T10:26:29Z</time>
      </trkpt>
      <trkpt lat="44.74738" lon="5.03288">
        <ele>356.31</ele>
        <time>2019-01-10T10:26:31Z</time>
      </trkpt>
      <trkpt lat="44.74745" lon="5.03292">
        <ele>355.34</ele>
        <time>2019-01-10T10:26:42Z</time>
      </trkpt>
      <trkpt lat="44.74747" lon="5.03293">
        <ele>354.38</ele>
        <time>2019-01-10T10:26:44Z</time>
      </trkpt>
      <trkpt lat="44.74755" lon="5.03299">
        <ele>354.38</ele>
        <time>2019-01-10T10:26:52Z</time>
      </trkpt>
      <trkpt lat="44.74756" lon="5.033">
        <ele>354.38</ele>
        <time>2019-01-10T10:26:53Z</time>
      </trkpt>
      <trkpt lat="44.74758" lon="5.033">
        <ele>353.9</ele>
        <time>2019-01-10T10:26:54Z</time>
      </trkpt>
      <trkpt lat="44.74763" lon="5.03304">
        <ele>352.46</ele>
        <time>2019-01-10T10:26:58Z</time>
      </trkpt>
      <trkpt lat="44.74764" lon="5.03303">
        <ele>351.98</ele>
        <time>2019-01-10T10:27:06Z</time>
      </trkpt>
      <trkpt lat="44.74762" lon="5.03299">
        <ele>351.02</ele>
        <time>2019-01-10T10:27:08Z</time>
      </trkpt>
      <trkpt lat="44.74761" lon="5.03295">
        <ele>350.54</ele>
        <time>2019-01-10T10:27:09Z</time>
      </trkpt>
      <trkpt lat="44.7476" lon="5.03291">
        <ele>350.06</ele>
        <time>2019-01-10T10:27:10Z</time>
      </trkpt>
      <trkpt lat="44.74759" lon="5.03286">
        <ele>348.62</ele>
        <time>2019-01-10T10:27:11Z</time>
      </trkpt>
      <trkpt lat="44.74757" lon="5.03281">
        <ele>347.65</ele>
        <time>2019-01-10T10:27:12Z</time>
      </trkpt>
      <trkpt lat="44.74755" lon="5.03276">
        <ele>346.69</ele>
        <time>2019-01-10T10:27:13Z</time>
      </trkpt>
      <trkpt lat="44.74751" lon="5.03263">
        <ele>344.29</ele>
        <time>2019-01-10T10:27:15Z</time>
      </trkpt>
      <trkpt lat="44.74748" lon="5.0325">
        <ele>342.85</ele>
        <time>2019-01-10T10:27:17Z</time>
      </trkpt>
      <trkpt lat="44.74746" lon="5.03243">
        <ele>342.37</ele>
        <time>2019-01-10T10:27:18Z</time>
      </trkpt>
      <trkpt lat="44.74737" lon="5.03227">
        <ele>339</ele>
        <time>2019-01-10T10:27:20Z</time>
      </trkpt>
      <trkpt lat="44.74723" lon="5.03205">
        <ele>335.16</ele>
        <time>2019-01-10T10:27:23Z</time>
      </trkpt>
      <trkpt lat="44.74713" lon="5.03191">
        <ele>333.23</ele>
        <time>2019-01-10T10:27:25Z</time>
      </trkpt>
      <trkpt lat="44.74709" lon="5.03183">
        <ele>331.31</ele>
        <time>2019-01-10T10:27:26Z</time>
      </trkpt>
      <trkpt lat="44.74707" lon="5.03173">
        <ele>330.35</ele>
        <time>2019-01-10T10:27:27Z</time>
      </trkpt>
      <trkpt lat="44.74704" lon="5.03162">
        <ele>329.87</ele>
        <time>2019-01-10T10:27:28Z</time>
      </trkpt>
      <trkpt lat="44.74703" lon="5.03151">
        <ele>328.43</ele>
        <time>2019-01-10T10:27:29Z</time>
      </trkpt>
      <trkpt lat="44.74703" lon="5.0314">
        <ele>327.95</ele>
        <time>2019-01-10T10:27:30Z</time>
      </trkpt>
      <trkpt lat="44.74703" lon="5.03129">
        <ele>327.95</ele>
        <time>2019-01-10T10:27:31Z</time>
      </trkpt>
      <trkpt lat="44.747" lon="5.03078">
        <ele>324.58</ele>
        <time>2019-01-10T10:27:36Z</time>
      </trkpt>
      <trkpt lat="44.74697" lon="5.03069">
        <ele>324.58</ele>
        <time>2019-01-10T10:27:37Z</time>
      </trkpt>
      <trkpt lat="44.7469" lon="5.03053">
        <ele>323.14</ele>
        <time>2019-01-10T10:27:39Z</time>
      </trkpt>
      <trkpt lat="44.74687" lon="5.03046">
        <ele>322.66</ele>
        <time>2019-01-10T10:27:40Z</time>
      </trkpt>
      <trkpt lat="44.74683" lon="5.03039">
        <ele>321.7</ele>
        <time>2019-01-10T10:27:41Z</time>
      </trkpt>
      <trkpt lat="44.74663" lon="5.03016">
        <ele>318.33</ele>
        <time>2019-01-10T10:27:45Z</time>
      </trkpt>
      <trkpt lat="44.74643" lon="5.03">
        <ele>317.37</ele>
        <time>2019-01-10T10:27:51Z</time>
      </trkpt>
      <trkpt lat="44.7464" lon="5.02997">
        <ele>316.89</ele>
        <time>2019-01-10T10:27:52Z</time>
      </trkpt>
      <trkpt lat="44.74633" lon="5.02991">
        <ele>316.41</ele>
        <time>2019-01-10T10:27:54Z</time>
      </trkpt>
      <trkpt lat="44.74629" lon="5.02988">
        <ele>316.41</ele>
        <time>2019-01-10T10:27:55Z</time>
      </trkpt>
      <trkpt lat="44.74626" lon="5.02983">
        <ele>315.45</ele>
        <time>2019-01-10T10:27:56Z</time>
      </trkpt>
      <trkpt lat="44.74623" lon="5.02977">
        <ele>314.97</ele>
        <time>2019-01-10T10:27:57Z</time>
      </trkpt>
      <trkpt lat="44.74618" lon="5.02972">
        <ele>314.01</ele>
        <time>2019-01-10T10:27:58Z</time>
      </trkpt>
      <trkpt lat="44.74614" lon="5.02967">
        <ele>313.53</ele>
        <time>2019-01-10T10:27:59Z</time>
      </trkpt>
      <trkpt lat="44.74598" lon="5.02951">
        <ele>311.12</ele>
        <time>2019-01-10T10:28:02Z</time>
      </trkpt>
      <trkpt lat="44.74594" lon="5.02949">
        <ele>310.16</ele>
        <time>2019-01-10T10:28:03Z</time>
      </trkpt>
      <trkpt lat="44.74589" lon="5.02947">
        <ele>310.16</ele>
        <time>2019-01-10T10:28:04Z</time>
      </trkpt>
      <trkpt lat="44.74584" lon="5.02946">
        <ele>309.2</ele>
        <time>2019-01-10T10:28:05Z</time>
      </trkpt>
      <trkpt lat="44.74579" lon="5.02945">
        <ele>308.72</ele>
        <time>2019-01-10T10:28:06Z</time>
      </trkpt>
      <trkpt lat="44.74575" lon="5.02944">
        <ele>308.72</ele>
        <time>2019-01-10T10:28:07Z</time>
      </trkpt>
      <trkpt lat="44.74574" lon="5.02942">
        <ele>308.72</ele>
        <time>2019-01-10T10:28:08Z</time>
      </trkpt>
      <trkpt lat="44.74574" lon="5.02939">
        <ele>308.24</ele>
        <time>2019-01-10T10:28:09Z</time>
      </trkpt>
      <trkpt lat="44.74594" lon="5.02943">
        <ele>307.76</ele>
        <time>2019-01-10T10:28:16Z</time>
      </trkpt>
      <trkpt lat="44.74624" lon="5.02953">
        <ele>307.28</ele>
        <time>2019-01-10T10:28:27Z</time>
      </trkpt>
      <trkpt lat="44.74632" lon="5.02958">
        <ele>305.84</ele>
        <time>2019-01-10T10:28:29Z</time>
      </trkpt>
      <trkpt lat="44.74636" lon="5.02961">
        <ele>305.84</ele>
        <time>2019-01-10T10:28:30Z</time>
      </trkpt>
      <trkpt lat="44.74641" lon="5.02964">
        <ele>304.88</ele>
        <time>2019-01-10T10:28:31Z</time>
      </trkpt>
      <trkpt lat="44.74666" lon="5.02974">
        <ele>303.91</ele>
        <time>2019-01-10T10:28:40Z</time>
      </trkpt>
      <trkpt lat="44.74687" lon="5.02982">
        <ele>302.95</ele>
        <time>2019-01-10T10:28:48Z</time>
      </trkpt>
      <trkpt lat="44.74709" lon="5.02996">
        <ele>301.99</ele>
        <time>2019-01-10T10:28:53Z</time>
      </trkpt>
      <trkpt lat="44.74717" lon="5.03006">
        <ele>301.51</ele>
        <time>2019-01-10T10:28:55Z</time>
      </trkpt>
      <trkpt lat="44.7472" lon="5.03011">
        <ele>300.55</ele>
        <time>2019-01-10T10:28:56Z</time>
      </trkpt>
      <trkpt lat="44.7473" lon="5.03031">
        <ele>299.59</ele>
        <time>2019-01-10T10:29:00Z</time>
      </trkpt>
      <trkpt lat="44.74731" lon="5.03037">
        <ele>299.11</ele>
        <time>2019-01-10T10:29:01Z</time>
      </trkpt>
      <trkpt lat="44.74733" lon="5.03042">
        <ele>298.63</ele>
        <time>2019-01-10T10:29:02Z</time>
      </trkpt>
      <trkpt lat="44.74735" lon="5.03048">
        <ele>298.63</ele>
        <time>2019-01-10T10:29:03Z</time>
      </trkpt>
      <trkpt lat="44.74738" lon="5.03055">
        <ele>297.67</ele>
        <time>2019-01-10T10:29:04Z</time>
      </trkpt>
      <trkpt lat="44.74749" lon="5.03084">
        <ele>297.18</ele>
        <time>2019-01-10T10:29:08Z</time>
      </trkpt>
      <trkpt lat="44.74751" lon="5.03093">
        <ele>297.18</ele>
        <time>2019-01-10T10:29:09Z</time>
      </trkpt>
      <trkpt lat="44.74758" lon="5.0311">
        <ele>297.18</ele>
        <time>2019-01-10T10:29:11Z</time>
      </trkpt>
      <trkpt lat="44.74762" lon="5.03116">
        <ele>297.67</ele>
        <time>2019-01-10T10:29:12Z</time>
      </trkpt>
      <trkpt lat="44.74766" lon="5.03121">
        <ele>297.67</ele>
        <time>2019-01-10T10:29:13Z</time>
      </trkpt>
      <trkpt lat="44.7477" lon="5.03123">
        <ele>297.18</ele>
        <time>2019-01-10T10:29:14Z</time>
      </trkpt>
      <trkpt lat="44.74775" lon="5.03122">
        <ele>296.7</ele>
        <time>2019-01-10T10:29:15Z</time>
      </trkpt>
      <trkpt lat="44.74779" lon="5.03118">
        <ele>296.22</ele>
        <time>2019-01-10T10:29:16Z</time>
      </trkpt>
      <trkpt lat="44.74784" lon="5.03113">
        <ele>296.7</ele>
        <time>2019-01-10T10:29:17Z</time>
      </trkpt>
      <trkpt lat="44.74787" lon="5.03108">
        <ele>297.18</ele>
        <time>2019-01-10T10:29:18Z</time>
      </trkpt>
      <trkpt lat="44.74823" lon="5.03066">
        <ele>299.11</ele>
        <time>2019-01-10T10:29:29Z</time>
      </trkpt>
      <trkpt lat="44.74873" lon="5.03038">
        <ele>298.63</ele>
        <time>2019-01-10T10:29:41Z</time>
      </trkpt>
      <trkpt lat="44.74884" lon="5.03035">
        <ele>298.15</ele>
        <time>2019-01-10T10:29:44Z</time>
      </trkpt>
      <trkpt lat="44.74893" lon="5.03032">
        <ele>298.63</ele>
        <time>2019-01-10T10:29:46Z</time>
      </trkpt>
      <trkpt lat="44.74898" lon="5.03031">
        <ele>298.63</ele>
        <time>2019-01-10T10:29:47Z</time>
      </trkpt>
      <trkpt lat="44.74951" lon="5.03015">
        <ele>297.67</ele>
        <time>2019-01-10T10:29:59Z</time>
      </trkpt>
      <trkpt lat="44.74955" lon="5.03014">
        <ele>297.67</ele>
        <time>2019-01-10T10:30:00Z</time>
      </trkpt>
      <trkpt lat="44.74959" lon="5.03014">
        <ele>297.67</ele>
        <time>2019-01-10T10:30:01Z</time>
      </trkpt>
      <trkpt lat="44.74964" lon="5.03014">
        <ele>297.18</ele>
        <time>2019-01-10T10:30:02Z</time>
      </trkpt>
      <trkpt lat="44.74968" lon="5.03014">
        <ele>297.18</ele>
        <time>2019-01-10T10:30:03Z</time>
      </trkpt>
      <trkpt lat="44.75008" lon="5.03011">
        <ele>297.18</ele>
        <time>2019-01-10T10:30:13Z</time>
      </trkpt>
      <trkpt lat="44.75025" lon="5.0301">
        <ele>296.22</ele>
        <time>2019-01-10T10:30:17Z</time>
      </trkpt>
      <trkpt lat="44.75043" lon="5.0301">
        <ele>294.3</ele>
        <time>2019-01-10T10:30:22Z</time>
      </trkpt>
      <trkpt lat="44.75068" lon="5.03006">
        <ele>296.22</ele>
        <time>2019-01-10T10:30:29Z</time>
      </trkpt>
      <trkpt lat="44.75122" lon="5.02994">
        <ele>298.63</ele>
        <time>2019-01-10T10:30:43Z</time>
      </trkpt>
      <trkpt lat="44.7513" lon="5.02994">
        <ele>299.11</ele>
        <time>2019-01-10T10:30:45Z</time>
      </trkpt>
      <trkpt lat="44.75178" lon="5.03015">
        <ele>299.11</ele>
        <time>2019-01-10T10:30:58Z</time>
      </trkpt>
      <trkpt lat="44.75195" lon="5.03015">
        <ele>297.18</ele>
        <time>2019-01-10T10:31:02Z</time>
      </trkpt>
      <trkpt lat="44.75199" lon="5.03014">
        <ele>297.18</ele>
        <time>2019-01-10T10:31:03Z</time>
      </trkpt>
      <trkpt lat="44.75242" lon="5.03011">
        <ele>300.55</ele>
        <time>2019-01-10T10:31:14Z</time>
      </trkpt>
      <trkpt lat="44.75245" lon="5.03012">
        <ele>300.55</ele>
        <time>2019-01-10T10:31:15Z</time>
      </trkpt>
      <trkpt lat="44.7526" lon="5.03015">
        <ele>299.59</ele>
        <time>2019-01-10T10:31:19Z</time>
      </trkpt>
      <trkpt lat="44.75293" lon="5.03021">
        <ele>296.22</ele>
        <time>2019-01-10T10:31:26Z</time>
      </trkpt>
      <trkpt lat="44.75323" lon="5.03027">
        <ele>294.3</ele>
        <time>2019-01-10T10:31:32Z</time>
      </trkpt>
      <trkpt lat="44.75375" lon="5.03038">
        <ele>296.22</ele>
        <time>2019-01-10T10:31:43Z</time>
      </trkpt>
      <trkpt lat="44.75389" lon="5.0304">
        <ele>296.7</ele>
        <time>2019-01-10T10:31:46Z</time>
      </trkpt>
      <trkpt lat="44.75394" lon="5.03041">
        <ele>297.18</ele>
        <time>2019-01-10T10:31:47Z</time>
      </trkpt>
      <trkpt lat="44.75398" lon="5.03042">
        <ele>297.18</ele>
        <time>2019-01-10T10:31:48Z</time>
      </trkpt>
      <trkpt lat="44.75408" lon="5.03042">
        <ele>297.67</ele>
        <time>2019-01-10T10:31:50Z</time>
      </trkpt>
      <trkpt lat="44.75416" lon="5.03043">
        <ele>298.15</ele>
        <time>2019-01-10T10:31:52Z</time>
      </trkpt>
      <trkpt lat="44.75421" lon="5.03043">
        <ele>297.67</ele>
        <time>2019-01-10T10:31:53Z</time>
      </trkpt>
      <trkpt lat="44.75457" lon="5.03044">
        <ele>294.3</ele>
        <time>2019-01-10T10:31:59Z</time>
      </trkpt>
      <trkpt lat="44.75463" lon="5.03044">
        <ele>294.3</ele>
        <time>2019-01-10T10:32:00Z</time>
      </trkpt>
      <trkpt lat="44.75497" lon="5.03044">
        <ele>290.94</ele>
        <time>2019-01-10T10:32:05Z</time>
      </trkpt>
      <trkpt lat="44.75529" lon="5.03042">
        <ele>287.09</ele>
        <time>2019-01-10T10:32:09Z</time>
      </trkpt>
      <trkpt lat="44.75559" lon="5.03042">
        <ele>283.73</ele>
        <time>2019-01-10T10:32:13Z</time>
      </trkpt>
      <trkpt lat="44.756" lon="5.03042">
        <ele>280.36</ele>
        <time>2019-01-10T10:32:20Z</time>
      </trkpt>
      <trkpt lat="44.7566" lon="5.03042">
        <ele>276.04</ele>
        <time>2019-01-10T10:32:28Z</time>
      </trkpt>
      <trkpt lat="44.75687" lon="5.03043">
        <ele>272.19</ele>
        <time>2019-01-10T10:32:31Z</time>
      </trkpt>
      <trkpt lat="44.75695" lon="5.03044">
        <ele>271.71</ele>
        <time>2019-01-10T10:32:32Z</time>
      </trkpt>
      <trkpt lat="44.75704" lon="5.03047">
        <ele>271.23</ele>
        <time>2019-01-10T10:32:33Z</time>
      </trkpt>
      <trkpt lat="44.75712" lon="5.03051">
        <ele>268.83</ele>
        <time>2019-01-10T10:32:34Z</time>
      </trkpt>
      <trkpt lat="44.75719" lon="5.03055">
        <ele>268.83</ele>
        <time>2019-01-10T10:32:35Z</time>
      </trkpt>
      <trkpt lat="44.75732" lon="5.03061">
        <ele>270.75</ele>
        <time>2019-01-10T10:32:37Z</time>
      </trkpt>
      <trkpt lat="44.75783" lon="5.03078">
        <ele>270.75</ele>
        <time>2019-01-10T10:32:46Z</time>
      </trkpt>
      <trkpt lat="44.75788" lon="5.0308">
        <ele>270.27</ele>
        <time>2019-01-10T10:32:47Z</time>
      </trkpt>
      <trkpt lat="44.75814" lon="5.0309">
        <ele>270.27</ele>
        <time>2019-01-10T10:32:52Z</time>
      </trkpt>
      <trkpt lat="44.75883" lon="5.03117">
        <ele>270.27</ele>
        <time>2019-01-10T10:33:07Z</time>
      </trkpt>
      <trkpt lat="44.75903" lon="5.03123">
        <ele>268.83</ele>
        <time>2019-01-10T10:33:11Z</time>
      </trkpt>
      <trkpt lat="44.75962" lon="5.03145">
        <ele>268.35</ele>
        <time>2019-01-10T10:33:22Z</time>
      </trkpt>
      <trkpt lat="44.75968" lon="5.03145">
        <ele>268.35</ele>
        <time>2019-01-10T10:33:23Z</time>
      </trkpt>
      <trkpt lat="44.75974" lon="5.03145">
        <ele>267.38</ele>
        <time>2019-01-10T10:33:24Z</time>
      </trkpt>
      <trkpt lat="44.7598" lon="5.03144">
        <ele>267.38</ele>
        <time>2019-01-10T10:33:25Z</time>
      </trkpt>
      <trkpt lat="44.75986" lon="5.03144">
        <ele>265.94</ele>
        <time>2019-01-10T10:33:26Z</time>
      </trkpt>
      <trkpt lat="44.75998" lon="5.03144">
        <ele>264.5</ele>
        <time>2019-01-10T10:33:28Z</time>
      </trkpt>
      <trkpt lat="44.76004" lon="5.03145">
        <ele>264.5</ele>
        <time>2019-01-10T10:33:29Z</time>
      </trkpt>
      <trkpt lat="44.76009" lon="5.03145">
        <ele>264.5</ele>
        <time>2019-01-10T10:33:30Z</time>
      </trkpt>
      <trkpt lat="44.76027" lon="5.03146">
        <ele>264.5</ele>
        <time>2019-01-10T10:33:33Z</time>
      </trkpt>
      <trkpt lat="44.76032" lon="5.03147">
        <ele>264.02</ele>
        <time>2019-01-10T10:33:34Z</time>
      </trkpt>
      <trkpt lat="44.76038" lon="5.03149">
        <ele>263.54</ele>
        <time>2019-01-10T10:33:35Z</time>
      </trkpt>
      <trkpt lat="44.76043" lon="5.0315">
        <ele>263.06</ele>
        <time>2019-01-10T10:33:36Z</time>
      </trkpt>
      <trkpt lat="44.76049" lon="5.03148">
        <ele>262.58</ele>
        <time>2019-01-10T10:33:37Z</time>
      </trkpt>
      <trkpt lat="44.76054" lon="5.03146">
        <ele>262.1</ele>
        <time>2019-01-10T10:33:38Z</time>
      </trkpt>
      <trkpt lat="44.7611" lon="5.03152">
        <ele>263.54</ele>
        <time>2019-01-10T10:33:49Z</time>
      </trkpt>
      <trkpt lat="44.76155" lon="5.03164">
        <ele>265.94</ele>
        <time>2019-01-10T10:34:01Z</time>
      </trkpt>
      <trkpt lat="44.76188" lon="5.03174">
        <ele>268.35</ele>
        <time>2019-01-10T10:34:13Z</time>
      </trkpt>
      <trkpt lat="44.76197" lon="5.03179">
        <ele>269.79</ele>
        <time>2019-01-10T10:34:17Z</time>
      </trkpt>
      <trkpt lat="44.76213" lon="5.03185">
        <ele>270.27</ele>
        <time>2019-01-10T10:34:24Z</time>
      </trkpt>
      <trkpt lat="44.76228" lon="5.03192">
        <ele>273.15</ele>
        <time>2019-01-10T10:34:31Z</time>
      </trkpt>
      <trkpt lat="44.76236" lon="5.03196">
        <ele>274.59</ele>
        <time>2019-01-10T10:34:35Z</time>
      </trkpt>
      <trkpt lat="44.76266" lon="5.03213">
        <ele>275.07</ele>
        <time>2019-01-10T10:34:47Z</time>
      </trkpt>
      <trkpt lat="44.76305" lon="5.03245">
        <ele>271.71</ele>
        <time>2019-01-10T10:35:00Z</time>
      </trkpt>
      <trkpt lat="44.76357" lon="5.03294">
        <ele>271.71</ele>
        <time>2019-01-10T10:35:15Z</time>
      </trkpt>
      <trkpt lat="44.76368" lon="5.03303">
        <ele>272.19</ele>
        <time>2019-01-10T10:35:18Z</time>
      </trkpt>
      <trkpt lat="44.7638" lon="5.03309">
        <ele>271.71</ele>
        <time>2019-01-10T10:35:21Z</time>
      </trkpt>
      <trkpt lat="44.7641" lon="5.03331">
        <ele>274.59</ele>
        <time>2019-01-10T10:35:31Z</time>
      </trkpt>
      <trkpt lat="44.76419" lon="5.03341">
        <ele>276.52</ele>
        <time>2019-01-10T10:35:35Z</time>
      </trkpt>
      <trkpt lat="44.76452" lon="5.03351">
        <ele>276.04</ele>
        <time>2019-01-10T10:35:45Z</time>
      </trkpt>
      <trkpt lat="44.76489" lon="5.03371">
        <ele>273.15</ele>
        <time>2019-01-10T10:35:53Z</time>
      </trkpt>
      <trkpt lat="44.76498" lon="5.03376">
        <ele>272.19</ele>
        <time>2019-01-10T10:35:55Z</time>
      </trkpt>
      <trkpt lat="44.76526" lon="5.03383">
        <ele>270.27</ele>
        <time>2019-01-10T10:36:00Z</time>
      </trkpt>
      <trkpt lat="44.76571" lon="5.03396">
        <ele>266.9</ele>
        <time>2019-01-10T10:36:07Z</time>
      </trkpt>
      <trkpt lat="44.76608" lon="5.03402">
        <ele>264.02</ele>
        <time>2019-01-10T10:36:12Z</time>
      </trkpt>
      <trkpt lat="44.76647" lon="5.03407">
        <ele>260.65</ele>
        <time>2019-01-10T10:36:17Z</time>
      </trkpt>
      <trkpt lat="44.76654" lon="5.03406">
        <ele>259.69</ele>
        <time>2019-01-10T10:36:18Z</time>
      </trkpt>
      <trkpt lat="44.76661" lon="5.03402">
        <ele>259.21</ele>
        <time>2019-01-10T10:36:19Z</time>
      </trkpt>
      <trkpt lat="44.76667" lon="5.03397">
        <ele>258.73</ele>
        <time>2019-01-10T10:36:20Z</time>
      </trkpt>
      <trkpt lat="44.7668" lon="5.03387">
        <ele>257.77</ele>
        <time>2019-01-10T10:36:22Z</time>
      </trkpt>
      <trkpt lat="44.76717" lon="5.03351">
        <ele>261.62</ele>
        <time>2019-01-10T10:36:29Z</time>
      </trkpt>
      <trkpt lat="44.76728" lon="5.03343">
        <ele>264.98</ele>
        <time>2019-01-10T10:36:33Z</time>
      </trkpt>
      <trkpt lat="44.76734" lon="5.03338">
        <ele>266.9</ele>
        <time>2019-01-10T10:36:36Z</time>
      </trkpt>
      <trkpt lat="44.76749" lon="5.03327">
        <ele>270.27</ele>
        <time>2019-01-10T10:36:43Z</time>
      </trkpt>
      <trkpt lat="44.76762" lon="5.03314">
        <ele>273.63</ele>
        <time>2019-01-10T10:36:50Z</time>
      </trkpt>
      <trkpt lat="44.76773" lon="5.03311">
        <ele>275.07</ele>
        <time>2019-01-10T10:37:00Z</time>
      </trkpt>
      <trkpt lat="44.76773" lon="5.03316">
        <ele>275.56</ele>
        <time>2019-01-10T10:37:06Z</time>
      </trkpt>
      <trkpt lat="44.76774" lon="5.03317">
        <ele>275.56</ele>
        <time>2019-01-10T10:37:07Z</time>
      </trkpt>
      <trkpt lat="44.76775" lon="5.03318">
        <ele>275.56</ele>
        <time>2019-01-10T10:37:08Z</time>
      </trkpt>
      <trkpt lat="44.76776" lon="5.03317">
        <ele>275.56</ele>
        <time>2019-01-10T10:37:09Z</time>
      </trkpt>
      <trkpt lat="44.76777" lon="5.03315">
        <ele>275.56</ele>
        <time>2019-01-10T10:37:20Z</time>
      </trkpt>
      <trkpt lat="44.76777" lon="5.03315">
        <ele>275.56</ele>
        <time>2019-01-10T10:37:55Z</time>
      </trkpt>
      <trkpt lat="44.76776" lon="5.03315">
        <ele>275.07</ele>
        <time>2019-01-10T10:38:15Z</time>
      </trkpt>
      <trkpt lat="44.76777" lon="5.03312">
        <ele>275.07</ele>
        <time>2019-01-10T10:38:16Z</time>
      </trkpt>
      <trkpt lat="44.76786" lon="5.03297">
        <ele>273.63</ele>
        <time>2019-01-10T10:38:21Z</time>
      </trkpt>
      <trkpt lat="44.76788" lon="5.03297">
        <ele>273.15</ele>
        <time>2019-01-10T10:38:22Z</time>
      </trkpt>
      <trkpt lat="44.76792" lon="5.03296">
        <ele>272.67</ele>
        <time>2019-01-10T10:38:23Z</time>
      </trkpt>
      <trkpt lat="44.76796" lon="5.03295">
        <ele>272.19</ele>
        <time>2019-01-10T10:38:24Z</time>
      </trkpt>
      <trkpt lat="44.768" lon="5.03294">
        <ele>271.71</ele>
        <time>2019-01-10T10:38:25Z</time>
      </trkpt>
      <trkpt lat="44.76804" lon="5.03295">
        <ele>271.23</ele>
        <time>2019-01-10T10:38:26Z</time>
      </trkpt>
      <trkpt lat="44.76808" lon="5.03296">
        <ele>271.23</ele>
        <time>2019-01-10T10:38:27Z</time>
      </trkpt>
      <trkpt lat="44.76833" lon="5.03299">
        <ele>268.83</ele>
        <time>2019-01-10T10:38:32Z</time>
      </trkpt>
      <trkpt lat="44.76839" lon="5.03301">
        <ele>267.86</ele>
        <time>2019-01-10T10:38:33Z</time>
      </trkpt>
      <trkpt lat="44.76844" lon="5.03304">
        <ele>268.35</ele>
        <time>2019-01-10T10:38:34Z</time>
      </trkpt>
      <trkpt lat="44.76848" lon="5.03308">
        <ele>268.35</ele>
        <time>2019-01-10T10:38:35Z</time>
      </trkpt>
      <trkpt lat="44.76851" lon="5.03311">
        <ele>268.83</ele>
        <time>2019-01-10T10:38:36Z</time>
      </trkpt>
      <trkpt lat="44.76853" lon="5.0331">
        <ele>269.79</ele>
        <time>2019-01-10T10:38:37Z</time>
      </trkpt>
      <trkpt lat="44.76855" lon="5.03309">
        <ele>270.75</ele>
        <time>2019-01-10T10:38:38Z</time>
      </trkpt>
      <trkpt lat="44.76856" lon="5.03307">
        <ele>270.75</ele>
        <time>2019-01-10T10:38:46Z</time>
      </trkpt>
      <trkpt lat="44.76857" lon="5.03308">
        <ele>270.27</ele>
        <time>2019-01-10T10:38:53Z</time>
      </trkpt>
      <trkpt lat="44.76859" lon="5.0331">
        <ele>269.79</ele>
        <time>2019-01-10T10:38:54Z</time>
      </trkpt>
      <trkpt lat="44.76863" lon="5.03313">
        <ele>268.83</ele>
        <time>2019-01-10T10:38:55Z</time>
      </trkpt>
      <trkpt lat="44.76866" lon="5.03316">
        <ele>268.35</ele>
        <time>2019-01-10T10:38:56Z</time>
      </trkpt>
      <trkpt lat="44.7687" lon="5.03316">
        <ele>268.35</ele>
        <time>2019-01-10T10:38:57Z</time>
      </trkpt>
      <trkpt lat="44.76874" lon="5.03316">
        <ele>267.86</ele>
        <time>2019-01-10T10:38:58Z</time>
      </trkpt>
      <trkpt lat="44.76882" lon="5.03317">
        <ele>267.86</ele>
        <time>2019-01-10T10:39:00Z</time>
      </trkpt>
      <trkpt lat="44.76886" lon="5.03314">
        <ele>267.38</ele>
        <time>2019-01-10T10:39:01Z</time>
      </trkpt>
      <trkpt lat="44.76889" lon="5.03309">
        <ele>266.9</ele>
        <time>2019-01-10T10:39:02Z</time>
      </trkpt>
      <trkpt lat="44.7689" lon="5.03303">
        <ele>266.9</ele>
        <time>2019-01-10T10:39:03Z</time>
      </trkpt>
      <trkpt lat="44.76891" lon="5.03297">
        <ele>267.38</ele>
        <time>2019-01-10T10:39:04Z</time>
      </trkpt>
      <trkpt lat="44.76892" lon="5.03292">
        <ele>267.86</ele>
        <time>2019-01-10T10:39:05Z</time>
      </trkpt>
      <trkpt lat="44.76893" lon="5.03287">
        <ele>267.38</ele>
        <time>2019-01-10T10:39:06Z</time>
      </trkpt>
      <trkpt lat="44.76894" lon="5.03282">
        <ele>266.9</ele>
        <time>2019-01-10T10:39:07Z</time>
      </trkpt>
      <trkpt lat="44.76894" lon="5.03276">
        <ele>267.86</ele>
        <time>2019-01-10T10:39:08Z</time>
      </trkpt>
      <trkpt lat="44.76893" lon="5.03272">
        <ele>267.38</ele>
        <time>2019-01-10T10:39:09Z</time>
      </trkpt>
      <trkpt lat="44.76891" lon="5.0327">
        <ele>266.9</ele>
        <time>2019-01-10T10:39:10Z</time>
      </trkpt>
      <trkpt lat="44.7689" lon="5.0327">
        <ele>267.86</ele>
        <time>2019-01-10T10:39:11Z</time>
      </trkpt>
      <trkpt lat="44.76887" lon="5.03271">
        <ele>270.75</ele>
        <time>2019-01-10T10:39:24Z</time>
      </trkpt>
    </trkseg>
  </trk>
</gpx>